[[{"header":{"parameterUnit":"m.s-1","parameterCategory":1,"la1":30.6,"la2":28.766,"lo1":-90.7593,"lo2":-88.6598,"dy":0.0162,"dx":0.0183,"nx":116,"ny":114,"refTime":"2023-10-02T12:00:00:Z","depth":0,"parameterNumber":2,"parameterNumberName":"U-component_of_WINDS"},"data":[0.0,0.0,0.0,0.0,0.0,0.0,0.0,0.0,0.0,0.0,0.0,0.0,0.0,0.0,0.0,0.0,0.0,0.0,0.0,0.0,0.0,0.0,0.0,0.0,0.0,0.0,0.0,0.0,0.0,0.0,0.0,0.0,0.0,0.0,0.0,0.0,0.0,0.0,0.0,0.0,0.0,0.0,0.0,0.0,0.0,0.0,0.0,0.0,0.0,0.0,0.0,0.0,0.0,0.0,0.0,0.0,0.0,0.0,0.0,0.0,0.0,0.0,0.0,0.0,0.0,0.0,0.0,0.0,0.0,0.0,0.0,0.0,0.0,0.0,0.0,0.0,0.0,0.0,0.0,0.0,0.0,0.0,0.0,0.0,0.0,0.0,0.0,0.0,0.0,0.0,0.0,0.0,0.0,0.0,0.0,0.0,0.0,0.0,0.0,0.0,0.0,0.0,0.0,0.0,0.0,0.0,0.0,0.0,0.0,0.0,0.0,0.0,0.0,0.0,0.0,0.0,0.0,0.0,0.0,0.0,0.0,0.0,0.0,0.0,0.0,0.0,0.0,0.0,0.0,0.0,0.0,0.0,0.0,0.0,0.0,0.0,0.0,0.0,0.0,0.0,0.0,0.0,0.0,0.0,0.0,0.0,0.0,0.0,0.0,0.0,0.0,0.0,0.0,0.0,0.0,0.0,0.0,0.0,0.0,0.0,0.0,0.0,0.0,0.0,0.0,0.0,0.0,0.0,0.0,0.0,0.0,0.0,0.0,0.0,0.0,0.0,0.0,0.0,0.0,0.0,0.0,0.0,0.0,0.0,0.0,0.0,0.0,0.0,0.0,0.0,0.0,0.0,0.0,0.0,0.0,0.0,0.0,0.0,0.0,0.0,0.0,0.0,0.0,0.0,0.0,0.0,0.0,0.0,0.0,0.0,0.0,0.0,0.0,0.0,0.0,0.0,0.0,0.0,0.0,0.0,0.0,0.0,0.0,0.0,0.0,0.0,0.0,0.0,0.0,0.0,0.0,0.0,0.0,0.0,0.0,0.0,0.0,0.0,0.0,0.0,0.0,0.0,0.0,0.0,0.0,0.0,0.0,0.0,0.0,0.0,0.0,0.0,0.0,0.0,0.0,0.0,0.0,0.0,0.0,0.0,0.0,0.0,0.0,0.0,0.0,0.0,0.0,0.0,0.0,0.0,0.0,0.0,0.0,0.0,0.0,0.0,0.0,0.0,0.0,0.0,0.0,0.0,0.0,0.0,0.0,0.0,0.0,0.0,0.0,0.0,0.0,0.0,0.0,0.0,0.0,0.0,0.0,0.0,0.0,0.0,0.0,0.0,0.0,0.0,0.0,0.0,0.0,0.0,0.0,0.0,0.0,0.0,0.0,0.0,0.0,0.0,0.0,0.0,0.0,0.0,0.0,0.0,0.0,0.0,0.0,0.0,0.0,0.0,0.0,0.0,0.0,0.0,0.0,0.0,0.0,0.0,0.0,0.0,0.0,0.0,0.0,0.0,0.0,0.0,0.0,0.0,0.0,0.0,0.0,0.0,0.0,0.0,0.0,0.0,0.0,0.0,0.0,0.0,0.0,0.0,0.0,0.0,0.0,0.0,0.0,0.0,0.0,0.0,0.0,0.0,0.0,0.0,0.0,0.0,0.0,0.0,0.0,0.0,0.0,0.0,0.0,0.0,0.0,0.0,0.0,0.0,0.0,0.0,0.0,0.0,0.0,0.0,0.0,0.0,0.0,0.0,0.0,0.0,0.0,0.0,0.0,0.0,0.0,0.0,0.0,0.0,0.0,0.0,0.0,0.0,0.0,0.0,0.0,0.0,0.0,0.0,0.0,0.0,0.0,0.0,0.0,0.0,0.0,0.0,0.0,0.0,0.0,0.0,0.0,0.0,0.0,0.0,0.0,0.0,0.0,0.0,0.0,0.0,0.0,0.0,0.0,0.0,0.0,0.0,0.0,0.0,0.0,0.0,0.0,0.0,0.0,0.0,0.0,0.0,0.0,0.0,0.0,0.0,0.0,0.0,0.0,0.0,0.0,0.0,0.0,0.0,0.0,0.0,0.0,0.0,0.0,0.0,0.0,0.0,0.0,0.0,0.0,0.0,0.0,0.0,0.0,0.0,0.0,0.0,0.0,0.0,0.0,0.0,0.0,0.0,0.0,0.0,0.0,0.0,0.0,0.0,0.0,0.0,0.0,0.0,0.0,0.0,0.0,0.0,0.0,0.0,0.0,0.0,0.0,0.0,0.0,0.0,0.0,0.0,0.0,0.0,0.0,0.0,0.0,0.0,0.0,0.0,0.0,0.0,0.0,0.0,0.0,0.0,0.0,0.0,0.0,0.0,0.0,0.0,0.0,0.0,0.0,0.0,0.0,0.0,0.0,0.0,0.0,0.0,0.0,0.0,0.0,0.0,0.0,0.0,0.0,0.0,0.0,0.0,0.0,0.0,0.0,0.0,0.0,0.0,0.0,0.0,0.0,0.0,0.0,0.0,0.0,0.0,0.0,0.0,0.0,0.0,0.0,0.0,0.0,0.0,0.0,0.0,0.0,0.0,0.0,0.0,0.0,0.0,0.0,0.0,0.0,0.0,0.0,0.0,0.0,0.0,0.0,0.0,0.0,0.0,0.0,0.0,0.0,0.0,0.0,0.0,0.0,0.0,0.0,0.0,0.0,0.0,0.0,0.0,0.0,0.0,0.0,0.0,0.0,0.0,0.0,0.0,0.0,0.0,0.0,0.0,0.0,0.0,0.0,0.0,0.0,0.0,0.0,0.0,0.0,0.0,0.0,0.0,0.0,0.0,0.0,0.0,0.0,0.0,0.0,0.0,0.0,0.0,0.0,0.0,0.0,0.0,0.0,0.0,0.0,0.0,0.0,0.0,0.0,0.0,0.0,0.0,0.0,0.0,0.0,0.0,0.0,0.0,0.0,0.0,0.0,0.0,0.0,0.0,0.0,0.0,0.0,0.0,0.0,0.0,0.0,0.0,0.0,0.0,0.0,0.0,0.0,0.0,0.0,0.0,0.0,0.0,0.0,0.0,0.0,0.0,0.0,0.0,0.0,0.0,0.0,0.0,0.0,0.0,0.0,0.0,0.0,0.0,0.0,0.0,0.0,0.0,0.0,0.0,0.0,0.0,0.0,0.0,0.0,0.0,0.0,0.0,0.0,0.0,0.0,0.0,0.0,0.0,0.0,0.0,0.0,0.0,0.0,0.0,0.0,0.0,0.0,0.0,0.0,0.0,0.0,0.0,0.0,0.0,0.0,0.0,0.0,0.0,0.0,0.0,0.0,0.0,0.0,0.0,0.0,0.0,0.0,0.0,0.0,0.0,0.0,0.0,0.0,0.0,0.0,0.0,0.0,0.0,0.0,0.0,0.0,0.0,0.0,0.0,0.0,0.0,0.0,0.0,0.0,0.0,0.0,0.0,0.0,0.0,0.0,0.0,0.0,0.0,0.0,0.0,0.0,0.0,0.0,0.0,0.0,0.0,0.0,0.0,0.0,0.0,0.0,0.0,0.0,0.0,0.0,0.0,0.0,0.0,0.0,0.0,0.0,0.0,0.0,0.0,0.0,0.0,0.0,0.0,0.0,0.0,0.0,0.0,0.0,0.0,0.0,0.0,0.0,0.0,0.0,0.0,0.0,0.0,0.0,0.0,0.0,0.0,0.0,0.0,0.0,0.0,0.0,0.0,0.0,0.0,0.0,0.0,0.0,0.0,0.0,0.0,0.0,0.0,0.0,0.0,0.0,0.0,0.0,0.0,0.0,0.0,0.0,0.0,0.0,0.0,0.0,0.0,0.0,0.0,0.0,0.0,0.0,0.0,0.0,0.0,0.0,0.0,0.0,0.0,0.0,0.0,0.0,0.0,0.0,0.0,0.0,0.0,0.0,0.0,0.0,0.0,0.0,0.0,0.0,0.0,0.0,0.0,0.0,0.0,0.0,0.0,0.0,0.0,0.0,0.0,0.0,0.0,0.0,0.0,0.0,0.0,0.0,0.0,0.0,0.0,0.0,0.0,0.0,0.0,0.0,0.0,0.0,0.0,0.0,0.0,0.0,0.0,0.0,0.0,0.0,0.0,0.0,0.0,0.0,0.0,0.0,0.0,0.0,0.0,0.0,0.0,0.0,0.0,0.0,0.0,0.0,0.0,0.0,0.0,0.0,0.0,0.0,0.0,0.0,0.0,0.0,0.0,0.0,0.0,0.0,0.0,0.0,0.0,0.0,0.0,0.0,0.0,0.0,0.0,0.0,0.0,0.0,0.0,0.0,0.0,0.0,0.0,0.0,0.0,0.0,0.0,0.0,0.0,0.0,0.0,0.0,0.0,0.0,0.0,0.0,0.0,0.0,0.0,0.0,0.0,0.0,0.0,0.0,0.0,0.0,0.0,0.0,0.0,0.0,0.0,0.0,0.0,0.0,0.0,0.0,0.0,0.0,0.0,0.0,0.0,0.0,0.0,0.0,0.0,0.0,0.0,0.0,0.0,0.0,0.0,0.0,0.0,0.0,0.0,0.0,0.0,0.0,0.0,0.0,0.0,0.0,0.0,0.0,0.0,0.0,0.0,0.0,0.0,0.0,0.0,0.0,0.0,0.0,0.0,0.0,0.0,0.0,0.0,0.0,0.0,0.0,0.0,0.0,0.0,0.0,0.0,0.0,0.0,0.0,0.0,0.0,0.0,0.0,0.0,0.0,0.0,0.0,0.0,0.0,0.0,0.0,0.0,0.0,0.0,0.0,0.0,0.0,0.0,0.0,0.0,0.0,0.0,0.0,0.0,0.0,0.0,0.0,0.0,0.0,0.0,0.0,0.0,0.0,0.0,0.0,0.0,0.0,0.0,0.0,0.0,0.0,0.0,0.0,0.0,0.0,0.0,0.0,0.0,0.0,0.0,0.0,0.0,0.0,0.0,0.0,0.0,0.0,0.0,0.0,0.0,0.0,0.0,0.0,0.0,0.0,0.0,0.0,0.0,0.0,0.0,0.0,0.0,0.0,0.0,0.0,0.0,0.0,0.0,0.0,0.0,0.0,0.0,0.0,0.0,0.0,0.0,0.0,0.0,0.0,0.0,0.0,0.0,0.0,0.0,0.0,0.0,0.0,0.0,0.0,0.0,0.0,0.0,0.0,0.0,0.0,0.0,0.0,0.0,0.0,0.0,0.0,0.0,0.0,0.0,0.0,0.0,0.0,0.0,0.0,0.0,0.0,0.0,0.0,0.0,0.0,0.0,0.0,0.0,0.0,0.0,0.0,0.0,0.0,0.0,0.0,0.0,0.0,0.0,0.0,0.0,0.0,0.0,0.0,0.0,0.0,0.0,0.0,0.0,0.0,0.0,0.0,0.0,0.0,0.0,0.0,0.0,0.0,0.0,0.0,0.0,0.0,0.0,0.0,0.0,0.0,0.0,0.0,0.0,0.0,0.0,0.0,0.0,0.0,0.0,0.0,0.0,0.0,0.0,0.0,0.0,0.0,0.0,0.0,0.0,0.0,0.0,0.0,0.0,0.0,0.0,0.0,0.0,0.0,0.0,0.0,0.0,0.0,0.0,0.0,0.0,0.0,0.0,0.0,0.0,0.0,0.0,0.0,0.0,0.0,0.0,0.0,0.0,0.0,0.0,0.0,0.0,0.0,0.0,0.0,0.0,0.0,0.0,0.0,0.0,0.0,0.0,0.0,0.0,0.0,0.0,0.0,0.0,0.0,0.0,0.0,0.0,0.0,0.0,0.0,0.0,0.0,0.0,0.0,0.0,0.0,0.0,0.0,0.0,0.0,0.0,0.0,0.0,0.0,0.0,0.0,0.0,0.0,0.0,0.0,0.0,0.0,0.0,0.0,0.0,0.0,0.0,0.0,0.0,0.0,0.0,0.0,0.0,0.0,0.0,0.0,0.0,0.0,0.0,0.0,0.0,0.0,0.0,0.0,0.0,0.0,0.0,0.0,0.0,0.0,0.0,0.0,0.0,0.0,0.0,0.0,0.0,0.0,0.0,0.0,0.0,0.0,0.0,0.0,0.0,0.0,0.0,0.0,0.0,0.0,0.0,0.0,0.0,0.0,0.0,0.0,0.0,0.0,0.0,0.0,0.0,4.6157,4.6154,0.0,0.0,0.0,0.0,0.0,0.0,0.0,0.0,0.0,0.0,0.0,0.0,0.0,0.0,0.0,0.0,0.0,0.0,0.0,0.0,0.0,0.0,0.0,0.0,0.0,0.0,0.0,0.0,0.0,0.0,0.0,0.0,0.0,0.0,0.0,0.0,0.0,0.0,5.0702,5.0702,5.0702,5.0702,5.074,5.081,0.0,0.0,0.0,0.0,0.0,0.0,0.0,0.0,0.0,0.0,0.0,0.0,0.0,0.0,0.0,0.0,0.0,0.0,0.0,0.0,0.0,0.0,0.0,0.0,0.0,0.0,0.0,0.0,0.0,0.0,0.0,0.0,0.0,0.0,0.0,0.0,0.0,0.0,0.0,0.0,0.0,0.0,0.0,0.0,0.0,0.0,0.0,0.0,0.0,0.0,0.0,0.0,0.0,0.0,0.0,0.0,0.0,0.0,0.0,0.0,0.0,0.0,0.0,0.0,0.0,0.0,0.0,0.0,0.0,0.0,4.656,4.6196,0.0,0.0,0.0,0.0,0.0,0.0,0.0,0.0,0.0,0.0,0.0,0.0,0.0,0.0,0.0,0.0,0.0,0.0,0.0,0.0,0.0,0.0,0.0,5.1394,5.1394,5.1394,5.1386,5.1322,0.0,0.0,0.0,0.0,0.0,0.0,0.0,0.0,0.0,0.0,5.0702,5.0702,5.0702,5.0702,5.0702,5.0702,5.0827,0.0,0.0,0.0,0.0,0.0,0.0,0.0,0.0,0.0,0.0,0.0,0.0,0.0,0.0,0.0,0.0,0.0,0.0,0.0,0.0,0.0,0.0,0.0,0.0,0.0,0.0,0.0,0.0,0.0,0.0,0.0,0.0,0.0,0.0,0.0,0.0,0.0,0.0,0.0,0.0,0.0,0.0,0.0,0.0,0.0,0.0,0.0,0.0,0.0,0.0,0.0,0.0,0.0,0.0,0.0,0.0,0.0,0.0,0.0,0.0,0.0,0.0,0.0,4.7728,4.8098,4.8801,4.8794,4.8806,4.8729,4.7287,4.6644,4.6644,4.6644,0.0,0.0,0.0,0.0,0.0,0.0,0.0,0.0,0.0,0.0,0.0,0.0,0.0,0.0,0.0,0.0,0.0,0.0,0.0,0.0,0.0,5.1394,5.1394,5.1394,5.1291,5.1159,5.1031,0.0,0.0,0.0,0.0,0.0,0.0,5.0702,5.0702,5.0702,5.0702,5.0702,5.0702,5.0702,5.0702,5.0683,5.0721,5.0793,5.0902,0.0,0.0,0.0,0.0,0.0,0.0,0.0,0.0,0.0,0.0,0.0,0.0,0.0,0.0,0.0,0.0,0.0,0.0,0.0,0.0,0.0,0.0,0.0,0.0,0.0,0.0,0.0,0.0,0.0,0.0,0.0,0.0,0.0,0.0,0.0,0.0,0.0,0.0,0.0,0.0,0.0,4.63,4.6303,0.0,0.0,0.0,0.0,0.0,0.0,0.0,0.0,0.0,0.0,0.0,0.0,0.0,4.8469,4.8451,4.8469,4.8506,4.8621,4.8638,4.8699,4.8811,4.8808,4.8806,4.8787,4.8553,0.0,4.8456,4.8456,0.0,0.0,0.0,0.0,0.0,0.0,0.0,0.0,0.0,0.0,0.0,0.0,0.0,0.0,0.0,0.0,0.0,0.0,0.0,0.0,0.0,5.1333,5.1291,5.1291,5.1159,5.105,5.0945,5.0913,0.0,0.0,0.0,0.0,5.0702,5.0702,5.0702,5.0702,5.0702,5.0702,5.0702,5.0702,5.0702,5.0702,5.0702,5.0721,5.0793,5.0874,0.0,0.0,0.0,0.0,0.0,0.0,0.0,0.0,0.0,0.0,0.0,0.0,0.0,0.0,0.0,0.0,0.0,0.0,0.0,0.0,0.0,0.0,0.0,0.0,0.0,0.0,0.0,0.0,0.0,0.0,0.0,0.0,0.0,0.0,0.0,0.0,0.0,0.0,0.0,4.63,4.63,4.63,4.6729,4.7022,0.0,0.0,0.0,0.0,0.0,0.0,0.0,0.0,0.0,4.8789,4.8808,4.8808,4.8804,4.8808,4.9041,4.9524,4.9536,4.9761,5.0206,5.0197,5.0209,5.0209,5.0209,5.0209,5.0131,4.9196,4.8806,4.8806,0.0,0.0,0.0,0.0,4.8806,4.8806,0.0,0.0,0.0,0.0,0.0,0.0,0.0,0.0,0.0,0.0,0.0,0.0,5.1318,5.1238,5.115,5.115,5.105,5.0959,5.0902,5.0874,5.081,0.0,0.0,5.0702,5.0702,5.0702,5.0702,5.0702,5.0702,5.0702,5.0702,5.0702,5.0702,5.0702,5.0702,5.0702,5.0721,5.081,5.0874,5.0917,0.0,0.0,0.0,0.0,0.0,0.0,0.0,0.0,0.0,0.0,0.0,0.0,0.0,0.0,0.0,0.0,0.0,0.0,0.0,0.0,0.0,0.0,0.0,0.0,0.0,0.0,0.0,0.0,0.0,0.0,0.0,0.0,0.0,0.0,0.0,0.0,0.0,4.6807,4.6944,4.6944,4.751,4.792,0.0,0.0,0.0,0.0,0.0,0.0,4.9114,4.9133,4.9231,4.9465,4.9465,4.948,4.9462,4.9468,4.9785,5.0422,5.0425,5.083,5.1632,5.1632,5.1632,5.1632,5.1632,5.1515,5.1203,4.9956,4.943,4.943,4.943,4.943,4.943,4.943,4.943,4.943,0.0,0.0,0.0,0.0,0.0,0.0,0.0,0.0,0.0,0.0,0.0,5.0295,5.1113,5.1084,5.1008,5.1008,5.0951,5.0902,5.0902,5.0775,5.0702,5.0702,5.0702,5.0702,5.0702,5.0702,5.0702,5.0702,5.0702,5.0702,5.0702,5.0702,5.0702,5.0702,5.0702,5.0702,5.0683,5.0702,5.0775,5.0902,5.0979,0.0,0.0,0.0,0.0,0.0,0.0,0.0,0.0,0.0,0.0,0.0,0.0,0.0,0.0,0.0,0.0,0.0,0.0,0.0,0.0,0.0,0.0,0.0,0.0,0.0,0.0,0.0,0.0,0.0,0.0,0.0,0.0,0.0,0.0,0.0,0.0,0.0,0.0,4.8662,4.8701,0.0,0.0,0.0,0.0,4.8798,4.8798,4.9169,4.9989,5.0028,5.0418,5.1238,5.1277,5.1277,5.1277,5.1269,5.1281,5.134,5.1277,5.169,5.2528,5.2528,5.2528,5.2528,5.2528,5.206,5.13,5.1203,5.1164,5.1164,5.1164,5.1164,5.1164,5.1164,5.1164,5.1164,0.0,0.0,0.0,0.0,0.0,0.0,0.0,0.0,4.79,4.8681,4.9438,5.0229,5.1106,5.1027,5.0937,5.0937,5.0822,5.0776,5.0776,5.0721,5.0702,5.0702,5.0702,5.0702,5.0702,5.0702,5.0702,5.0702,5.0702,5.0702,5.0702,5.0702,5.0702,5.0702,5.0702,5.0682,5.0643,5.0683,5.074,5.0775,5.0898,5.0998,0.0,0.0,0.0,0.0,0.0,0.0,0.0,0.0,0.0,0.0,0.0,0.0,0.0,0.0,0.0,0.0,0.0,0.0,0.0,0.0,0.0,0.0,0.0,0.0,0.0,0.0,0.0,0.0,0.0,0.0,0.0,0.0,0.0,0.0,0.0,0.0,0.0,4.8798,4.9306,0.0,4.9638,5.0145,5.0477,5.0477,5.0477,5.0614,5.0926,5.0945,5.1082,5.1394,5.1941,5.2244,5.2238,5.2753,5.3012,5.3014,5.2974,5.3151,5.3444,5.3444,5.3444,5.3444,5.3444,5.3268,5.2976,5.2976,5.2314,5.13,5.13,5.13,5.13,5.13,5.13,5.13,0.0,0.0,0.0,0.0,0.0,0.0,0.0,0.0,4.7569,4.8662,4.9179,4.9867,5.1015,5.0965,5.0825,5.0825,5.074,5.0702,5.0702,5.0702,5.0702,5.0702,5.0702,5.0702,5.0702,5.0702,5.0702,5.0702,5.0702,5.0702,5.0702,5.0682,5.0682,5.0682,5.0643,5.0603,5.0582,5.0643,5.0643,5.0663,5.0789,5.0894,5.0953,0.0,0.0,0.0,0.0,0.0,0.0,0.0,0.0,0.0,0.0,0.0,0.0,0.0,0.0,0.0,0.0,0.0,0.0,0.0,0.0,0.0,0.0,0.0,0.0,0.0,0.0,0.0,0.0,0.0,0.0,0.0,0.0,0.0,0.0,4.9481,4.9677,4.9677,5.0184,5.0535,5.0535,5.1063,5.1394,5.1394,5.1668,5.1843,5.1843,5.2117,5.2273,5.2273,5.2839,5.3143,5.3136,5.3672,5.3917,5.3893,5.391,5.4052,5.434,5.434,5.434,5.434,5.434,5.4164,5.3911,5.3911,5.3229,5.2177,5.2177,5.2177,5.2177,5.2177,5.2177,5.2177,0.0,0.0,0.0,0.0,0.0,0.0,0.0,4.63,4.6885,4.8545,4.86,4.9132,5.0794,5.0819,5.0702,5.0702,5.0702,5.0702,5.0702,5.0702,5.0702,5.0702,5.0702,5.0702,5.0702,5.0702,5.0702,5.0702,5.0702,5.0702,5.0702,5.0623,5.0603,5.0603,5.0521,5.05,5.05,5.0582,5.0562,5.0502,5.0699,5.0803,5.08,0.0,0.0,0.0,0.0,0.0,0.0,0.0,0.0,0.0,0.0,0.0,0.0,0.0,0.0,0.0,0.0,0.0,0.0,0.0,0.0,0.0,0.0,0.0,0.0,0.0,0.0,0.0,0.0,0.0,0.0,0.0,0.0,0.0,5.0262,5.0867,5.1394,5.1394,5.1394,5.1414,5.1433,5.1433,5.1453,5.1472,5.2253,5.2741,5.2741,5.3541,5.401,5.401,5.4029,5.4049,5.4029,5.4054,5.4043,5.3976,5.3971,5.4417,5.5236,5.5236,5.5236,5.5236,5.5236,5.4768,5.3989,5.3989,5.3989,5.3989,5.3931,5.3911,5.3911,5.3911,5.3911,5.3911,0.0,0.0,0.0,0.0,0.0,0.0,0.0,4.63,4.669,4.7783,4.8269,4.8907,5.0006,5.0471,5.0702,5.0702,5.0702,5.0702,5.0702,5.0702,5.0702,5.0702,5.0702,5.0702,5.0702,5.0702,5.0702,5.0702,5.0643,5.0623,5.0623,5.0562,5.0521,5.0521,5.05,5.0478,5.0435,5.0457,5.0412,5.0371,5.0565,5.072,5.0803,0.0,0.0,0.0,0.0,0.0,0.0,0.0,0.0,0.0,0.0,0.0,0.0,0.0,0.0,0.0,0.0,0.0,0.0,0.0,0.0,0.0,0.0,0.0,0.0,0.0,0.0,0.0,0.0,0.0,0.0,0.0,5.1394,5.1316,5.1082,5.1258,5.1394,5.1394,5.1394,5.1648,5.2273,5.2331,5.2605,5.3249,5.3502,5.3639,5.3639,5.3873,5.401,5.401,5.4615,5.4919,5.4876,5.5508,5.579,5.5782,5.5796,5.5915,5.6132,5.6132,5.6132,5.6132,5.6132,5.6015,5.5782,5.5782,5.5782,5.5665,5.4398,5.3911,5.3911,5.3911,5.3911,5.3911,0.0,0.0,0.0,0.0,0.0,0.0,0.0,4.63,4.6612,4.749,4.8132,4.8829,4.9695,5.0356,5.0702,5.0702,5.0702,5.0702,5.0702,5.0702,5.0702,5.0702,5.0702,5.0702,5.0702,5.0663,5.0643,5.0643,5.0603,5.0562,5.0562,5.05,5.0457,5.0457,5.0435,5.0393,5.0348,5.039,5.039,5.0348,5.0478,5.0565,5.0644,5.0663,5.0816,5.1011,5.1083,5.1187,5.1297,5.1367,0.0,0.0,0.0,0.0,0.0,0.0,0.0,0.0,0.0,0.0,0.0,0.0,0.0,0.0,0.0,0.0,0.0,0.0,0.0,0.0,0.0,0.0,0.0,0.0,5.1941,5.2078,5.2448,5.2175,5.1941,5.1941,5.2273,5.2683,5.319,5.3249,5.3444,5.3951,5.4342,5.4537,5.4537,5.4888,5.5083,5.5083,5.5571,5.5833,5.579,5.6269,5.6497,5.6493,5.6491,5.6488,5.6503,5.6503,5.6503,5.6503,5.6503,5.6503,5.6503,5.6503,5.6503,5.6405,0.0,0.0,0.0,0.0,5.4983,5.4983,0.0,0.0,0.0,0.0,0.0,0.0,0.0,4.63,4.6573,4.7354,4.7977,4.8693,4.9559,5.0201,5.0587,5.0683,5.0702,5.0702,5.0702,5.0702,5.0702,5.0702,5.0702,5.0702,5.0702,5.0623,5.0603,5.0582,5.0521,5.05,5.05,5.0435,5.039,5.039,5.0325,5.0302,5.0302,5.0348,5.039,5.039,5.039,5.039,5.0412,5.0478,5.0681,5.0945,5.0985,5.1152,5.1357,5.139,0.0,0.0,0.0,0.0,0.0,0.0,0.0,0.0,0.0,0.0,0.0,0.0,0.0,0.0,0.0,0.0,0.0,0.0,0.0,0.0,0.0,0.0,0.0,0.0,5.2858,5.3112,5.3893,5.3424,5.2956,5.2858,5.3522,5.4049,5.4147,5.4147,5.4186,5.4283,5.5005,5.5454,5.5454,5.6177,0.0,0.0,0.0,5.6606,5.6606,5.6536,5.6504,5.6495,5.6504,5.6498,5.6503,5.6503,5.6503,5.6503,5.6503,5.6503,5.6503,5.6503,5.6503,5.6503,5.6503,5.6503,5.6503,5.6503,5.6503,5.6503,0.0,0.0,0.0,0.0,0.0,0.0,0.0,4.63,4.6358,4.6534,4.7081,4.7792,4.8654,4.9296,4.9933,5.0625,5.0702,5.0702,5.0702,5.0702,5.0702,5.0702,5.0702,5.0663,5.0623,5.0603,5.0582,5.0521,5.0457,5.0435,5.0412,5.0348,5.0325,5.0325,5.0302,5.0302,5.0302,5.0302,5.0325,5.0325,5.0325,5.0348,5.0412,5.0478,5.0523,5.0567,5.0879,5.1039,5.1113,5.1322,5.1394,5.1394,5.1394,5.1394,0.0,0.0,0.0,0.0,0.0,0.0,0.0,0.0,0.0,0.0,0.0,0.0,0.0,0.0,0.0,0.0,0.0,0.0,0.0,5.3717,5.3756,5.3815,5.3971,5.4459,5.4537,5.3834,5.3893,5.4283,5.4986,5.5044,5.5337,5.604,5.6255,5.6352,5.6352,5.6508,5.6606,5.6606,5.6606,5.6606,5.6606,5.6523,5.6497,5.6495,5.6491,0.0,5.6503,5.6503,5.6503,5.6503,5.6503,5.6503,5.6503,5.6503,5.6503,5.6503,5.6503,5.6503,5.6503,5.6503,5.6503,5.6503,0.0,0.0,0.0,0.0,0.0,0.0,0.0,4.63,4.63,4.63,4.6885,4.7641,4.8516,4.9146,4.9847,5.0715,5.074,5.0702,5.0702,5.0702,5.0702,5.0702,5.0663,5.0623,5.0603,5.0521,5.0478,5.0457,5.0371,5.0348,5.0348,5.0302,5.0302,5.0302,5.0302,5.0302,5.0302,5.0302,5.0302,5.0302,5.0302,5.0325,5.0348,5.0371,5.0486,5.0677,5.0893,5.1053,5.1222,5.1357,5.1394,5.1394,5.1394,5.1394,5.1394,0.0,0.0,0.0,0.0,0.0,0.0,0.0,0.0,0.0,0.0,0.0,0.0,0.0,0.0,5.3346,5.3346,0.0,5.4147,5.4576,5.4654,5.4791,5.524,5.5689,5.563,5.4752,5.5044,5.5474,5.5903,5.5942,5.6138,5.6567,5.6606,5.6606,5.6606,5.6606,5.6606,5.6606,5.6606,5.6606,5.6606,5.6523,5.6495,5.6495,5.6504,5.6503,5.6503,5.6503,5.6503,5.6503,5.6503,5.6503,5.6503,5.6503,5.6503,5.6503,5.6503,5.6503,5.6503,5.6503,5.6503,5.6503,0.0,0.0,0.0,0.0,0.0,0.0,0.0,4.63,4.63,4.63,4.678,4.7474,4.8351,4.8856,4.9528,5.0558,5.068,5.0702,5.0702,5.0702,5.0702,5.0702,5.0643,5.0603,5.0582,5.0478,5.0412,5.039,5.0325,5.0302,5.0302,5.0302,5.0302,5.0302,5.0302,5.0302,5.0302,5.0302,5.0302,5.0302,5.0302,5.0302,5.0302,5.0302,5.0509,5.0816,5.0907,5.1113,5.1352,5.139,5.1394,5.1394,5.1394,5.1394,5.1433,5.1609,5.1648,0.0,0.0,0.0,0.0,0.0,0.0,0.0,0.0,0.0,5.401,5.401,5.4127,5.4244,5.4244,5.4381,5.4732,5.5435,5.5552,5.5806,5.6508,5.6606,5.6333,5.563,5.6177,5.6606,5.6606,5.6606,5.6606,5.6606,5.6606,5.6606,5.6606,5.6606,5.6606,5.6606,5.6606,5.6606,5.6606,5.6523,5.6495,5.6495,5.6504,5.6503,5.6503,5.6503,5.6503,5.6503,5.6503,5.6503,5.6503,5.6503,5.6503,5.6503,5.6503,5.6503,5.6503,5.6503,5.6503,5.6503,0.0,0.0,0.0,0.0,0.0,0.0,0.0,0.0,4.63,4.63,4.6279,4.6585,4.7455,4.7495,4.8089,4.961,5.0333,5.0702,5.0702,5.0702,5.0702,5.0702,5.0683,5.0643,5.0521,5.05,5.0416,5.0302,5.0302,5.0302,5.0302,5.0302,5.0302,5.0302,5.0302,5.0302,5.0302,5.0302,5.0302,5.0302,5.0302,5.0302,5.0302,5.0302,5.0399,5.0568,5.0884,5.1058,5.1171,5.1347,5.1394,5.1394,5.1394,5.1394,5.155,5.2331,5.2546,5.2722,5.3502,5.3717,5.3737,5.3834,5.3854,5.3873,0.0,0.0,5.401,5.401,5.4615,5.5142,5.5142,5.5786,5.6333,5.645,5.645,5.6489,5.6586,5.6606,5.6567,5.6469,5.6547,5.6606,5.6606,5.6606,5.6606,5.6606,5.6606,5.6606,5.6606,5.6606,5.6606,5.6606,5.6606,5.6606,5.6606,5.6523,5.6495,5.6495,5.6504,5.6503,5.6503,5.6503,5.6503,5.6503,5.6503,5.6503,5.6503,5.6503,5.6503,5.6503,5.6503,5.6503,5.6503,5.6503,5.6503,5.6503,0.0,0.0,0.0,0.0,0.0,0.0,0.0,0.0,0.0,4.63,4.6245,4.6543,4.7421,4.7844,4.8494,4.9513,4.9879,5.0236,5.0683,5.0702,5.0702,5.0702,5.0663,5.0603,5.05,5.0457,5.0412,5.0302,5.0302,5.0302,5.0302,5.0302,5.0302,5.0302,5.0302,5.0302,5.0302,5.0302,5.0302,5.0302,5.0302,5.0302,5.0302,5.0396,5.0507,5.072,5.1386,5.1777,0.0,5.2662,5.2884,5.2917,5.2917,5.2917,5.2975,5.3346,5.3463,5.3541,5.3893,5.401,5.4127,5.4635,5.4752,5.4888,5.5396,5.5513,5.5513,5.5513,5.5806,5.6059,5.6059,5.6352,5.6606,5.6606,5.6606,5.6606,5.6606,5.6606,5.6606,5.6606,5.6606,5.6606,5.6606,5.6606,5.6606,5.6606,5.6606,5.6606,5.6606,5.6606,5.6606,5.6606,5.6606,5.6575,5.6532,5.6503,5.651,5.6493,5.651,5.6503,5.6503,5.6503,5.6503,5.6503,5.6503,5.6503,5.6503,5.6503,5.6503,5.6503,5.6503,5.6503,5.6503,5.6503,5.6503,5.6503,0.0,0.0,0.0,0.0,0.0,0.0,0.0,0.0,0.0,0.0,4.63,4.6534,4.7178,4.7911,4.8515,4.8962,4.9369,4.9837,5.0373,5.0587,5.0702,5.0702,5.0643,5.0603,5.0521,5.0457,5.0393,5.0325,5.0302,5.0302,5.0302,5.0302,5.0302,5.0302,5.0302,5.0302,5.0302,5.0302,5.0302,5.0302,5.0302,5.0302,5.0306,5.0464,5.0741,5.1157,5.192,5.2355,5.2734,5.3624,5.3952,5.401,5.401,5.401,5.4049,5.4283,5.4537,5.4713,5.4713,5.4713,5.4869,5.5493,5.5669,5.5825,5.6469,5.6606,5.6606,5.6606,5.6606,5.6606,5.6606,5.6606,5.6606,5.6606,5.6606,5.6606,5.6606,5.6606,5.6606,5.6606,5.6606,5.6684,5.6918,5.6723,5.6606,5.6606,5.6606,5.6606,5.6606,5.6606,5.6606,5.6606,5.6606,5.6563,5.6502,5.6502,5.6504,5.6509,5.6496,5.6503,5.6503,5.6503,5.6503,5.6503,5.6503,5.6503,5.6503,5.6503,5.6503,5.6503,5.6503,5.6503,5.6503,5.6503,5.6503,5.6503,0.0,0.0,0.0,0.0,0.0,0.0,0.0,0.0,0.0,0.0,0.0,0.0,0.0,4.6995,4.7455,4.7467,4.8774,4.9614,4.9618,5.0296,5.0702,5.0702,5.0702,5.0682,5.0603,5.0521,5.0478,5.0412,5.0325,5.0302,5.0302,5.0302,5.0302,5.0302,5.0302,5.0302,5.0302,5.0302,5.0302,5.0302,5.0302,5.0302,5.0306,5.0464,5.1106,5.2003,5.2292,5.2485,5.2738,5.3679,5.401,5.401,5.401,5.401,5.4166,5.5005,5.5864,5.6528,5.6528,5.6528,5.6528,5.6547,5.6567,5.6567,5.6586,5.6606,5.6606,5.6606,5.6606,5.6606,5.6606,5.6606,5.6606,5.6606,5.6606,5.6606,5.6606,5.6606,5.6606,5.6606,5.6606,5.6918,5.7699,5.7055,5.6606,5.6606,5.6606,5.6606,5.6606,5.6606,5.6606,5.6606,5.6606,5.6563,5.6502,5.6502,5.6504,5.6509,5.6496,5.6503,5.6503,5.6503,5.6503,5.6503,5.6503,5.6503,5.6503,5.6503,5.6503,5.6503,5.6503,5.6503,5.6503,5.6503,5.6503,5.6503,0.0,0.0,0.0,0.0,0.0,0.0,0.0,0.0,0.0,0.0,0.0,0.0,0.0,0.0,0.0,0.0,4.7844,4.8557,4.9552,4.9837,5.0196,5.0683,5.0702,5.0663,5.0603,5.0521,5.0478,5.0412,5.0325,5.0302,5.0302,5.0302,5.0302,5.0302,5.0302,5.0302,5.0302,5.0302,5.0302,5.0302,5.0399,5.0442,5.0542,5.1365,5.19,5.238,0.0,5.4251,5.4395,5.5334,5.5694,5.5728,5.5728,5.5728,5.5786,5.6079,5.6372,5.6606,5.6606,5.6606,5.6606,5.6606,5.6606,5.6606,5.6606,5.6606,5.6606,5.6606,5.6606,5.6606,5.6606,5.6606,5.6606,5.6606,5.6606,5.6606,5.6606,5.6606,5.6801,5.7328,5.7406,5.7738,5.8577,5.7894,5.7641,5.8226,5.8265,5.8265,5.8265,5.8265,5.8265,5.8265,5.8265,5.8248,5.822,5.8235,5.8191,5.8153,5.7563,5.7009,5.6503,5.6503,5.6503,5.6503,5.6503,5.6503,5.6503,5.6503,5.6503,5.6503,5.6503,5.6503,5.6503,5.6503,5.6503,5.6503,0.0,0.0,0.0,0.0,0.0,0.0,0.0,0.0,0.0,0.0,0.0,0.0,0.0,0.0,0.0,0.0,0.0,4.7795,4.8754,4.9016,4.9489,5.0275,5.0259,5.0356,5.0623,5.0582,5.05,5.0435,5.0371,5.0325,5.0302,5.0302,5.0302,5.0302,5.0302,5.0302,5.0302,5.0302,5.0348,5.0377,5.0488,5.0548,5.07,5.1546,5.2239,0.0,5.4266,5.5106,5.5697,5.6316,5.6553,5.6606,5.6606,5.6606,5.6606,5.6606,5.6606,5.6606,5.6606,5.6606,5.6606,5.6606,5.6606,5.6606,5.6606,5.6606,5.6606,5.6606,5.6606,5.6606,5.6606,5.6606,5.6684,5.6977,5.7035,5.7133,5.7445,5.7484,5.7699,5.8207,5.8265,5.8616,5.9475,5.9065,5.8831,5.9085,5.9104,5.9104,5.9104,5.9104,5.9104,5.9104,5.9104,5.909,5.9092,5.9092,5.9065,5.8996,5.812,5.7418,5.6912,5.6619,5.6503,5.6503,5.6503,5.6503,5.6503,5.6503,5.6503,5.6503,5.6503,5.6503,5.6503,5.6503,5.6503,5.6503,0.0,0.0,0.0,0.0,0.0,0.0,0.0,0.0,0.0,0.0,0.0,0.0,0.0,0.0,0.0,0.0,0.0,0.0,4.7396,4.7951,4.8662,4.9571,4.9502,4.9836,5.0683,5.0643,5.0563,5.05,5.0435,5.0371,5.0325,5.0325,5.0325,5.0325,5.0306,5.0348,5.0329,5.0329,5.0399,5.0508,5.0605,5.0692,5.084,5.1086,5.2152,5.3593,5.3864,5.5022,5.6452,5.6558,5.6606,5.6606,5.6606,5.6606,5.6606,5.6606,5.6606,5.6606,5.6606,5.6606,5.6606,5.6606,5.6606,5.6606,5.6606,5.6606,5.6606,5.6606,5.6606,5.6606,5.6606,5.6606,5.686,5.766,5.7797,5.8109,5.8987,5.9104,5.9124,0.0,0.0,0.0,0.0,0.0,6.0119,5.93,5.9222,5.9222,5.9222,5.9222,5.9222,5.9222,5.9222,5.9227,5.9229,5.9227,5.9178,5.9055,5.8237,5.7788,5.7672,5.6912,5.6541,5.6503,5.6503,5.6503,5.6503,5.6503,5.6503,5.6503,5.6503,5.6503,5.6503,5.6503,5.6503,5.6503,0.0,0.0,0.0,0.0,0.0,0.0,0.0,0.0,0.0,0.0,0.0,0.0,0.0,0.0,0.0,0.0,0.0,0.0,4.7365,4.7531,4.8262,4.9698,4.9718,5.0056,5.0839,5.0735,5.0644,5.0563,5.0457,5.0438,5.0526,5.0526,5.0547,5.0587,5.0641,5.0677,5.0677,5.0726,5.0742,5.0745,5.0912,5.0966,5.1043,5.1899,5.2473,5.3045,5.444,5.5231,5.5699,5.6387,5.6606,5.6606,5.6606,5.6606,5.6606,5.6606,5.6606,5.6606,5.6606,5.6606,5.6606,5.6606,5.6606,5.6606,5.6606,5.6606,5.6606,5.6606,5.6606,5.6606,5.6606,5.6606,5.686,5.766,5.7797,5.8109,5.8987,5.9104,0.0,5.9983,0.0,6.0412,6.1291,6.1369,6.1291,6.1056,6.1037,6.1037,6.1037,6.1037,6.1037,6.1037,6.1037,6.1006,6.0967,6.0957,6.0629,5.9971,5.9737,5.8957,5.7691,5.7496,5.7068,5.6503,5.6503,5.6503,5.6503,5.6503,5.6503,5.6503,5.6503,5.6503,5.6503,5.6503,5.6503,5.6503,0.0,0.0,0.0,0.0,0.0,0.0,0.0,0.0,0.0,0.0,0.0,0.0,0.0,0.0,0.0,0.0,0.0,0.0,0.0,4.6852,4.74,4.8682,4.9068,4.9594,5.0408,5.0695,5.0809,5.0789,5.0698,5.0661,5.0678,5.0731,5.0728,5.0745,5.0774,5.082,5.085,5.0865,5.0893,0.0,0.0,5.1133,5.1249,5.1837,5.2313,5.2782,5.3791,5.4654,5.5435,5.6313,5.6606,5.6606,5.6606,5.6606,5.6606,5.6606,5.6606,5.6606,5.6606,5.6606,5.6606,5.6606,5.6606,5.6606,5.6606,5.6606,5.6606,5.6606,5.6606,5.6606,5.6606,5.6606,5.6996,5.8187,5.8363,5.8812,6.0061,6.0237,6.0412,0.0,6.0978,0.0,6.1642,6.1701,6.1701,6.1701,6.1701,6.1701,6.1701,6.1701,6.1701,6.1701,6.1694,6.1678,6.1596,6.16,6.1354,6.0867,6.0477,5.9581,5.8256,5.7866,5.7262,5.6503,5.6503,5.6503,5.6503,5.6503,5.6503,5.6503,5.6503,5.6503,5.6503,5.6503,5.6503,5.6503,0.0,0.0,0.0,0.0,0.0,0.0,0.0,0.0,0.0,0.0,4.63,0.0,0.0,0.0,0.0,0.0,0.0,0.0,0.0,0.0,4.6521,4.7391,4.8048,4.8768,4.964,5.0437,5.0853,5.0855,5.094,5.094,5.085,5.0907,5.0907,5.0884,5.0884,5.0907,5.0959,5.0887,5.0972,5.1142,5.1139,5.1238,5.14,0.0,5.1863,5.2565,5.278,5.3912,5.5435,5.6313,5.6606,5.6606,5.6606,5.6606,5.6606,5.6606,5.6606,5.6606,5.6606,5.6606,5.6606,5.6606,5.6606,5.6606,5.6606,5.6606,5.6606,5.6606,5.6606,5.6606,5.6606,5.6684,5.727,5.8851,5.9202,5.9846,6.1466,6.1701,6.1701,6.1701,6.1701,6.1701,6.1701,6.1701,6.1701,6.1701,6.1701,6.1701,6.1701,6.1701,6.1701,6.1701,6.1692,6.1656,6.1593,6.1612,6.1607,6.1588,6.0828,5.9951,5.8977,5.8217,5.736,5.6503,5.6503,5.6503,5.6503,5.6503,5.6503,5.6503,5.6503,5.6503,5.6503,5.6503,5.6503,5.6503,0.0,0.0,0.0,0.0,0.0,0.0,0.0,0.0,0.0,0.0,4.63,4.63,0.0,0.0,0.0,0.0,0.0,0.0,0.0,0.0,0.0,4.7537,4.7684,4.8106,4.888,4.9672,5.0062,5.0006,5.0661,5.1035,5.1131,5.1141,5.1162,5.1219,5.1273,5.1296,5.1303,5.1304,5.1323,5.1356,5.1347,5.1372,5.14,5.1406,0.0,0.0,5.3268,5.442,0.0,0.0,5.6606,5.6606,5.6606,5.6606,5.6606,5.6606,5.6606,5.6606,5.6606,5.6606,5.6606,5.6606,5.6606,5.6606,5.6606,5.6606,5.6606,5.6606,5.6606,5.6606,5.6606,5.7133,5.7914,5.8948,5.971,6.0529,6.1564,6.1701,6.1701,0.0,6.1701,6.1701,6.1701,6.1701,6.1701,6.1701,6.1701,6.1701,6.1701,6.1701,6.1701,6.1701,6.1659,6.1614,6.1606,6.1607,6.1607,6.1607,6.1451,6.0536,5.8996,5.8841,5.7944,5.6503,5.6503,5.6503,5.6503,5.6503,5.6503,5.6503,5.6503,5.6503,5.6503,5.6503,5.6503,5.6503,0.0,0.0,0.0,0.0,0.0,0.0,0.0,4.63,4.63,4.63,4.63,4.63,4.63,4.63,4.63,0.0,0.0,0.0,0.0,0.0,0.0,0.0,4.7354,4.7771,4.8117,4.8931,4.9536,4.9956,0.0,5.0805,5.13,5.1303,5.131,5.1349,5.1388,5.14,5.1396,5.1396,5.1396,5.1396,5.141,5.1406,5.1396,0.0,0.0,0.0,0.0,0.0,0.0,0.0,5.6216,5.6606,5.6606,5.6606,5.6606,5.6606,5.6606,5.6606,5.6606,5.6606,5.6606,5.6606,5.6606,5.6606,5.6606,5.6606,5.6606,5.6606,5.6606,5.6606,5.6606,5.725,5.8089,5.8968,5.9827,6.0705,6.1583,6.1701,6.1701,6.1701,6.1701,6.1701,6.1701,6.1701,6.1701,6.1701,6.1701,6.1701,6.1701,6.1701,6.1678,6.1658,6.1619,6.16,6.1601,6.1603,6.1607,6.1607,6.1607,6.0692,5.8996,5.8996,5.8081,5.6503,5.6503,5.6503,5.6503,5.6503,5.6503,5.6503,5.6503,5.6503,5.6503,5.6503,5.6503,5.6503,0.0,0.0,0.0,0.0,0.0,0.0,0.0,4.63,4.63,4.63,4.63,4.63,4.63,4.63,4.63,0.0,0.0,0.0,0.0,0.0,0.0,0.0,0.0,0.0,4.7315,0.0,0.0,4.956,4.9735,0.0,0.0,0.0,0.0,0.0,5.1327,5.1396,5.1394,5.1391,5.1396,0.0,0.0,5.1394,5.1394,0.0,0.0,0.0,0.0,0.0,5.4127,0.0,5.5884,5.6606,5.6606,5.6606,5.6606,5.6606,5.6606,5.6606,5.6606,5.6606,5.6606,5.6606,5.6606,5.6606,5.6606,5.6606,5.6606,5.6606,5.6606,5.6606,5.6606,5.7406,5.8304,5.8987,5.9983,6.092,6.1603,6.1701,6.1701,6.1701,6.1701,6.1701,6.1701,6.1701,6.1701,6.1701,6.1701,6.1701,6.1701,6.1701,6.1684,6.1617,6.1614,6.1607,6.1595,6.1597,6.1607,6.1607,6.1607,6.0692,5.8996,5.8996,5.8081,5.6503,5.6503,5.6503,5.6503,5.6503,5.6503,5.6503,5.6503,5.6503,5.6503,5.6503,5.6503,5.6503,0.0,0.0,0.0,0.0,0.0,0.0,0.0,4.63,4.63,4.63,4.63,4.63,4.63,4.63,4.63,0.0,0.0,0.0,0.0,0.0,0.0,0.0,0.0,0.0,0.0,0.0,0.0,4.7822,4.8564,0.0,0.0,0.0,0.0,0.0,0.0,5.139,5.1394,5.139,0.0,0.0,0.0,0.0,0.0,0.0,0.0,0.0,0.0,5.3268,5.4127,5.5005,5.5884,5.6606,5.6606,5.6606,5.6606,5.6606,5.6606,5.6606,5.6606,5.6606,5.6606,5.6606,5.6606,5.6606,5.6606,5.6606,5.6606,5.6606,5.6606,5.6606,5.6606,5.7894,5.9007,5.9085,6.051,6.1603,6.1701,6.1701,6.1701,6.1701,6.1701,6.1701,6.1701,6.1701,6.1701,6.1701,6.1701,6.1701,6.1701,6.1701,6.1697,6.1698,6.1638,6.16,6.1595,6.1603,6.1607,6.1607,6.1607,6.0692,5.8996,5.8996,5.8081,5.6503,5.6503,5.6503,5.6503,5.6503,5.6503,5.6503,5.6503,5.6503,5.6503,5.6503,5.6503,5.6503,0.0,0.0,0.0,0.0,0.0,0.0,4.63,4.63,4.63,4.63,4.63,4.63,4.63,4.63,4.63,4.63,0.0,0.0,0.0,0.0,0.0,0.0,0.0,0.0,0.0,0.0,4.7061,4.7608,4.792,0.0,0.0,0.0,0.0,0.0,0.0,5.0126,5.0614,5.0614,0.0,0.0,0.0,0.0,0.0,0.0,0.0,0.0,0.0,0.0,5.3346,5.4225,5.5103,5.5903,5.643,5.6606,5.6606,5.6606,5.6606,5.6606,5.6606,5.6606,5.6606,5.6606,5.6606,5.6606,5.6606,5.6606,5.6606,5.6606,5.6606,5.6606,5.6606,5.7972,5.9104,5.9104,6.0568,6.1701,6.1701,6.1701,6.1701,6.1701,6.1701,6.1701,6.1701,6.1701,6.1701,6.1701,6.1701,6.1701,6.1701,6.1701,6.1684,6.1639,6.1614,6.1592,6.1592,6.1606,6.1607,6.1588,6.1062,6.0185,5.8977,5.8451,5.7594,5.6503,5.6503,5.6503,5.6503,5.6503,5.6503,5.6503,5.6503,5.6503,5.6503,5.6503,5.6503,5.6503,0.0,0.0,0.0,0.0,0.0,4.63,4.63,4.63,4.63,4.63,4.63,4.63,4.63,4.63,4.63,4.63,4.63,0.0,0.0,0.0,0.0,0.0,0.0,0.0,0.0,0.0,4.6593,4.7217,4.7217,4.751,0.0,0.0,4.8447,4.8466,0.0,0.0,0.0,0.0,0.0,0.0,0.0,0.0,0.0,0.0,0.0,0.0,0.0,0.0,0.0,0.0,0.0,5.5454,0.0,0.0,0.0,5.6606,5.6606,5.6606,5.6606,5.6606,5.6606,5.6606,5.6606,5.6606,5.6606,5.6606,5.6606,5.6606,5.6606,5.6606,5.6606,5.7972,5.9104,5.9104,6.0568,6.1701,6.1701,6.1709,6.169,6.1701,6.1709,6.169,6.1701,6.1701,6.1701,6.1701,6.1701,6.1701,6.1701,6.1701,6.1668,6.1592,6.1592,6.1603,6.1607,6.1607,6.1471,6.1218,6.0594,5.9717,5.8587,5.7983,5.7262,5.6503,5.6503,5.6503,5.6503,5.6503,5.65,5.6496,5.6496,5.6503,5.6498,5.6503,5.6503,5.6498,0.0,0.0,0.0,0.0,0.0,0.0,4.63,4.63,4.63,4.63,4.63,4.63,4.63,4.63,4.63,4.63,4.63,0.0,0.0,0.0,0.0,0.0,0.0,0.0,0.0,0.0,4.63,4.63,4.63,4.6319,4.6339,4.7217,4.7608,4.7647,0.0,0.0,0.0,0.0,0.0,0.0,0.0,0.0,0.0,0.0,0.0,0.0,0.0,0.0,0.0,0.0,0.0,0.0,0.0,0.0,0.0,0.0,5.6606,5.6606,5.6606,5.6606,5.6606,5.6606,5.6606,5.6606,5.6606,5.6606,5.6606,5.6606,5.6606,5.6606,5.6606,5.7972,5.9104,5.9104,6.0568,6.1701,6.1701,6.1707,6.1692,6.1705,6.1707,6.1692,6.1701,6.1701,6.1701,6.1701,6.1701,6.1701,6.1701,6.1701,6.1668,6.1592,6.1592,6.1603,6.1607,6.1607,6.1179,6.0302,6.0302,5.9386,5.7711,5.7691,5.7262,5.6503,5.6503,5.6503,5.6503,5.6503,5.6503,5.6509,5.6509,5.6493,5.6493,5.6504,5.6493,5.6507,0.0,0.0,0.0,0.0,0.0,0.0,0.0,4.63,4.63,4.63,4.63,4.63,4.63,4.63,4.63,4.63,4.63,0.0,0.0,0.0,0.0,0.0,0.0,0.0,0.0,0.0,4.63,4.63,4.63,4.63,4.63,4.6573,4.671,4.6729,4.6983,4.7412,0.0,0.0,0.0,0.0,0.0,0.0,5.1394,0.0,0.0,0.0,0.0,0.0,0.0,0.0,0.0,0.0,0.0,0.0,0.0,5.6606,5.6606,5.6606,5.6606,5.6606,5.6606,5.6606,5.6606,5.6606,5.6606,5.6606,5.6606,5.6606,5.6606,5.6606,5.6606,5.7484,5.8402,5.9007,6.0061,6.1017,6.1622,6.1709,6.1694,6.1701,6.1709,6.1694,6.1701,6.1701,6.1701,6.1701,6.1701,6.1701,6.1701,6.1701,6.1668,6.1592,6.1592,6.1603,6.1607,6.1607,6.1159,6.0282,5.9698,5.8802,5.7672,5.7126,5.6736,5.6503,5.6503,5.6488,5.6504,5.6504,5.6494,5.6504,5.6504,5.6497,5.6508,5.6501,5.6497,5.6508,0.0,0.0,0.0,0.0,0.0,0.0,0.0,4.63,4.63,4.63,4.63,4.63,4.63,4.63,4.63,4.63,4.63,0.0,0.0,0.0,0.0,0.0,0.0,0.0,4.63,4.63,4.63,4.63,4.63,4.63,4.63,4.63,4.63,4.63,4.63,4.6593,0.0,0.0,0.0,0.0,0.0,0.0,5.1394,0.0,0.0,0.0,0.0,0.0,0.0,0.0,0.0,0.0,0.0,0.0,0.0,0.0,5.6606,5.6606,5.6606,5.6606,5.6606,5.6606,5.6606,5.6606,5.6606,5.6606,5.6606,5.6606,5.6606,5.6606,5.6606,5.725,5.7972,5.8519,5.9612,6.0588,6.1134,6.1495,6.1697,6.1697,6.1709,6.1701,6.1701,6.1701,6.1701,6.1701,6.1701,6.1701,6.1701,6.1701,6.1684,6.1639,6.1614,6.1592,6.1612,6.1275,6.0672,5.9795,5.8918,5.8061,5.7223,5.6717,5.6503,5.6511,5.6488,5.6498,0.0,5.6504,5.6507,5.6502,5.6502,5.652,5.6538,5.6502,5.652,5.6536,0.0,0.0,0.0,0.0,0.0,0.0,0.0,4.63,4.63,4.63,4.63,4.63,4.63,4.63,4.63,4.63,4.63,0.0,0.0,0.0,0.0,0.0,0.0,0.0,4.63,4.63,4.63,4.63,4.63,4.63,4.63,4.63,4.63,4.63,4.63,4.63,0.0,0.0,0.0,0.0,0.0,0.0,0.0,0.0,0.0,0.0,0.0,0.0,0.0,0.0,0.0,0.0,0.0,0.0,0.0,0.0,0.0,0.0,0.0,5.6606,5.6606,5.6606,5.6606,5.6606,5.6606,5.6606,0.0,5.6606,5.6606,5.6606,5.6606,5.7211,5.7738,5.7797,5.9163,6.0237,6.0295,6.1062,6.1637,6.1695,6.1697,6.1701,6.1701,6.1701,6.1701,6.1701,6.1701,6.1701,6.1701,6.1701,6.1694,6.1695,6.1581,6.1506,6.1509,6.0722,5.9832,5.8897,5.8098,5.7279,5.6492,5.65,5.65,5.65,5.6491,5.6494,5.6499,5.651,5.6503,5.65,5.65,5.6532,5.6595,5.6536,5.6532,5.6579,0.0,0.0,0.0,0.0,0.0,0.0,0.0,0.0,0.0,0.0,4.63,4.63,4.63,4.63,4.63,0.0,0.0,0.0,0.0,0.0,0.0,0.0,0.0,0.0,4.63,4.63,4.63,4.63,4.63,4.63,4.63,4.63,4.63,4.63,4.63,4.63,0.0,0.0,0.0,0.0,0.0,0.0,0.0,0.0,0.0,0.0,5.1394,5.1394,0.0,0.0,0.0,0.0,0.0,0.0,0.0,0.0,5.6606,5.6606,5.6606,0.0,5.6606,5.6606,5.6606,5.6606,0.0,5.6606,5.6606,5.6606,0.0,5.6606,5.6606,5.6743,5.7074,5.7699,5.8148,5.8636,5.9319,6.0167,6.0952,6.1616,6.1705,6.1701,6.1701,6.1701,6.1701,6.1701,6.1701,6.1701,6.1701,6.1701,6.1705,6.1694,6.1031,6.0682,6.0686,6.0483,5.9601,5.8078,5.7863,5.7324,5.6491,5.6508,5.6504,5.6497,5.6497,5.6497,5.6503,5.6504,5.6538,5.6579,5.6579,5.6546,5.6536,5.6563,5.6546,5.6536,0.0,0.0,0.0,0.0,0.0,0.0,0.0,0.0,0.0,0.0,4.63,4.63,4.63,4.63,0.0,0.0,0.0,0.0,0.0,0.0,0.0,0.0,0.0,4.63,4.63,4.63,4.63,4.63,4.63,4.63,4.63,4.63,4.63,4.63,4.63,4.63,0.0,0.0,0.0,0.0,5.0692,0.0,0.0,0.0,0.0,0.0,5.1394,5.1394,0.0,5.3405,5.401,5.4303,0.0,0.0,0.0,0.0,5.6606,5.6606,5.6606,5.6606,5.6606,5.6606,5.6606,5.6606,5.6606,0.0,0.0,0.0,0.0,5.6606,5.6606,5.6606,5.6743,5.7172,5.7562,5.8109,5.8987,5.9846,6.0588,6.1056,6.1466,6.1701,6.1701,6.1701,6.1701,6.1701,6.1701,6.1701,6.1701,6.133,6.1095,6.1095,6.0253,5.9996,6.0409,5.9602,5.8739,5.7801,5.7391,5.6956,5.6493,5.651,5.6507,5.6497,5.6499,5.6504,5.6502,5.6534,5.6563,5.6606,5.6606,5.6575,5.6549,5.6591,5.6579,5.6549,0.0,0.0,0.0,0.0,0.0,0.0,0.0,0.0,0.0,0.0,0.0,0.0,0.0,0.0,0.0,0.0,0.0,0.0,0.0,0.0,0.0,0.0,4.63,4.63,4.63,4.63,4.63,4.63,4.63,4.63,4.63,4.63,4.63,4.63,4.63,4.6378,0.0,0.0,0.0,0.0,5.075,0.0,0.0,0.0,0.0,0.0,0.0,0.0,0.0,5.3405,5.401,5.4303,5.6059,0.0,0.0,0.0,0.0,0.0,5.6606,5.6606,5.6606,5.6606,5.6606,5.6606,5.6606,0.0,0.0,0.0,0.0,0.0,0.0,5.6606,0.0,5.6606,5.7172,5.7914,5.8773,5.9651,6.0198,6.0198,6.0978,6.1447,6.133,6.131,6.131,6.131,6.131,6.131,6.131,6.0607,6.0198,6.0198,5.9358,5.9253,5.9995,5.8535,5.7731,5.7614,5.6871,5.65,5.6499,5.65,5.65,5.6499,5.6503,5.6518,5.6518,5.6579,5.6606,5.6606,5.6606,5.6606,5.6606,5.6606,5.6606,5.6606,0.0,0.0,0.0,0.0,0.0,0.0,0.0,0.0,0.0,0.0,0.0,0.0,0.0,0.0,0.0,0.0,0.0,0.0,0.0,0.0,0.0,4.63,4.63,4.63,4.63,4.63,4.63,4.63,4.63,4.63,4.63,4.63,4.63,4.63,4.63,4.671,4.7451,0.0,0.0,0.0,5.1004,0.0,0.0,0.0,0.0,0.0,0.0,0.0,0.0,5.3405,5.401,5.4303,5.6059,0.0,0.0,0.0,0.0,0.0,5.6606,5.6606,5.6606,5.6606,5.6606,5.6606,5.6606,5.6606,0.0,0.0,0.0,0.0,0.0,5.6606,5.6606,5.6606,5.6704,5.7074,5.7875,5.8753,5.93,5.93,6.0061,6.0315,5.9573,5.9495,5.9495,5.9495,5.9495,5.9495,5.9495,5.9378,5.93,5.93,5.8441,5.8055,5.8195,5.7926,5.7461,5.6777,5.666,5.6551,5.6503,5.6551,5.6551,5.6503,5.6566,5.6575,5.6595,5.6606,5.6606,5.6606,5.6606,5.6606,5.6606,5.6606,5.6606,5.6606,0.0,0.0,0.0,0.0,0.0,0.0,0.0,0.0,0.0,0.0,0.0,0.0,0.0,0.0,0.0,0.0,0.0,0.0,0.0,0.0,4.63,4.63,4.63,4.63,4.63,4.63,4.63,4.63,4.63,4.63,4.63,4.63,4.63,4.63,4.63,4.6788,4.7647,4.8466,4.9306,5.0184,0.0,0.0,0.0,0.0,0.0,0.0,0.0,0.0,0.0,0.0,5.401,5.4303,5.6059,0.0,0.0,0.0,0.0,0.0,5.6606,5.6606,5.6606,5.6606,5.6606,5.6606,5.6606,5.6606,0.0,0.0,0.0,0.0,0.0,0.0,5.6606,5.6606,5.6606,5.6723,5.7094,5.7875,5.8402,5.8402,5.9163,5.9534,5.9143,5.9104,5.9104,5.9104,5.9104,5.9104,5.9104,5.8656,5.8402,5.8402,5.7582,5.7153,5.7153,5.7153,5.6977,5.6606,5.6606,5.6575,5.6566,5.6595,5.6575,5.6566,5.6591,5.6606,5.6606,5.6606,5.6606,5.6606,5.6606,5.6606,5.6606,5.6606,5.6606,5.6606,0.0,0.0,0.0,0.0,0.0,0.0,0.0,0.0,0.0,0.0,0.0,0.0,0.0,0.0,0.0,0.0,0.0,0.0,0.0,4.63,4.63,4.63,4.63,4.63,4.63,4.63,4.63,4.63,4.63,4.63,4.63,4.63,4.63,4.63,4.6515,4.7081,4.7939,4.8759,4.9618,5.0457,0.0,0.0,0.0,0.0,0.0,0.0,0.0,0.0,0.0,0.0,0.0,0.0,0.0,0.0,0.0,5.6606,5.6606,5.6606,5.6606,5.6606,5.6606,5.6606,5.6606,5.6606,5.6606,0.0,0.0,0.0,0.0,0.0,0.0,5.6606,5.6606,5.6606,5.6606,5.6606,5.6606,5.7289,5.7738,5.7543,5.8265,5.8714,5.8538,5.8519,5.8519,5.8519,5.8519,5.8519,5.8519,5.7875,5.7523,5.7523,5.6918,5.6606,5.6606,5.6606,5.6606,5.6606,5.6606,5.6606,5.6606,5.6606,5.6606,5.6606,5.6606,5.6606,5.6606,5.6606,5.6606,5.6606,5.6606,5.6606,5.6606,5.6606,5.6606,5.6606,0.0,0.0,0.0,0.0,0.0,0.0,0.0,0.0,0.0,0.0,0.0,0.0,0.0,0.0,0.0,0.0,0.0,0.0,0.0,4.63,4.63,4.63,4.63,4.63,4.63,4.63,4.63,4.63,4.63,4.63,4.63,4.63,4.63,4.6339,4.7159,4.7959,4.8779,4.9638,5.0516,5.1316,5.1375,0.0,0.0,0.0,0.0,0.0,0.0,0.0,0.0,0.0,0.0,0.0,0.0,0.0,5.6606,5.6606,5.6606,5.6606,5.6606,5.6606,5.6606,5.6606,5.6606,0.0,5.6606,5.6606,0.0,5.6606,0.0,0.0,0.0,5.6606,5.6606,5.6606,5.6606,5.6606,5.6606,5.7289,5.7523,5.6782,5.7406,5.7601,5.686,5.6782,5.6782,5.6782,5.6782,5.6782,5.6782,5.6723,5.6684,5.6684,5.6626,5.6606,5.6606,5.6606,5.6606,5.6606,5.6606,5.6606,5.6606,5.6606,5.6606,5.6606,5.6606,5.6606,5.6606,5.6606,5.6606,5.6606,5.6606,5.6606,5.6606,5.6606,5.6606,5.6606,0.0,0.0,0.0,0.0,0.0,0.0,0.0,0.0,0.0,0.0,0.0,0.0,0.0,0.0,0.0,0.0,0.0,0.0,0.0,4.63,4.63,4.63,4.63,4.63,4.63,4.63,4.63,4.63,4.63,4.63,4.63,4.6846,4.712,4.7139,4.7978,4.8818,4.9638,4.9969,5.0594,5.1394,5.1394,5.1394,0.0,0.0,0.0,0.0,0.0,0.0,0.0,0.0,5.4361,5.5025,5.6216,5.6606,5.6606,5.6606,5.6606,5.6606,5.6606,5.6606,5.6606,5.6606,5.6606,0.0,0.0,5.6606,5.6606,5.6606,5.6606,0.0,0.0,5.6606,5.6606,5.6606,5.6606,5.6606,5.6606,5.686,5.6938,5.6645,5.6879,5.6938,5.6626,5.6606,5.6606,5.6606,5.6606,5.6606,5.6606,5.6606,5.6606,5.6606,5.6606,5.6606,5.6606,5.6606,5.6606,5.6606,5.6606,5.6606,5.6606,5.6606,5.6606,5.6606,5.6606,5.6606,5.6606,5.6606,5.6606,5.6606,5.6606,5.6606,5.6606,5.6606,5.6606,5.6606,0.0,0.0,0.0,0.0,0.0,0.0,0.0,0.0,0.0,0.0,0.0,0.0,0.0,0.0,0.0,0.0,0.0,0.0,4.63,4.63,4.63,4.63,4.63,4.63,4.63,4.63,4.63,4.63,4.6573,4.671,4.6729,4.7588,4.7978,4.8017,4.8837,4.954,5.0126,5.0399,5.0848,5.1394,5.1394,5.1394,0.0,0.0,0.0,0.0,0.0,0.0,0.0,0.0,5.481,5.5454,5.6333,5.6606,5.6606,5.6606,5.6606,5.6606,5.6606,5.6606,5.6606,0.0,0.0,0.0,5.6606,5.6606,5.6606,5.6606,5.6606,5.6606,5.6606,0.0,5.6606,5.6606,5.6606,5.6606,5.6606,5.6606,5.6606,5.6606,5.6606,5.6606,5.6606,5.6606,5.6606,5.6606,5.6606,5.6606,5.6606,5.6606,5.6606,5.6606,5.6606,5.6606,5.6606,5.6606,5.6606,5.6606,5.6606,5.6606,5.6606,5.6606,5.6606,5.6606,5.6606,5.6606,5.6606,5.6606,5.6606,5.6606,5.6606,5.6606,5.6606,5.6606,5.6606,5.6606,0.0,0.0,0.0,0.0,0.0,0.0,0.0,0.0,0.0,0.0,0.0,0.0,0.0,0.0,0.0,0.0,0.0,0.0,4.63,4.63,4.63,4.63,4.63,4.63,4.63,4.6319,4.6319,4.63,4.7178,4.7608,4.7627,4.8447,4.8818,4.8857,4.9716,5.0106,5.0165,5.1023,5.1394,5.1394,5.1394,5.1394,5.1394,0.0,0.0,0.0,0.0,0.0,0.0,0.0,5.5318,5.5454,5.6333,5.6606,5.6606,5.6606,5.6606,5.6606,5.6606,5.6606,0.0,0.0,0.0,0.0,5.6606,5.6606,5.6606,5.6606,5.6606,5.6606,5.6606,5.6606,5.6606,5.6606,5.6606,5.6606,5.6606,5.6606,5.6606,5.6606,5.6606,5.6606,5.6606,5.6606,5.6606,5.6606,5.6606,5.6606,5.6606,5.6606,5.6606,5.6606,5.6606,5.6606,5.6606,5.6606,5.6606,5.6606,5.6606,5.6606,5.6606,5.6606,5.6606,5.6606,5.6606,5.6606,5.6606,5.6606,5.6606,5.6606,5.6606,5.6606,5.6606,5.6606,5.6606,5.6606,0.0,0.0,0.0,0.0,0.0,0.0,0.0,0.0,0.0,0.0,0.0,0.0,0.0,0.0,0.0,0.0,0.0,0.0,4.63,4.63,4.63,4.63,4.63,4.6593,4.7198,4.7764,4.7783,4.7217,4.8037,4.8447,4.8466,4.9325,4.9716,4.9755,5.0633,5.1004,5.1023,5.1297,5.1394,5.1394,5.1394,5.1394,5.1472,0.0,0.0,0.0,0.0,0.0,0.0,0.0,0.0,0.0,5.6528,5.6606,5.6606,5.6606,5.6606,5.6606,5.6606,5.6606,0.0,0.0,0.0,0.0,0.0,5.6606,0.0,0.0,5.6606,5.6606,5.6606,5.6606,5.6606,5.6606,5.6606,5.6606,5.6606,5.6606,5.6606,5.6606,5.6606,5.6606,5.6606,5.6606,5.6606,5.6606,5.6606,5.6606,5.6606,5.6606,5.6606,5.6606,5.6606,5.6606,5.6606,5.6606,5.6606,5.6606,5.6606,5.6606,5.6606,5.6606,5.6606,5.6606,5.6606,5.6606,5.6606,5.6606,5.6606,5.6606,5.6606,5.6606,5.6606,5.6606,5.6606,5.6606,0.0,0.0,0.0,0.0,0.0,0.0,0.0,0.0,0.0,0.0,0.0,0.0,0.0,0.0,0.0,0.0,0.0,0.0,0.0,4.6612,4.6827,4.6827,4.712,4.7549,4.8076,4.8896,4.9072,4.8584,4.9072,4.9325,4.9345,5.0204,5.0614,5.0633,5.118,5.1394,5.1394,5.1394,5.1394,5.1433,5.1785,5.1921,5.2019,0.0,0.0,0.0,0.0,0.0,0.0,0.0,0.0,0.0,5.6606,5.6606,5.6606,5.6606,5.6606,5.6606,5.6606,5.6606,0.0,5.6606,5.6606,5.6606,5.6606,0.0,0.0,0.0,5.6606,5.6606,5.6606,5.6606,5.6606,5.6606,5.6606,5.6606,5.6606,5.6606,5.6606,5.6606,5.6606,5.6606,5.6606,5.6606,5.6606,5.6606,5.6606,5.6606,5.6606,5.6606,5.6606,5.6606,5.6606,5.6606,5.6606,5.6606,5.6606,5.6606,5.6606,5.6606,5.6606,5.6606,5.6606,5.6606,5.6606,5.6606,5.6606,5.6606,5.6606,5.6606,5.6606,5.6606,5.6606,5.6606,5.6606,5.6606,0.0,0.0,0.0,0.0,0.0,0.0,0.0,0.0,0.0,0.0,0.0,0.0,0.0,0.0,0.0,0.0,0.0,0.0,0.0,4.7237,4.7705,4.7705,4.8486,4.8915,4.8915,4.9774,5.0223,5.0223,5.0223,5.0223,5.0243,5.1023,5.1394,5.1394,5.1394,5.1394,5.1394,5.1394,5.1453,5.159,5.237,5.2741,5.2917,5.3795,0.0,0.0,0.0,0.0,0.0,0.0,0.0,0.0,5.6606,5.6606,5.6606,5.6606,5.6606,5.6606,5.6606,0.0,0.0,5.6606,5.6606,0.0,5.6606,5.6606,5.6606,5.6606,0.0,5.6606,5.6606,5.6606,5.6606,5.6606,5.6606,5.6606,5.6606,5.6606,5.6606,5.6606,5.6606,5.6606,5.6606,5.6606,5.6606,5.6606,5.6606,5.6606,5.6606,5.6606,5.6606,5.6606,5.6606,5.6606,5.6606,5.6606,5.6606,5.6606,5.6606,5.6606,5.6606,5.6606,5.6606,5.6606,5.6606,5.6606,5.6606,5.6606,5.6606,5.6606,5.6606,5.6606,5.6606,5.6606,5.6606,5.6606,0.0,0.0,0.0,0.0,0.0,0.0,0.0,0.0,0.0,0.0,0.0,0.0,0.0,0.0,0.0,0.0,0.0,0.0,0.0,4.8096,4.8545,4.8545,4.9364,4.9813,4.9813,5.0672,5.1121,5.1121,5.1121,5.1121,5.1121,5.1316,5.1394,5.1394,5.1394,5.1394,5.1394,5.1394,5.1785,5.2448,5.2624,5.3112,5.3815,5.4693,5.5025,0.0,0.0,0.0,0.0,0.0,0.0,0.0,5.6606,5.6606,5.6606,5.6606,5.6606,5.6606,5.6606,5.6606,0.0,0.0,5.6606,5.6606,5.6606,5.6606,5.6606,5.6606,5.6606,5.6606,5.6606,5.6606,5.6606,5.6606,5.6606,5.6606,5.6606,5.6606,5.6606,5.6606,5.6606,5.6606,5.6606,5.6606,5.6606,5.6606,5.6606,5.6606,5.6606,5.6606,5.6606,5.6606,5.6606,5.6606,5.6606,5.6606,5.6606,5.6606,5.6606,5.6606,5.6606,5.6606,5.6606,5.6606,5.6606,5.6606,5.6606,5.6606,5.6606,5.6606,5.6606,5.6606,5.6606,5.6606,5.6606,5.6606,0.0,0.0,0.0,0.0,0.0,0.0,0.0,0.0,0.0,0.0,0.0,0.0,0.0,0.0,0.0,0.0,0.0,0.0,0.0,0.0,4.9538,5.0028,5.0477,5.0711,5.0711,5.118,5.1394,5.1394,5.1394,5.1394,5.1394,5.1394,5.1394,5.1394,5.1394,5.1394,5.1433,5.1843,5.2273,5.2761,5.36,5.4225,5.4713,5.5591,5.5923,5.5981,5.645,0.0,0.0,0.0,0.0,0.0,0.0,0.0,5.6606,5.6606,5.6606,5.6606,5.6606,0.0,0.0,5.6606,0.0,5.6606,5.6606,5.6606,5.6606,5.6606,5.6606,5.6606,5.6606,5.6606,5.6606,5.6606,5.6606,5.6606,5.6606,5.6606,5.6606,5.6606,5.6606,5.6606,5.6606,5.6606,5.6606,5.6606,5.6606,5.6606,5.6606,5.6606,5.6606,5.6606,5.6606,5.6606,5.6606,5.6606,5.6606,5.6606,5.6606,5.6606,5.6606,5.6606,5.6606,5.6606,5.6606,5.6606,5.6606,5.6606,5.6606,5.6606,5.6606,5.6606,5.6606,5.6606,5.6606,5.6606,0.0,0.0,0.0,0.0,0.0,0.0,0.0,0.0,0.0,0.0,0.0,0.0,0.0,0.0,0.0,0.0,0.0,0.0,0.0,0.0,0.0,5.1351,5.1394,5.1394,5.1394,5.1394,5.1394,5.1394,5.1394,5.1394,5.1394,5.1394,5.1394,5.1394,5.1394,5.1472,5.1668,5.239,5.2878,5.3268,5.4713,5.5396,5.5591,5.6333,5.6606,5.6606,5.6606,5.6606,5.6606,5.6606,0.0,0.0,0.0,0.0,5.6606,5.6606,5.6606,5.6606,5.6606,0.0,5.6606,5.6606,5.6606,0.0,5.6606,5.6606,5.6606,5.6606,5.6606,5.6606,5.6606,5.6606,5.6606,5.6606,5.6606,5.6606,5.6606,5.6606,5.6606,5.6606,5.6606,5.6606,5.6606,5.6606,5.6606,5.6606,5.6606,5.6606,5.6606,5.6606,5.6606,5.6606,5.6606,5.6606,5.6606,5.6606,5.6606,5.6606,5.6606,5.6606,5.6606,5.6606,5.6606,5.6606,5.6606,5.6606,5.6606,5.6606,5.6606,5.6606,5.6606,5.6606,5.6606,5.6606,5.6606,5.6606,0.0,0.0,0.0,0.0,0.0,0.0,0.0,0.0,0.0,0.0,0.0,0.0,0.0,0.0,0.0,0.0,0.0,0.0,4.964,0.0,0.0,5.139,5.1394,5.1394,5.1394,5.1394,5.1394,5.1394,5.1394,5.1394,0.0,0.0,5.1394,5.1394,5.1394,5.1824,5.2526,5.2644,5.3561,5.4966,5.5201,5.5747,5.645,5.6567,5.6606,5.6606,5.6606,5.6606,5.6606,5.6606,5.6606,0.0,0.0,0.0,5.6606,5.6606,5.6606,5.6606,0.0,0.0,5.6606,0.0,5.6606,5.6606,0.0,5.6606,5.6606,5.6606,5.6606,5.6606,5.6606,5.6606,5.6606,5.6606,5.6606,5.6606,5.6606,5.6606,5.6606,5.6606,5.6606,5.6606,5.6606,5.6606,5.6606,5.6606,5.6606,5.6606,5.6606,5.6606,5.6606,5.6606,5.6606,5.6606,5.6606,5.6606,5.6606,5.6606,5.6606,5.6606,5.6606,5.6606,5.6606,5.6606,5.6606,5.6606,5.6606,5.6606,5.6606,5.6606,5.6606,5.6606,5.6606,5.6606,5.6606,5.6606,0.0,0.0,0.0,0.0,0.0,0.0,0.0,0.0,0.0,0.0,0.0,0.0,0.0,0.0,0.0,4.9794,5.0195,5.0428,5.0428,5.0845,5.115,5.1284,5.1362,5.1394,5.1394,5.1394,5.1394,5.1394,5.1394,0.0,0.0,5.1394,5.1394,0.0,5.1902,5.2331,5.2761,5.3737,5.4596,5.5337,5.5825,5.6255,5.6606,5.6606,5.6606,5.6606,5.6606,5.6606,5.6606,5.6606,5.6606,5.6606,5.6606,0.0,0.0,0.0,5.6606,5.6606,5.6606,5.6606,5.6606,0.0,5.6606,5.6606,5.6606,5.6606,5.6606,5.6606,5.6606,5.6606,5.6606,5.6606,5.6606,5.6606,5.6606,5.6606,5.6606,5.6606,5.6606,5.6606,5.6606,5.6606,5.6606,5.6606,5.6606,5.6606,5.6606,5.6606,5.6606,5.6606,5.6606,5.6606,5.6606,5.6606,5.6606,5.6606,5.6606,5.6606,5.6606,5.6606,5.6606,5.6606,5.6606,5.6606,5.6606,5.6606,5.6606,5.6606,5.6606,5.6606,5.6606,5.6606,5.6606,5.6606,5.6606,5.6606,0.0,0.0,0.0,0.0,0.0,0.0,0.0,0.0,0.0,0.0,0.0,0.0,0.0,0.0,0.0,0.0,5.0841,5.0874,5.0887,5.0953,5.1053,5.1195,5.1327,5.1394,5.1394,5.1394,5.1394,5.1394,0.0,0.0,5.1394,5.1629,5.1726,0.0,5.2409,5.2956,5.3444,0.0,0.0,5.5689,5.6333,5.6606,5.6606,5.6606,5.6606,5.6606,5.6606,5.6606,5.6606,5.6606,5.6606,5.6606,5.6606,5.6606,0.0,0.0,0.0,0.0,0.0,0.0,5.6606,5.6606,5.6606,5.6606,5.6606,5.6606,5.6606,5.6606,5.6606,5.6606,5.6606,5.6606,5.6606,5.6606,5.6606,5.6606,5.6606,5.6606,5.6606,5.6606,5.6606,5.6606,5.6606,5.6606,5.6606,5.6606,5.6606,5.6606,5.6606,5.6606,5.6606,5.6606,5.6606,5.6606,5.6606,5.6606,5.6606,5.6606,5.6606,5.6606,5.6606,5.6606,5.6606,5.6606,5.6606,5.6606,5.6606,5.6606,5.6606,5.6606,5.6606,5.6606,5.6606,5.6606,5.6606,5.6606,0.0,0.0,0.0,0.0,0.0,0.0,0.0,0.0,0.0,0.0,0.0,0.0,5.0625,5.0645,5.0664,5.0702,5.0702,5.0776,5.0887,5.0953,5.1053,5.1195,5.1327,0.0,5.1394,5.1394,5.1394,5.1394,0.0,0.0,5.1414,5.2253,5.2624,5.2624,5.2683,5.362,5.5162,0.0,0.0,0.0,5.6586,5.6606,5.6606,5.6606,5.6606,5.6606,5.6606,5.6606,5.6606,5.6606,5.6606,5.6606,5.6606,5.6606,5.6606,0.0,0.0,0.0,0.0,5.6606,0.0,5.6606,5.6606,5.6606,5.6606,5.6606,5.6606,5.6606,5.6606,5.6606,5.6606,5.6606,5.6606,5.6606,5.6606,5.6606,5.6606,5.6606,5.6606,5.6606,5.6606,5.6606,5.6606,5.6606,5.6606,5.6606,5.6606,5.6606,5.6606,5.6606,5.6606,5.6606,5.6606,5.6606,5.6606,5.6606,5.6606,5.6606,5.6606,5.6606,5.6606,5.6606,5.6606,5.6606,5.6606,5.6606,5.6606,5.6606,5.6606,5.6606,5.6606,5.6606,5.6606,5.6606,5.6606,5.6606,0.0,0.0,0.0,0.0,0.0,0.0,0.0,0.0,0.0,0.0,0.0,0.0,0.0,5.0702,5.0702,5.0702,5.0702,5.0721,5.0776,5.0867,5.0965,5.1017,5.117,5.1265,5.1265,5.1357,5.1394,0.0,0.0,5.1687,5.2234,5.2546,5.3307,5.4361,5.4361,5.4713,5.5337,5.5903,0.0,0.0,5.6606,5.6606,5.6606,5.6606,5.6606,5.6606,5.6606,5.6606,5.6606,5.6606,5.6606,5.6606,5.6606,5.6606,5.6606,0.0,0.0,0.0,0.0,0.0,0.0,5.6606,5.6606,5.6606,5.6606,5.6606,5.6606,5.6606,5.6606,5.6606,5.6606,5.6606,5.6606,5.6606,5.6606,5.6606,5.6606,5.6606,5.6606,5.6606,5.6606,5.6606,5.6606,5.6606,5.6606,5.6606,5.6606,5.6606,5.6606,5.6606,5.6606,5.6606,5.6606,5.6606,5.6606,5.6606,5.6606,5.6606,5.6606,5.6606,5.6606,5.6606,5.6606,5.6606,5.6606,5.6606,5.6606,5.6606,5.6606,5.6606,5.6606,5.6606,5.6606,5.6606,5.6606,5.6606,0.0,0.0,0.0,0.0,0.0,0.0,0.0,0.0,0.0,5.0702,0.0,0.0,0.0,0.0,5.0702,5.0702,5.0702,5.0702,5.0702,5.0827,5.0887,5.0887,5.1039,5.115,5.1203,5.1291,5.1494,5.1843,5.1843,5.2273,0.0,5.3444,5.4186,5.5318,5.5611,5.5747,0.0,0.0,0.0,5.6606,5.6606,5.6606,5.6606,5.6606,5.6606,5.6606,5.6606,5.6606,5.6606,5.6606,5.6606,5.6606,5.6606,5.6606,5.6606,0.0,0.0,0.0,5.6606,0.0,0.0,5.6606,5.6606,5.6606,5.6606,5.6606,5.6606,5.6606,5.6606,5.6606,5.6606,5.6606,5.6606,5.6606,5.6606,5.6606,5.6606,5.6606,5.6606,5.6606,5.6606,5.6606,5.6606,5.6606,5.6606,5.6606,5.6606,5.6606,5.6606,5.6606,5.6606,5.6606,5.6606,5.6606,5.6606,5.6606,5.6606,5.6606,5.6606,5.6606,5.6606,5.6606,5.6606,5.6606,5.6606,5.6606,5.6606,5.6606,5.6606,5.6606,5.6606,5.6606,5.6606,5.6606,5.6382,5.6093,0.0,0.0,0.0,0.0,0.0,0.0,0.0,0.0,5.0702,5.0702,0.0,0.0,0.0,0.0,0.0,5.0702,5.0702,5.0702,5.0702,5.0808,5.0887,5.0887,5.0972,5.1072,5.1215,5.1234,5.1726,5.2722,5.2722,5.319,5.4068,5.4908,5.5318,5.5376,5.6216,5.6606,5.6606,5.6606,5.6606,5.6606,5.6606,5.6606,5.6606,5.6606,5.6606,5.6606,5.6606,5.6606,5.6606,5.6606,5.6606,5.6606,5.6606,5.6606,0.0,0.0,0.0,0.0,0.0,0.0,0.0,5.6606,5.6606,5.6606,5.6606,5.6606,5.6606,5.6606,5.6606,5.6606,5.6606,5.6606,5.6606,5.6606,5.6606,5.6606,5.6606,5.6606,5.6606,5.6606,5.6606,5.6606,5.6606,5.6606,5.6606,5.6606,5.6606,5.6606,5.6606,5.6606,5.6606,5.6606,5.6606,5.6606,5.6606,5.6606,5.6606,5.6606,5.6606,5.6606,5.6606,5.6606,5.6606,5.6606,5.6582,5.6582,5.6582,5.6606,5.6606,5.6582,5.6582,5.6582,5.6582,5.6563,5.5925,5.5088,0.0,0.0,0.0,0.0,0.0,5.0702,5.0702,5.0702,5.0702,0.0,0.0,0.0,5.0702,5.0702,5.0702,5.0702,5.0702,5.0702,5.0702,5.0721,5.0758,5.0758,5.0871,5.1228,5.1837,5.196,5.2485,5.3494,5.3494,5.3988,5.4947,5.5181,5.563,5.6255,5.6489,5.6606,5.6606,5.6606,5.6606,5.6606,5.6606,5.6606,5.6606,5.6606,5.6606,5.6606,5.6606,5.6606,5.6606,5.6606,5.6606,5.6606,5.6606,0.0,0.0,0.0,0.0,0.0,5.6606,0.0,0.0,0.0,0.0,0.0,5.6606,5.6606,5.6606,5.6606,5.6606,5.6606,5.6606,5.6606,5.6606,5.6606,5.6606,5.6606,5.6606,5.6606,5.6606,5.6606,5.6606,5.6606,5.6606,5.6606,5.6606,5.6606,5.6606,5.6606,5.6606,5.6606,5.6606,5.6606,5.6606,5.6606,5.6606,5.6606,5.6606,5.6606,5.6606,5.6606,5.6606,5.6606,5.6606,5.6582,5.6446,5.6386,5.6386,5.6533,5.6503,5.6386,5.6386,5.6327,5.6163,5.5579,5.5199,5.4875,0.0,0.0,0.0,5.0702,5.0702,5.0702,5.0702,5.0702,5.0702,0.0,0.0,0.0,5.0702,5.0702,5.0837,5.1164,5.1202,5.1356,5.1722,5.1741,5.1741,5.1741,5.1817,5.2099,5.263,5.2724,5.3256,5.4256,5.4256,5.4733,5.5631,5.5631,5.5938,5.6472,5.6472,5.6528,5.6606,5.6606,5.6606,5.6606,5.6606,5.6606,5.6606,5.6606,5.6606,5.6606,5.6606,5.6606,5.6606,5.6606,5.6606,5.6606,5.6606,5.6606,0.0,5.6606,0.0,0.0,0.0,0.0,0.0,5.6606,0.0,0.0,5.6497,5.6472,5.6465,5.6391,5.6391,5.6391,5.6391,5.6391,5.6391,5.6391,5.6391,5.6452,5.6582,5.6606,5.6577,5.6478,5.6472,5.6446,5.6391,5.6391,5.6398,5.6472,5.6425,5.6425,5.6472,5.6472,5.6503,5.6606,5.6459,5.6425,5.6472,5.6425,5.6391,5.6391,5.6391,5.6391,5.6391,5.6391,5.6391,5.6383,5.6271,5.6222,5.6232,5.6347,5.6318,5.6193,5.5862,5.5664,5.5495,5.4672,5.4091,5.3649,0.0,0.0,5.0702,5.0702,5.0702,5.0702,5.0702,5.0702,5.0702,0.0,5.0779,5.0818,5.0818,5.0914,5.126,5.1991,5.2049,5.2375,5.3145,5.3203,5.3203,5.3203,5.3203,5.3302,5.3524,5.3505,5.401,5.5009,5.5009,5.5372,5.6097,5.6097,5.6169,5.6288,5.6288,0.0,5.6606,5.6606,5.6606,5.6606,5.6606,5.6606,5.6606,5.6606,5.6606,5.6606,5.6606,5.6606,5.6606,5.6606,5.6606,5.6606,5.6606,5.6606,5.6606,5.6606,5.6606,0.0,0.0,0.0,0.0,5.6606,5.6606,0.0,5.6359,5.6324,5.6299,5.6189,5.6166,5.6166,5.6166,5.6166,5.6154,5.6122,5.6122,5.6211,5.6497,5.6548,5.6472,5.6308,5.627,5.6242,5.611,5.6097,5.6146,5.627,5.6158,5.6146,5.627,5.627,5.6371,5.6548,5.6251,5.6158,5.627,5.6158,5.6097,5.6097,5.6097,5.6097,5.6097,5.6097,5.6097,5.6097,5.6084,5.6032,5.5935,5.5921,5.5921,5.5857,5.5171,5.4809,5.4602,5.3728,5.285,5.207,0.0,5.0702,5.0702,5.0702,5.0702,5.0702,5.0702,5.0702,5.0702,5.0702,5.126,5.1683,5.1683,5.2299,5.2779,5.2933,5.2953,5.3029,5.3203,5.3203,5.3203,5.3203,5.3203,5.355,5.4264,5.4283,5.4747,5.5714,5.5714,5.5835,5.6097,5.6097,5.6169,5.6288,5.6288,5.6413,5.6606,5.6606,5.6606,5.6606,5.6606,5.6606,5.6606,5.6606,5.6606,5.6606,5.6606,5.6606,5.6606,5.6606,5.6606,5.6606,5.6606,5.6606,5.6606,5.6606,5.6606,5.6606,5.6606,5.6606,5.6606,5.6606,5.6606,0.0,5.6553,5.6533,5.6528,5.6517,5.6497,5.6497,5.6497,5.6497,5.6459,5.629,5.6261,5.6242,5.62,5.6189,5.6178,5.6135,5.6135,5.6122,5.6097,5.6097,5.611,5.6135,5.611,5.611,5.6135,5.6135,5.6166,5.6189,5.6122,5.611,5.6135,5.611,5.6097,5.6097,5.6097,5.6097,5.6097,5.6097,5.6097,5.6084,5.599,5.5559,5.4959,5.4862,5.4879,5.4955,5.48,5.4237,5.3417,5.255,5.2107,5.1857,5.0702,5.0702,5.0702,5.0702,5.0702,5.0702,5.0702,5.1029,5.1298,5.1298,5.2029,5.2549,5.2549,5.2953,5.3376,5.3818,5.3857,5.403,5.4414,5.4453,5.4453,5.4453,5.4453,5.4645,5.5088,5.5107,5.5343,5.5808,5.5808,5.5826,5.5896,5.5896,5.602,5.6191,5.6191,5.6355,5.6606,5.6606,5.6606,5.6606,5.6606,5.6606,5.6606,5.6606,5.6606,5.6606,5.6606,5.6606,5.6606,5.6606,5.6528,5.6446,5.6446,5.6398,5.6347,5.6347,5.6398,5.6446,5.6446,5.6528,5.6606,5.6606,5.6606,0.0,0.0,5.6446,5.6439,5.6355,5.6347,5.6347,5.6347,5.6347,5.6291,5.6142,5.6097,5.6044,5.593,5.602,5.6071,5.6005,5.6005,5.5975,5.5913,5.5896,5.5896,5.5896,5.6015,5.6071,5.6005,5.6005,5.6035,5.6097,5.5975,5.5946,5.6005,5.5927,5.5896,5.5896,5.5896,5.5896,5.5896,5.5896,5.5896,5.5877,5.5402,5.4959,5.4554,5.4051,5.3629,5.33,5.33,5.2993,5.2452,5.1606,5.1298,5.1241,5.076,5.0702,5.0741,5.0894,5.0933,5.0991,5.1164,5.1741,5.2164,5.2164,5.2914,5.3453,5.3453,5.3587,5.3953,5.4664,5.4722,5.5011,5.5665,5.5703,5.5703,5.5703,5.5703,5.5703,5.5703,5.5703,5.5703,5.5703,5.5703,5.5703,5.5703,5.5703,5.5827,5.6057,5.6057,5.623,5.6517,5.6528,5.6528,5.6517,5.6528,5.6577,5.6606,5.6606,5.6606,5.6606,5.6606,5.6606,5.6586,5.6558,5.6472,5.6352,5.627,5.6202,5.6135,5.611,5.6169,5.6261,5.6261,5.6371,5.6497,5.6497,5.6497,5.6465,0.0,0.0,0.0,5.6122,5.6097,5.6097,5.6097,5.6097,5.6005,5.5717,5.5799,5.5806,5.5514,5.5782,5.599,5.588,5.5863,5.5808,5.5705,5.5703,5.5703,5.5703,5.5896,5.5975,5.5863,5.5863,5.5913,5.6035,5.5808,5.5748,5.5863,5.5748,5.5703,5.5703,5.5703,5.5703,5.5684,5.553,5.5472,5.5415,5.4607,5.4145,5.3933,5.3241,5.2452,5.1683,5.1856,5.1818,5.1587,5.0933,5.0702,5.0702,5.0991,5.0702,5.0914,5.1645,5.176,5.2029,5.2799,5.2991,5.3049,5.3049,5.3818,5.4357,5.4357,5.4991,5.5453,5.5549,5.5549,5.5588,5.5684,5.5703,5.5703,5.5703,5.5703,5.5703,5.5703,5.5703,5.5703,5.5703,5.5703,5.5703,5.5703,5.5703,5.5769,5.5913,5.5913,5.6005,5.6166,5.629,5.6271,5.6166,5.629,5.6446,5.6606,5.6606,5.6606,5.6606,5.6606,5.6606,5.6577,5.6386,5.6439,5.6503,5.623,5.6191,5.6261,5.6135,5.611,5.6122,5.6122,5.6135,5.6166,5.6166,5.6166,5.6154,5.6122,0.0,5.611,5.6097,0.0,5.6097,5.6097,0.0,0.0,5.4962,5.5432,5.5593,5.4764,5.5283,5.5728,5.5726,5.5726,5.5705,5.5703,5.5703,5.5703,5.5703,5.5726,5.5728,5.5726,5.5726,5.5726,5.5748,5.5705,5.5724,5.5726,5.5724,5.5703,5.5703,5.5703,5.5703,5.5684,5.4953,5.4645,5.4587,5.3722,5.2914,5.2202,5.2106,5.1568,5.0914,5.1625,5.1471,5.0818,5.0721,5.0702,5.0702,5.2395,5.2145,5.226,5.2606,5.2664,5.2779,5.3145,5.3626,5.4126,5.4587,5.4972,5.5203,5.5203,5.5491,0.0,0.0,0.0,5.564,5.564,5.564,5.5662,5.5703,5.5703,5.5703,5.5703,5.5703,5.5703,5.5703,5.5703,5.5703,5.5703,5.5703,5.5769,5.5915,5.5915,5.5975,5.6097,5.6158,5.6146,5.6097,5.6158,5.6222,5.6329,5.6398,5.6503,5.6582,5.6472,5.6439,5.6406,5.6232,5.6189,5.6161,5.602,5.5975,5.5927,5.5879,5.593,5.5975,5.5975,5.6029,5.6097,5.6097,5.6097,5.6097,5.6097,5.6097,5.6097,5.6097,0.0,0.0,0.0,0.0,0.0,0.0,5.5683,5.5748,5.5264,5.5491,5.5703,5.5703,5.5703,5.5703,5.5703,5.5703,5.5703,5.5703,5.5703,5.5703,5.5703,5.5703,5.5703,5.5703,5.5703,5.5703,5.5703,5.5703,5.5703,5.5703,5.5703,5.5453,5.4991,5.4645,5.4222,5.3703,5.2818,5.2241,5.1875,5.1395,5.0991,5.0721,5.1068,5.0991,5.0702,5.0702,5.0702,5.0702,5.399,0.0,0.0,5.351,5.3568,5.3626,5.3857,5.4414,5.503,5.5607,5.5703,5.5703,5.5703,5.5662,5.564,0.0,5.5573,5.5573,5.5573,5.5596,5.5618,5.564,5.5682,5.5703,5.5662,5.5703,5.5703,5.5703,5.5703,5.5703,5.5703,5.5703,5.5748,5.5845,5.5845,5.5879,5.5955,5.6015,5.6001,5.5955,5.6015,5.6063,5.6057,5.6191,5.6336,5.6432,5.6299,5.6252,5.6212,5.6084,5.6005,5.5946,5.5863,5.5789,5.5748,5.5705,5.5788,5.5845,5.5845,5.5913,5.599,5.599,5.599,5.599,5.599,5.599,5.599,5.599,5.599,0.0,0.0,0.0,5.5901,5.5573,0.0,5.5731,5.5416,5.5549,5.5703,5.5703,5.5703,5.5703,5.5703,5.5703,5.5703,5.5703,5.5703,5.5703,5.5703,5.5703,5.5703,5.5703,5.5703,5.5703,5.5703,5.5703,5.5588,5.5376,5.5376,5.4934,5.4145,5.3895,5.3433,5.2799,5.1952,5.1568,5.1529,5.0933,5.0702,5.0702,5.0702,5.0702,5.0702,5.0702,5.0702,5.0702,5.5538,5.4276,0.0,5.4318,5.4453,5.4722,5.5491,5.5645,5.5665,5.5703,5.5703,5.5703,5.5703,5.564,5.5596,5.5596,5.5551,5.5504,5.5504,5.5573,5.5573,5.5504,5.5618,5.5662,5.5596,5.5682,5.5703,5.5703,5.5703,5.5703,5.5703,5.5703,5.5684,5.5724,5.5724,5.5662,5.5621,5.5826,5.5789,5.5621,5.5826,5.5915,5.5913,5.6063,5.611,5.6129,5.611,5.6097,5.6084,5.5943,5.599,5.6044,5.5789,5.5789,5.5863,5.5747,5.5684,5.5724,5.5724,5.5705,5.5705,5.5705,5.5705,5.5705,5.5705,5.5705,5.5705,5.5705,5.5705,5.5705,5.5705,5.5705,5.5455,5.4685,5.5205,0.0,0.0,5.5203,5.5703,5.5703,5.5703,5.5703,5.5703,5.5703,5.5703,5.5703,5.5703,5.5703,5.5703,5.5703,5.5703,5.5703,5.5703,5.5703,5.5703,5.5703,5.5299,5.453,5.453,5.4087,5.3222,5.2375,5.1972,5.1914,5.1087,5.0741,5.0741,5.0702,5.0702,5.0702,5.0702,5.0702,5.0702,5.0702,5.0702,5.0702,0.0,0.0,0.0,0.0,5.528,5.5395,5.5665,5.5703,5.5684,5.564,5.5618,5.5618,5.5573,5.5551,5.5527,5.548,5.5456,5.5432,5.5432,5.5504,5.5527,5.5504,5.5618,5.5682,5.5596,5.5682,5.5703,5.5703,5.5703,5.5703,5.5703,5.5703,5.5703,5.5703,5.5703,5.5703,5.5662,5.5748,5.5728,5.5662,5.5748,5.5768,5.5789,5.602,5.6097,5.6084,5.6005,5.5959,5.5962,5.5808,5.5808,5.5827,5.5726,5.5747,5.5768,5.5705,5.5703,5.5703,5.5703,5.5703,5.5703,5.5703,5.5703,5.5703,5.5703,5.5703,5.5703,5.5703,5.5703,5.5703,5.5703,5.5703,5.5607,5.5338,5.5511,5.5588,0.0,5.553,5.5703,5.5703,5.5703,5.5703,5.5703,5.5703,5.5703,5.5703,5.5703,5.5703,5.5703,5.5703,5.5703,5.5703,5.5703,5.5434,5.4914,5.4914,5.4472,5.3645,5.3645,5.3183,5.2337,5.2029,5.1606,5.1087,5.0818,5.0702,5.0702,5.0702,5.0702,5.0702,5.0702,5.0702,5.0702,5.0702,5.0702,5.0702,5.5413,5.5456,5.5504,5.5596,5.564,5.5662,5.5703,5.5682,5.564,5.5596,5.5573,5.5551,5.5504,5.548,5.5456,5.5408,5.5402,5.5402,5.5408,5.5432,5.5456,5.5456,5.5573,5.5596,5.5527,5.5596,5.564,5.5662,5.5662,5.5682,5.5703,5.5703,5.5703,5.5703,5.5703,5.5703,5.5682,5.5703,5.5703,5.5662,5.5662,5.564,5.5662,5.5806,5.5927,5.5943,5.5844,5.5808,5.5808,5.5726,5.5703,5.5703,5.5703,5.5703,5.5703,5.5703,5.5703,5.5703,5.5703,5.5703,5.5703,5.5703,5.5703,5.5703,5.5703,5.5703,5.5703,5.5703,5.5703,5.5703,5.5703,5.5703,5.5703,5.5703,5.5703,5.5703,0.0,5.5453,5.5261,5.5261,5.553,5.5703,5.5703,5.5703,5.5703,5.5703,5.5703,5.5703,5.5703,5.5703,5.5568,5.528,5.5261,5.4876,5.4049,5.4049,5.3606,5.2741,5.2741,5.2299,5.1471,5.1471,5.1183,5.0702,5.0702,5.0702,5.0702,5.0702,5.0702,5.0702,5.0702,5.0702,5.0702,5.0702,5.0702,5.0702,5.5492,5.5498,5.5523,5.5614,5.5608,5.5618,5.5682,5.566,5.5596,5.5596,5.5527,5.5504,5.5504,5.5432,5.5408,5.5408,5.539,5.5409,5.5383,5.5408,5.5408,5.5408,5.5456,5.548,5.5408,5.548,5.5527,5.5596,5.5596,5.5618,5.5703,5.5703,5.5703,5.5703,5.5703,5.5662,5.5596,5.5682,5.566,5.5596,5.5596,5.5551,5.5504,5.5504,5.5573,5.5662,5.5618,5.566,5.5703,5.5703,5.5684,5.5703,5.5703,5.5703,5.5703,5.5703,5.5703,5.5703,5.5703,5.5703,5.5703,5.5703,5.5703,5.5703,5.5703,5.5703,5.5703,5.5703,5.5703,5.5703,5.5703,5.5703,5.5703,5.5703,5.5703,5.5684,5.5645,5.4972,5.4472,5.4434,5.5145,5.5626,5.5568,5.5607,5.5645,5.5645,5.5645,5.5645,5.5645,5.5588,5.5222,5.4453,5.4434,5.401,5.3145,5.3145,5.2702,5.1856,5.1856,5.1433,5.0702,5.0702,5.0702,5.0702,5.0702,5.0702,5.0702,5.0702,5.0702,5.0702,5.0702,5.0702,5.0702,5.0702,5.0702,5.0702,5.6755,5.7043,5.7289,5.7366,5.6343,5.5527,5.5551,5.5527,5.5504,5.5456,5.5432,5.5427,5.5434,5.5409,5.5409,5.5409,5.5403,5.5403,5.5409,5.5402,5.5402,5.5409,5.5451,5.548,5.5408,5.548,5.5504,5.5527,5.5527,5.5527,5.5551,5.5551,5.5573,5.5618,5.5618,5.5618,5.5596,5.5618,5.5573,5.5527,5.5527,5.5527,5.5504,5.5456,5.548,5.5551,5.5527,5.5527,5.5551,5.5551,5.5573,5.5618,5.5618,5.5662,5.5703,5.5703,5.5703,5.5703,5.5703,5.5703,5.5703,5.5703,5.5703,5.5703,5.5703,5.5703,5.5703,5.5703,5.5703,5.5703,5.5703,5.5703,5.5703,5.5703,5.5703,5.5491,5.4895,5.4626,5.426,5.3606,5.4299,5.4549,5.3895,5.4434,5.4799,5.4799,5.4799,5.4799,5.4799,5.4184,5.376,5.3549,5.353,5.3126,5.2241,5.2241,5.1818,5.101,5.101,5.0894,5.0702,5.0702,5.0702,5.0702,5.0702,5.0702,5.0702,5.0702,5.0702,5.0702,5.0702,5.0702,5.0702,5.0702,5.0702,5.0702,5.7213,5.7606,5.7913,5.7959,5.7162,5.6562,5.6635,5.6611,5.6587,5.6537,5.6512,5.6505,5.6492,5.6492,5.6492,5.6492,5.6148,5.5919,5.597,5.5607,5.5396,5.5415,5.544,5.5446,5.5396,5.5446,5.547,5.5456,5.548,5.5504,5.5551,5.5551,5.5573,5.5596,5.5596,5.5573,5.5551,5.5551,5.5527,5.5504,5.548,5.5451,0.0,5.5421,5.5421,5.5446,5.5446,5.5499,5.5551,5.5551,5.5596,5.564,5.564,5.5662,5.5684,5.5662,5.566,5.566,5.566,5.566,5.5662,5.5684,5.5703,5.5703,5.5703,5.5703,5.5703,5.5703,5.5703,5.5703,5.5703,5.5703,5.5703,5.5703,5.5703,5.5374,5.4418,5.3996,5.3418,5.2554,5.2554,5.242,5.1941,5.3467,5.4337,5.3953,5.3933,5.3933,5.3933,5.3472,5.3029,5.2645,5.2645,5.2241,5.1375,5.1375,5.1144,5.0702,5.0702,5.0702,5.0702,5.0702,5.0702,5.0702,5.0702,5.0702,5.0702,5.0702,5.0702,5.0702,5.0702,5.0702,5.0702,5.0702,5.0702,5.0702,5.747,5.787,5.8157,5.8157,5.8184,5.8284,5.8368,5.817,5.7985,5.7985,5.7932,5.7905,5.7905,5.7905,5.7905,5.7905,5.7199,5.6747,5.6709,5.5963,5.5505,5.5402,5.539,5.5403,5.5403,5.5403,5.5409,5.5402,5.5476,5.5523,5.557,5.557,5.5573,5.5573,5.5573,5.5551,5.548,5.548,5.5499,5.548,5.5408,5.5396,5.5403,5.5403,5.5403,5.5403,5.5403,5.5465,5.557,5.557,5.5596,5.5662,5.5662,5.5682,5.5662,5.5596,5.5596,5.5596,5.5596,5.5596,5.5618,5.5703,5.5703,5.5703,5.5703,5.5703,5.5703,5.5703,5.5703,5.5703,5.5703,5.5703,5.5703,5.564,5.564,5.5289,5.4202,5.3402,5.2551,5.1601,5.0889,0.0,5.0178,5.2574,5.3816,5.3046,5.3009,5.3029,5.3029,5.2933,5.2529,5.1779,5.1741,5.1414,5.0702,5.0702,5.0702,5.0702,5.0702,5.0702,5.0702,5.0702,5.0702,5.0702,5.0702,5.0702,5.0702,5.0702,5.0702,5.0702,5.0702,5.0702,5.0702,5.0702,5.0702,5.0702,5.8783,5.919,5.9469,5.9469,5.974,5.9977,5.9977,5.8811,5.7932,5.7932,5.7905,5.7905,5.7905,5.7905,5.7905,5.7905,5.7753,5.7351,5.6671,5.6454,5.6091,5.5422,5.5403,5.5403,5.5403,5.5403,5.5403,5.5409,5.5409,5.5434,5.5434,5.5434,5.544,5.5432,5.5432,5.5432,5.5408,5.5415,5.5409,5.5409,5.5409,5.5403,5.5403,5.5403,5.5403,5.5403,5.5403,5.5428,5.5434,5.5434,5.5446,5.5456,5.5456,5.548,5.5527,5.5527,5.5551,5.5596,5.5596,5.564,5.5703,5.5703,5.5703,5.5703,5.5703,5.5703,5.5703,5.5703,5.5703,5.5703,5.5703,5.5703,5.5618,5.5413,5.5364,5.515,5.4482,5.3805,5.2908,5.1653,5.1744,5.1402,4.9997,5.1392,5.2197,5.1829,5.2003,5.2145,5.2145,5.1491,5.1068,5.0914,5.0914,5.0837,5.0702,5.0702,5.0702,5.0702,5.0702,5.0702,5.0702,5.0702,5.0702,5.0702,5.0702,5.0702,5.0702,5.0702,5.0702,5.0702,5.0702,5.0702,5.0702,5.0702,5.0702,5.0702,5.8852,5.9378,5.9725,5.9537,5.9823,6.0099,6.0099,5.9414,5.8978,5.9158,5.9205,5.9205,5.9205,5.9205,5.9205,5.9205,5.8784,5.8345,5.7925,5.7084,5.6434,5.6033,5.5632,5.5403,5.5403,5.5403,5.5403,5.5403,5.539,5.5396,5.5396,5.5396,5.5402,5.5408,5.5396,5.5421,5.5456,5.5415,5.5409,5.5415,5.5384,5.5403,5.5403,5.5403,5.5403,5.5403,5.5403,5.5403,5.5403,5.539,5.5427,5.5456,5.5456,5.548,5.5504,5.5456,5.548,5.5504,5.5504,5.5527,5.5551,5.5596,5.5618,5.564,5.564,5.5682,5.5703,5.5703,5.5662,5.5596,5.548,5.5461,5.5369,5.5111,5.5056,5.4751,5.3886,5.3099,5.2224,5.1178,5.0893,5.0485,4.9673,5.0323,5.0746,5.0621,5.0883,5.1015,5.1015,5.0653,5.0504,5.0683,5.0702,5.0702,5.0702,5.0702,5.0702,5.0702,5.0702,5.0702,5.0702,5.0702,5.0702,5.0702,5.0702,5.0702,5.0702,5.0702,5.0702,5.0702,5.0702,5.0702,5.0702,5.0702,5.0702,5.0702,5.8479,5.9046,5.9467,5.9122,5.9467,5.9791,5.9791,5.9874,6.0049,6.0361,6.0389,6.0389,6.0389,6.0389,6.0389,6.0389,5.9778,5.93,5.9109,5.7867,5.6969,5.6606,5.5995,5.5575,5.5403,5.5403,5.5403,5.5403,5.5396,5.5402,5.5402,5.5402,5.5402,5.5402,5.5409,5.5434,5.5476,5.5434,5.5409,5.5402,5.5409,5.5403,5.5403,5.5403,5.5403,5.5403,5.5403,5.5403,5.5403,5.5396,5.5427,5.5476,5.5476,5.5476,5.5476,5.5427,5.5383,5.5408,5.5408,5.5408,5.5432,5.548,5.5551,5.5573,5.5596,5.5618,5.5682,5.5684,5.5577,5.5394,5.5009,5.5064,5.5045,5.4697,5.4685,5.4396,5.3564,5.2606,5.1715,5.0941,5.0102,4.9476,4.9308,4.9539,4.9693,4.9589,4.9917,5.0092,5.0092,5.0092,5.0272,5.0565,5.0585,5.0624,5.0702,5.0702,5.0702,5.0702,5.0702,5.0702,5.0702,5.0702,5.0702,5.0702,5.0702,5.0702,5.0702,5.0702,5.0702,5.0702,5.0702,5.0702,5.0702,5.0702,5.0702,5.0702,5.807,5.8412,5.871,5.8669,5.9306,5.9791,5.9791,6.0099,6.0361,6.0389,6.0389,6.0389,6.0389,6.0389,6.0389,6.0389,6.0332,5.9931,5.9166,5.8956,5.8192,5.6664,5.653,5.6148,5.5422,5.5403,5.5403,5.5403,5.5403,5.5403,5.5403,5.5403,5.5403,5.5403,5.5403,5.5403,5.5428,5.5403,5.5403,5.5403,5.5403,5.5403,5.5403,5.5403,5.5403,5.5403,5.5403,5.5403,5.5403,5.5403,5.5384,5.5428,5.5428,5.5428,5.5428,5.5384,5.5396,5.5408,5.5408,5.5456,5.5504,5.5504,5.5504,5.5527,5.5573,5.5551,5.5551,5.5662,5.5399,5.4933,5.4259,5.4439,5.4579,5.4221,5.4277,5.4411,5.4602,5.3421,5.2341,5.1823,5.0766,4.9743,4.8999,4.9239,4.9302,4.9027,4.9502,4.9857,4.9857,4.9857,4.9943,5.0249,5.0249,5.038,5.0702,5.0702,5.0702,5.0702,5.0702,5.0702,5.0702,5.0702,5.0702,5.0702,5.0702,5.0702,5.0702,5.0702,5.0702,5.0702,5.0702,5.0702,5.0702,5.0702,5.0702,5.0702,5.7997,5.8326,5.8503,5.8301,5.871,5.9159,5.9378,5.9571,5.9874,6.0361,6.0389,6.0389,6.0389,6.0389,6.0389,6.0389,6.0389,6.0236,5.9892,5.9396,5.8593,5.7428,5.6874,5.6224,5.5422,5.5403,5.5403,5.5403,5.5403,5.5403,5.5403,5.5403,5.5403,5.5403,5.5403,5.5403,5.5403,5.5403,5.5403,5.5403,5.5403,5.5403,5.5403,5.5403,5.5403,5.5403,5.5403,5.5403,5.5403,5.5403,5.5403,5.5403,5.5403,5.5403,5.5403,5.5403,5.5409,5.539,5.539,5.5415,5.544,5.544,5.5427,5.5389,5.5224,5.5198,5.5153,5.5007,5.4848,5.4597,5.4052,5.4086,5.4137,5.3795,5.3851,5.3963,5.4035,5.2716,5.1677,5.1487,5.019,4.9191,4.8946,4.9027,4.9027,4.8909,4.9315,4.9558,4.9558,4.9558,4.9665,4.9943,5.0111,5.0272,5.0399,5.0604,5.0702,5.0702,5.0702,5.0702,5.0702,5.0702,5.0702,5.0702,5.0702,5.0702,5.0702,5.0702,5.0702,5.0702,5.0702,5.0702,5.0702,5.0702,5.0702,5.0702,5.7997,5.8213,5.8326,5.8024,5.8326,5.871,5.8969,5.9233,5.9571,6.0129,6.0313,6.0389,6.0389,6.0389,6.0389,6.0389,6.0389,6.0389,6.0389,5.9816,5.9109,5.8288,5.7447,5.6606,5.5766,5.5517,5.5403,5.5403,5.5403,5.5403,5.5403,5.5403,5.5403,5.5403,5.5403,5.5403,5.5403,5.5403,5.5403,5.5403,5.5403,5.5403,5.5403,5.5403,5.5403,5.5403,5.5403,5.5403,5.5403,5.5403,5.5403,5.5403,5.5403,5.5403,5.5403,5.5403,5.5403,5.5403,5.5403,5.5332,5.5214,5.5214,5.5149,5.5009,5.4817,5.4769,5.4689,5.434,5.4288,5.4171,5.3757,5.3738,5.3738,5.3481,5.3558,5.3524,5.3207,5.2007,5.1083,5.0935,4.9639,4.8822,4.8909,4.8909,4.8909,4.8909,4.9127,4.9257,4.9257,4.9257,4.9377,4.9665,4.9857,5.0038,5.0206,5.0442,5.0604,5.0702,5.0702,5.0702,5.0702,5.0702,5.0702,5.0702,5.0702,5.0702,5.0702,5.0702,5.0702,5.0702,5.0702,5.0702,5.0702,5.0702,5.0702,5.0702,5.7997,5.7997,5.7997,5.7997,5.8326,5.8586,5.8586,5.927,5.9791,5.9809,6.0159,6.0389,6.0389,6.0389,6.0389,6.0389,6.0389,6.0389,6.0389,6.0389,5.9988,5.9128,5.8307,5.7485,5.6587,5.5804,5.5403,5.5403,5.5403,5.5403,5.5403,5.5403,5.5403,5.5403,5.5403,5.5403,5.5403,5.5403,5.5403,5.5403,5.5403,5.5403,5.5403,5.5403,5.5403,5.5403,5.5403,5.5403,5.5403,5.5403,5.5403,5.5403,5.5403,5.5403,5.5403,5.5403,5.5403,5.5403,5.5403,5.5113,5.4806,5.4806,5.456,5.433,5.4378,5.4364,5.4193,5.3777,5.3758,5.3701,5.3254,5.3254,5.3318,5.33,5.34,5.3244,5.2508,5.1636,5.0879,5.0266,4.9377,4.8822,4.8909,4.8909,4.8909,4.8909,4.8909,4.8909,4.8909,4.8909,4.9061,4.9396,4.9415,4.9655,5.0206,5.0206,5.0358,5.0702,5.0702,5.0702,5.0702,5.0702,5.0702,5.0702,5.0702,5.0702,5.0702,5.0702,5.0702,5.0702,5.0702,5.0702,5.0702,5.0702,5.0702,5.0702,5.7997,5.7997,5.7997,5.7997,5.8115,5.8301,5.8563,5.8812,5.9084,5.9361,5.9502,5.9692,5.9956,6.0237,6.0389,6.0389,6.0389,6.0389,6.0389,6.0389,6.0007,5.9147,5.8326,5.7485,5.6606,5.5804,5.5403,5.5403,5.5403,5.5403,5.5403,5.5403,5.526,5.499,5.5286,5.526,5.5009,5.5286,5.5403,5.5403,5.5403,5.5403,5.5403,5.5403,5.5403,5.5403,5.5403,5.5403,5.5403,5.5403,5.5403,5.5403,5.5403,5.5403,5.5403,5.5403,5.5403,5.5332,5.5066,5.4884,5.4746,5.4528,5.4364,5.4228,5.3997,5.3738,5.3521,5.3378,5.3359,5.3359,5.3206,5.3206,5.323,5.323,5.3295,5.3083,5.225,5.1461,5.0689,4.9954,4.9104,4.8642,4.8822,4.8822,4.8839,4.8909,4.8909,4.8909,4.8909,4.8909,4.8925,4.9061,4.9289,4.9488,4.9655,4.983,4.9987,5.0081,5.0272,5.0483,5.0702,5.0702,5.0702,5.0702,5.0702,5.0702,5.0702,5.0702,5.0702,5.0702,5.0702,5.0702,5.0702,5.0702,5.0702,5.0702,5.7997,5.7997,5.7997,5.7997,5.7997,5.807,5.8326,5.8521,5.871,5.893,5.9103,5.9289,5.9537,5.9791,6.0049,6.0389,6.0389,6.0389,6.0389,6.0389,6.016,5.9606,5.8498,5.7565,5.6863,5.5758,5.5113,5.5,5.5,5.5,5.5,5.5,5.4844,5.4623,5.4874,5.4844,5.4623,5.4874,5.5,5.5,5.5113,5.5168,5.5187,5.5332,5.5403,5.5403,5.5403,5.5403,5.5403,5.5403,5.5305,5.5168,5.5168,5.5085,5.5028,5.5159,5.5168,5.5085,5.4716,5.4509,5.4345,5.4123,5.3999,5.3833,5.3563,5.3336,5.3206,5.3206,5.3206,5.3206,5.3206,5.3206,5.3206,5.3206,5.323,5.2867,5.1724,5.1158,5.0462,4.9398,4.8807,4.8569,4.8697,4.8787,4.8822,4.8839,4.8874,4.8909,4.8909,4.8909,4.8909,4.8909,4.9094,4.927,4.9415,4.9588,4.9693,4.9784,5.0068,5.0294,5.0523,5.0624,5.0702,5.0702,5.0702,5.0702,5.0702,5.0702,5.0702,5.0702,5.0702,5.0702,5.0702,5.0702,5.0702,5.0702,5.7997,5.7997,5.7997,5.7997,5.7997,5.7997,5.7997,5.8344,5.8563,5.8563,5.8891,5.914,5.9178,5.9178,5.9467,6.0237,6.0342,6.0361,6.0361,6.0389,6.0389,6.0389,5.8757,5.7663,5.732,5.5629,5.4623,5.4315,5.4315,5.4315,5.4315,5.4315,5.4281,5.4262,5.4281,5.4262,5.4262,5.4281,5.4315,5.4349,5.4654,5.4776,5.4825,5.5187,5.5332,5.5332,5.5332,5.5332,5.5332,5.5332,5.5066,5.4776,5.4776,5.456,5.4364,5.4685,5.4776,5.4685,5.4364,5.398,5.3682,5.3682,5.3422,5.3206,5.3206,5.3206,5.3206,5.3206,5.3206,5.3206,5.3206,5.3206,5.3206,5.3206,5.317,5.2582,5.1106,5.0769,5.0184,4.8753,4.8513,4.8532,4.8605,4.8697,4.8787,4.8787,4.8839,4.8909,4.8909,4.8909,4.8909,4.8909,4.8909,4.9061,4.9352,4.9384,4.9499,4.9776,5.0038,5.0159,5.0183,5.0483,5.0643,5.0643,5.0663,5.0663,5.0663,5.0683,5.0702,5.0702,5.0702,5.0702,5.0702,5.0663,5.0683,5.0702,5.7997,5.7997,5.7997,5.7997,5.7997,5.7997,5.7997,5.807,5.8142,5.8142,5.8213,5.8412,5.871,5.875,5.893,5.9432,5.9758,5.9937,5.9937,6.0237,6.0389,6.0389,5.851,5.74,5.7301,5.5409,5.4364,5.4315,5.4315,5.4315,5.4315,5.4315,5.4123,5.387,5.4158,5.4123,5.387,5.4158,5.4315,5.4315,5.4397,5.443,5.443,5.4514,5.4546,5.4546,5.4546,5.4546,5.4546,5.4546,5.4514,5.443,5.443,5.4364,5.4315,5.4416,5.443,5.433,5.3944,5.3795,5.3662,5.3359,5.3272,5.3206,5.3206,5.3206,5.3206,5.3206,5.3206,5.3206,5.3206,5.3206,5.3206,5.3206,5.2692,5.1922,5.0971,5.0251,4.952,4.8511,4.8344,4.8401,4.8532,4.8532,4.8606,4.8642,4.8768,4.8822,4.8822,4.8874,4.8909,4.8909,4.8909,4.8943,4.9027,4.9027,4.9174,4.9518,4.9558,4.9712,4.991,4.9987,5.0012,5.0012,5.0225,5.0317,5.0336,5.0585,5.0702,5.0702,5.0702,5.0702,5.0663,5.0421,5.0483,5.0663,5.7997,5.7997,5.7997,5.7997,5.7997,5.7997,5.7997,5.7997,5.7997,5.7997,5.7997,5.807,5.8282,5.8344,5.8412,5.8646,5.9196,5.9537,5.9537,5.9725,5.9842,5.9842,5.8032,5.696,5.6807,5.4982,5.3944,5.3795,5.3795,5.3795,5.3795,5.3795,5.368,5.3502,5.368,5.368,5.3502,5.3719,5.3795,5.3795,5.3944,5.4016,5.4052,5.4228,5.4315,5.4315,5.4315,5.4315,5.4315,5.4315,5.4158,5.4016,5.4016,5.3926,5.3795,5.3795,5.3926,5.3944,5.3563,5.3462,5.3422,5.3248,5.3206,5.3206,5.3206,5.3206,5.3206,5.3206,5.3206,5.3206,5.3206,5.3206,5.3206,5.3206,5.2527,5.172,5.0912,5.0105,4.926,4.8398,4.8306,4.8306,4.8401,4.8457,4.8532,4.855,4.866,4.8697,4.8697,4.8804,4.8874,4.8909,4.8909,4.8909,4.8909,4.8909,4.8993,4.9193,4.9321,4.9488,4.9627,4.9749,4.9803,4.9811,5.0068,5.0135,5.0038,5.0336,5.0399,5.0291,5.0291,5.0291,5.0268,5.0087,5.0111,5.0268,5.7997,5.7997,5.7997,5.7997,5.7997,5.7997,5.7997,5.7997,5.7997,5.7997,5.7997,5.7997,5.7997,5.7997,5.7997,5.7997,5.8646,5.9046,5.9103,5.9178,5.9215,5.9215,5.7547,5.6482,5.623,5.4496,5.3502,5.3206,5.3206,5.3206,5.3206,5.3206,5.3206,5.3206,5.3206,5.3206,5.3206,5.3206,5.3206,5.3206,5.3524,5.3623,5.3662,5.398,5.4123,5.4123,5.4123,5.4123,5.4123,5.4123,5.3907,5.3623,5.3623,5.3422,5.3206,5.3206,5.34,5.3545,5.3272,5.3206,5.3206,5.3206,5.3206,5.3206,5.3206,5.3206,5.3206,5.3206,5.3206,5.3206,5.3206,5.3206,5.317,5.3041,5.2344,5.1536,5.0729,4.9903,4.9132,4.8398,4.8306,4.8306,4.8306,4.8401,4.8457,4.8457,4.855,4.8587,4.8587,4.8697,4.8822,4.8874,4.8909,4.8909,4.8909,4.8909,4.8909,4.8909,4.9193,4.9302,4.9334,4.9569,4.9646,4.9674,4.9943,4.9962,4.9749,5.0038,5.0012,4.9803,4.9803,4.9803,4.9803,4.9749,4.9776,4.9784,5.7997,5.7997,5.7997,5.7997,5.7997,5.7997,5.7997,5.7997,5.7997,5.7997,5.7997,5.7997,5.7997,5.7997,5.7997,5.7997,5.8115,5.8344,5.8669,5.9008,5.9215,5.9215,5.7341,5.6251,5.619,5.4271,5.323,5.3206,5.3206,5.3206,5.3206,5.3206,5.3206,5.3206,5.3206,5.3206,5.3206,5.3206,5.3206,5.3206,5.3272,5.3272,5.3272,5.3355,5.3378,5.3378,5.3378,5.3378,5.3378,5.3378,5.3355,5.3272,5.3272,5.323,5.3206,5.3206,5.3248,5.3272,5.3206,5.3206,5.3206,5.3206,5.3206,5.3206,5.3206,5.3206,5.3206,5.3206,5.3206,5.3206,5.3206,5.3206,5.2986,5.2289,5.1499,5.071,4.9884,4.904,4.8453,4.8324,4.8306,4.8306,4.8306,4.8306,4.8306,4.8306,4.8457,4.8532,4.8532,4.8569,4.8697,4.8822,4.8874,4.8909,4.8909,4.8909,4.8909,4.8909,4.8959,4.8978,4.8959,4.9008,4.9042,4.9075,4.9377,4.9499,4.9469,4.9749,4.9857,4.9803,4.9803,4.9803,4.9776,4.9558,4.9598,4.973,5.7997,5.7997,5.7997,5.7997,5.7997,5.7997,5.7997,5.7997,5.7997,5.7997,5.7997,5.7997,5.7997,5.7997,5.7997,5.7997,5.7997,5.807,5.8257,5.8455,5.8563,5.8563,5.6816,5.5475,5.4607,5.3658,5.3206,5.3206,5.3206,5.3206,5.3206,5.3206,5.3206,5.3206,5.3206,5.3206,5.3206,5.3206,5.3206,5.3206,5.3206,5.3206,5.3206,5.3206,5.3206,5.3206,5.3206,5.3206,5.3206,5.3206,5.3206,5.3206,5.3206,5.3206,5.3206,5.3206,5.3206,5.3206,5.3206,5.3206,5.3206,5.3206,5.3206,5.3206,5.3206,5.3206,5.3206,5.3206,5.3206,5.3206,5.3206,5.2858,5.2435,5.205,5.0949,5.0013,4.9627,4.8838,4.8306,4.8306,4.8306,4.8306,4.8306,4.8306,4.8306,4.8306,4.8363,4.8401,4.8401,4.8476,4.8587,4.8697,4.8839,4.8909,4.8909,4.8909,4.8909,4.8909,4.8909,4.8909,4.8909,4.8909,4.8909,4.8909,4.9239,4.9289,4.9141,4.9469,4.948,4.9327,4.9327,4.9296,4.9252,4.9127,4.9123,4.9132,5.7997,5.7997,5.7997,5.7997,5.7997,5.7997,5.7997,5.7997,5.7997,5.7997,5.7997,5.7997,5.7997,5.7997,5.7997,5.7997,5.7997,5.7997,5.7997,5.7997,5.7923,5.7721,5.618,5.4656,5.3243,5.3206,5.3206,5.3206,5.3206,5.3206,5.3206,5.3206,5.3206,5.3206,5.3206,5.3206,5.3206,5.3206,5.3206,5.3206,5.3206,5.3206,5.3206,5.3206,5.3206,5.3206,5.3206,5.3206,5.3206,5.3206,5.3206,5.3206,5.3206,5.3206,5.3206,5.3206,5.3206,5.3206,5.3206,5.3206,5.3206,5.3206,5.3206,5.3206,5.3206,5.3206,5.3206,5.3206,5.3206,5.3206,5.3206,5.2443,5.176,5.1577,5.035,4.9362,4.9179,4.8632,4.8306,4.8306,4.8306,4.8306,4.8306,4.8306,4.8306,4.8306,4.8306,4.8306,4.8306,4.8401,4.8513,4.8587,4.8785,4.8909,4.8874,4.8874,4.8874,4.8874,4.8874,4.8874,4.8909,4.8909,4.8909,4.889,4.916,4.9127,4.8909,4.916,4.9094,4.882,4.882,4.8804,4.8732,4.8732,4.8697,4.8587,5.7997,5.7997,5.7997,5.7997,5.7997,5.7997,5.7997,5.7997,5.7997,5.7997,5.7997,5.7997,5.7997,5.7997,5.7997,5.7997,5.7997,5.7997,5.7997,5.7997,5.7666,5.6932,5.5354,5.4087,5.3225,5.3206,5.3206,5.3206,5.3206,5.3206,5.3206,5.3206,5.3206,5.3206,5.3206,5.3206,5.3206,5.3206,5.3206,5.3206,5.3206,5.3206,5.3206,5.3206,5.3206,5.3206,5.3206,5.3206,5.3206,5.3206,5.3206,5.3206,5.3206,5.3206,5.3206,5.3206,5.3206,5.3206,5.3206,5.3206,5.3206,5.3206,5.3206,5.3206,5.3206,5.3206,5.3206,5.3206,5.3206,5.3206,5.3206,5.2131,5.1012,5.0268,4.9434,4.8593,4.7832,4.8072,4.8306,4.8306,4.8306,4.8306,4.8306,4.8306,4.8306,4.8306,4.8306,4.8306,4.8306,4.8306,4.842,4.8587,4.8785,4.8874,4.8822,4.8822,4.8822,4.8822,4.8822,4.8857,4.8909,4.8909,4.8909,4.8909,4.8943,4.8874,4.8822,4.8822,4.8768,4.8623,4.8623,4.8623,4.8623,4.8623,4.8587,4.8587,5.7904,5.795,5.7997,5.7997,5.7997,5.7997,5.7997,5.7997,5.7997,5.7997,5.7997,5.7997,5.7997,5.7997,5.7997,5.7997,5.7997,5.7997,5.7997,5.7538,5.6895,5.6088,5.4987,5.4014,5.3225,5.3206,5.3206,5.3206,5.3206,5.3206,5.3206,5.3206,5.3206,5.3206,5.3206,5.3206,5.3206,5.3206,5.3206,5.3206,5.3206,5.3206,5.3206,5.3206,5.3206,5.3206,5.3206,5.3206,5.3206,5.3206,5.3206,5.3206,5.3206,5.3206,5.3206,5.3206,5.3206,5.3206,5.3206,5.3206,5.3206,5.3206,5.3206,5.3206,5.3206,5.3206,5.3206,5.3206,5.293,5.2553,5.2025,5.0868,4.9736,4.8946,4.8174,4.7501,4.7214,4.7335,4.7567,4.7816,4.7856,4.7995,4.8267,4.8035,4.7995,4.8267,4.8035,4.7995,4.8267,4.8363,4.8457,4.8532,4.8642,4.875,4.8874,4.8822,4.8822,4.8874,4.8874,4.8874,4.8909,4.8909,4.8874,4.8857,4.8857,4.8768,4.8697,4.8697,4.8642,4.8587,4.8587,4.8569,4.855,4.855,4.8476,4.8346,5.7166,5.7449,5.766,5.766,5.7839,5.7997,5.7997,5.7997,5.7997,5.7997,5.7997,5.7997,5.7997,5.7997,5.7997,5.7997,5.7997,5.7997,5.7997,5.7005,5.6051,5.5244,5.4454,5.3775,5.3225,5.3206,5.3206,5.3206,5.3206,5.3206,5.3206,5.3206,5.3206,5.3206,5.3206,5.3206,5.3206,5.3206,5.3206,5.3206,5.3206,5.3206,5.3206,5.3206,5.3206,5.3206,5.3206,5.3206,5.3206,5.3206,5.3206,5.3206,5.3206,5.3206,5.3206,5.3206,5.3206,5.3206,5.3206,5.3206,5.3206,5.3206,5.3206,5.3206,5.3206,5.3206,5.3164,5.2955,5.2453,5.18,5.1084,4.9692,4.8453,4.7968,4.7193,4.6678,4.6678,4.6817,4.7044,4.7335,4.7378,4.7506,4.7834,4.7548,4.7506,4.7834,4.7692,4.7816,4.8267,4.8401,4.8457,4.8513,4.8495,4.8587,4.8785,4.8768,4.8768,4.882,4.882,4.8839,4.8874,4.882,4.8785,4.8732,4.8732,4.866,4.8569,4.8569,4.8532,4.8514,4.8514,4.8458,4.8457,4.8457,4.8363,4.8196,5.5836,5.6313,5.6912,5.6912,5.7498,5.7997,5.7997,5.7997,5.7997,5.7997,5.7997,5.7997,5.7997,5.7997,5.7997,5.7997,5.7997,5.7997,5.7978,5.6473,5.5225,5.4436,5.3628,5.3206,5.3206,5.3206,5.3206,5.3206,5.3206,5.3206,5.3206,5.3206,5.3206,5.3206,5.3206,5.3206,5.3206,5.3206,5.3206,5.3206,5.3206,5.3206,5.3206,5.3206,5.3206,5.3206,5.3206,5.3206,5.3206,5.3206,5.3206,5.3206,5.3206,5.3206,5.3206,5.3206,5.3206,5.3206,5.3206,5.3206,5.3206,5.3206,5.3206,5.3206,5.3206,5.3206,5.306,5.2499,5.1737,5.1022,5.0467,4.8749,4.7395,4.7395,4.6695,4.6186,4.6186,4.6584,4.6908,4.6908,4.6908,4.6908,4.6908,4.6908,4.6908,4.6908,4.7335,4.7816,4.8267,4.8306,4.8363,4.8494,4.8363,4.842,4.8587,4.8587,4.8587,4.8587,4.8587,4.8678,4.8787,4.8642,4.8587,4.8587,4.8587,4.8569,4.8513,4.8513,4.8419,4.8306,4.8306,4.8306,4.8306,4.8306,4.8306,4.8196,5.5627,5.5836,5.6077,5.6077,5.6721,5.7234,5.7234,5.7679,5.7997,5.7997,5.7997,5.7997,5.7997,5.7997,5.7997,5.7997,5.7997,5.7519,5.6381,5.5335,5.4399,5.3592,5.3335,5.3206,5.3206,5.3206,5.3206,5.3206,5.3206,5.3206,5.3206,5.3206,5.3206,5.3206,5.3206,5.3206,5.3206,5.3206,5.3206,5.3206,5.3206,5.3206,5.3206,5.3206,5.3206,5.3206,5.3206,5.3206,5.3206,5.3206,5.3206,5.3206,5.3206,5.3206,5.3206,5.3206,5.3206,5.3206,5.3206,5.3206,5.3206,5.3206,5.3206,5.3206,5.3206,5.2912,5.2445,5.171,5.0761,4.972,4.8508,4.7525,4.6655,4.61,4.5823,4.5667,4.5667,4.5752,4.5988,4.6363,4.6411,4.6554,4.6863,4.6584,4.6554,4.6863,4.7335,4.7674,4.7816,4.8132,4.8306,4.8363,4.8306,4.8344,4.8382,4.8476,4.855,4.8587,4.8587,4.8623,4.8642,4.8623,4.8569,4.8532,4.8532,4.8476,4.8363,4.8363,4.8363,4.8306,4.8306,4.8306,4.8306,4.8306,4.7957,4.7352,5.473,5.4999,5.5262,5.5262,5.591,5.6492,5.6809,5.7184,5.7565,5.7886,5.7904,5.795,5.7997,5.7997,5.7997,5.7997,5.7703,5.684,5.5225,5.4675,5.4051,5.3243,5.3206,5.3206,5.3206,5.3206,5.3206,5.3206,5.3206,5.3206,5.3206,5.3206,5.3206,5.3206,5.3206,5.3206,5.3206,5.3206,5.3206,5.3206,5.3206,5.3206,5.3206,5.3206,5.3206,5.3206,5.3206,5.3206,5.3206,5.3206,5.3206,5.3206,5.3206,5.3206,5.3206,5.3206,5.3206,5.3164,5.2955,5.2868,5.2806,5.2608,5.2717,5.2868,5.2868,5.22,5.143,5.0737,4.9561,4.8381,4.7299,4.6533,4.5992,4.551,4.5423,4.5423,4.5423,4.5423,4.5511,4.5854,4.5905,4.5988,4.6266,4.6038,4.6087,4.6602,4.689,4.7204,4.7591,4.7856,4.8132,4.8306,4.8306,4.8306,4.8306,4.8363,4.8476,4.855,4.855,4.855,4.855,4.8495,4.8458,4.8419,4.8419,4.8363,4.8306,4.8306,4.8306,4.8306,4.8306,4.8306,4.8269,4.7957,4.7333,4.6471,5.3618,5.4042,5.4482,5.4482,5.5102,5.578,5.6421,5.6599,5.6861,5.7631,5.7697,5.7792,5.795,5.7997,5.796,5.7905,5.7097,5.5959,5.4509,5.4326,5.3977,5.3243,5.3206,5.3206,5.3206,5.3206,5.3206,5.3206,5.3206,5.3206,5.3206,5.3206,5.3206,5.3206,5.3206,5.3206,5.3206,5.3206,5.3206,5.3206,5.3206,5.3206,5.3206,5.3206,5.3206,5.3206,5.3206,5.3206,5.3206,5.3206,5.3206,5.3206,5.3206,5.3206,5.3206,5.3164,5.3121,5.3017,5.2454,5.2315,5.2203,5.1719,5.1861,5.2141,5.2206,5.1215,5.0154,4.9521,4.831,4.7159,4.6617,4.5906,4.5423,4.5423,4.5423,4.5423,4.5423,4.5423,4.5423,4.5423,4.5423,4.5423,4.5423,4.5423,4.5615,4.6087,4.6186,4.6584,4.7421,4.7548,4.7816,4.821,4.8267,4.8306,4.8306,4.8306,4.8363,4.8457,4.8457,4.8457,4.8457,4.8363,4.8306,4.8306,4.8306,4.8306,4.8306,4.8306,4.8306,4.8306,4.8306,4.8214,4.8012,4.7278,4.6397,4.5351,5.3501,5.3618,5.3717,5.3717,5.4328,5.4878,5.5059,5.557,5.615,5.6861,5.7033,5.7302,5.7792,5.795,5.7758,5.7134,5.5757,5.4766,5.4418,5.3812,5.339,5.3225,5.3206,5.3206,5.3206,5.3206,5.3206,5.3206,5.3206,5.3206,5.3206,5.3206,5.3206,5.3206,5.3206,5.3206,5.3206,5.3206,5.3206,5.3206,5.3206,5.3206,5.3206,5.3206,5.3206,5.3206,5.3206,5.3206,5.3206,5.3206,5.3206,5.3206,5.3206,5.3206,5.3121,5.2717,5.2563,5.2454,5.1915,5.175,5.1768,5.1601,5.0886,5.0305,5.0753,5.0264,4.9414,4.8133,4.73,4.6567,4.5803,4.5544,4.5423,4.5423,4.5423,4.5423,4.5423,4.5423,4.5423,4.5423,4.5423,4.5423,4.5423,4.5423,4.5476,4.5563,4.5938,4.6284,4.6489,4.7186,4.7632,4.7775,4.8132,4.8306,4.8306,4.8306,4.8306,4.8344,4.8344,4.8344,4.8363,4.8306,4.8306,4.8306,4.8306,4.8306,4.8306,4.8306,4.8306,4.8306,4.8306,4.7535,4.6397,4.6214,4.4856,4.2855,5.3501,5.3501,5.3501,5.3501,5.3832,5.4154,5.4437,5.4818,5.5338,5.6057,5.6222,5.6385,5.6755,5.6566,5.593,5.4773,5.4215,5.3763,5.3344,5.3175,5.3146,5.3206,5.3206,5.3206,5.3206,5.3206,5.3206,5.3206,5.3206,5.3206,5.3206,5.3206,5.3206,5.3206,5.3206,5.3206,5.3206,5.3206,5.3206,5.3206,5.3206,5.3206,5.3206,5.3206,5.3206,5.3206,5.3206,5.3206,5.3206,5.3206,5.3017,5.2806,5.2806,5.2654,5.2361,5.2108,5.2012,5.1915,5.1347,5.121,5.1069,5.0435,4.9728,4.936,4.9904,4.9047,4.7926,4.7195,4.6499,4.5924,4.551,4.5423,4.5423,4.5423,4.5423,4.5423,4.5423,4.5423,4.5423,4.5423,4.5423,4.5423,4.5423,4.5423,4.5423,4.5423,4.5667,4.5955,4.6186,4.6678,4.716,4.7591,4.7856,4.8075,4.8306,4.8306,4.8306,4.8306,4.8306,4.8306,4.8306,4.8306,4.8306,4.8306,4.8306,4.8306,4.8306,4.8306,4.8086,4.77,4.7297,4.6416,4.5241,4.447,4.2892,4.0983,5.3501,5.3501,5.3501,5.3501,5.3501,5.3668,5.4171,5.4218,5.4499,5.5238,5.5338,5.5402,5.5472,5.4697,5.3689,5.2431,5.2752,5.2726,5.2119,5.2572,5.2955,5.3164,5.3164,5.3164,5.3206,5.3206,5.3206,5.3206,5.3206,5.3206,5.3206,5.3206,5.3206,5.3206,5.3206,5.3206,5.3206,5.3206,5.3206,5.3206,5.3206,5.3206,5.3206,5.3206,5.3206,5.3206,5.3206,5.3164,5.306,5.2974,5.2608,5.225,5.225,5.1964,5.1551,5.1518,5.1449,5.1365,5.0803,5.0552,5.0198,4.9089,4.8631,4.8536,4.8976,4.7785,4.6562,4.6424,4.5872,4.5423,4.5423,4.5423,4.5423,4.5423,4.5423,4.5423,4.5423,4.5423,4.5423,4.5423,4.5423,4.5423,4.5423,4.5423,4.5423,4.5423,4.5423,4.5615,4.6038,4.6137,4.6537,4.7335,4.7506,4.7733,4.8053,4.8132,4.8132,4.8035,4.8035,4.8132,4.8306,4.8306,4.8306,4.8306,4.8306,4.8233,4.8104,4.8104,4.7553,4.6636,4.5957,4.5039,4.3901,4.2286,4.0836,3.9588,5.3501,5.3501,5.3501,5.3501,5.3501,5.3501,5.3618,5.3618,5.3832,5.4454,5.4651,5.4677,5.4578,5.3386,5.2555,5.2343,5.1757,5.1586,5.1976,5.209,5.2408,5.2999,5.3042,5.3103,5.3206,5.3206,5.3206,5.3206,5.3206,5.3206,5.3206,5.3206,5.3206,5.3206,5.3206,5.3206,5.3206,5.3206,5.3206,5.3206,5.3206,5.3206,5.3206,5.3206,5.3206,5.3206,5.3206,5.2912,5.2472,5.1964,5.1768,5.1719,5.1719,5.1669,5.1518,5.1052,5.091,5.0803,5.0246,4.9608,4.9054,4.8855,4.7855,4.6906,4.6998,4.6805,4.6406,4.5734,4.551,4.5423,4.5423,4.5423,4.5423,4.5423,4.5423,4.5423,4.5423,4.5423,4.5423,4.5423,4.5423,4.5423,4.5423,4.5423,4.5423,4.5423,4.5423,4.5423,4.5511,4.5955,4.6284,4.6411,4.7204,4.7421,4.7089,4.7506,4.7506,4.7089,4.7089,4.7506,4.8306,4.8306,4.8306,4.8306,4.8306,4.7921,4.7278,4.7278,4.6397,4.5021,4.4911,4.3534,4.1405,3.979,3.9056,3.8854,5.3501,5.3501,5.3501,5.3501,5.3501,5.3501,5.3501,5.3501,5.3448,5.3284,5.3263,5.3146,5.2666,5.181,5.1055,5.0489,5.0523,5.0643,5.0894,5.1173,5.1714,5.2408,5.2454,5.2608,5.2955,5.306,5.3103,5.3103,5.3164,5.3206,5.3206,5.3206,5.3206,5.3206,5.3206,5.3206,5.3206,5.3206,5.3206,5.3206,5.3206,5.3017,5.2761,5.2761,5.2563,5.2315,5.2315,5.2155,5.1915,5.1651,5.1416,5.1158,5.1158,5.0964,5.0657,5.0397,5.0359,5.0198,4.9516,4.9097,4.8614,4.7786,4.7096,4.6493,4.6044,4.5941,4.5855,4.5492,4.5423,4.5423,4.5423,4.5423,4.5423,4.5423,4.5423,4.5423,4.5423,4.5423,4.5423,4.5423,4.5423,4.5423,4.5423,4.5423,4.5423,4.5423,4.5423,4.5423,4.5423,4.5615,4.5905,4.6186,4.6584,4.6845,4.6908,4.7115,4.7115,4.6908,4.6908,4.7248,4.7897,4.7897,4.8035,4.8269,4.7829,4.7443,4.7095,4.6636,4.548,4.3993,4.3534,4.1882,3.968,3.8964,3.8982,3.9368]},{"header":{"parameterUnit":"m.s-1","parameterCategory":1,"la1":30.6,"la2":28.766,"lo1":-90.7593,"lo2":-88.6598,"dy":0.0162,"dx":0.0183,"nx":116,"ny":114,"refTime":"2023-10-02T12:00:00:Z","depth":0,"parameterNumber":3,"parameterNumberName":"V-component_of_WINDS"},"data":[0.0,0.0,0.0,0.0,0.0,0.0,0.0,0.0,0.0,0.0,0.0,0.0,0.0,0.0,0.0,0.0,0.0,0.0,0.0,0.0,0.0,0.0,0.0,0.0,0.0,0.0,0.0,0.0,0.0,0.0,0.0,0.0,0.0,0.0,0.0,0.0,0.0,0.0,0.0,0.0,0.0,0.0,0.0,0.0,0.0,0.0,0.0,0.0,0.0,0.0,0.0,0.0,0.0,0.0,0.0,0.0,0.0,0.0,0.0,0.0,0.0,0.0,0.0,0.0,0.0,0.0,0.0,0.0,0.0,0.0,0.0,0.0,0.0,0.0,0.0,0.0,0.0,0.0,0.0,0.0,0.0,0.0,0.0,0.0,0.0,0.0,0.0,0.0,0.0,0.0,0.0,0.0,0.0,0.0,0.0,0.0,0.0,0.0,0.0,0.0,0.0,0.0,0.0,0.0,0.0,0.0,0.0,0.0,0.0,0.0,0.0,0.0,0.0,0.0,0.0,0.0,0.0,0.0,0.0,0.0,0.0,0.0,0.0,0.0,0.0,0.0,0.0,0.0,0.0,0.0,0.0,0.0,0.0,0.0,0.0,0.0,0.0,0.0,0.0,0.0,0.0,0.0,0.0,0.0,0.0,0.0,0.0,0.0,0.0,0.0,0.0,0.0,0.0,0.0,0.0,0.0,0.0,0.0,0.0,0.0,0.0,0.0,0.0,0.0,0.0,0.0,0.0,0.0,0.0,0.0,0.0,0.0,0.0,0.0,0.0,0.0,0.0,0.0,0.0,0.0,0.0,0.0,0.0,0.0,0.0,0.0,0.0,0.0,0.0,0.0,0.0,0.0,0.0,0.0,0.0,0.0,0.0,0.0,0.0,0.0,0.0,0.0,0.0,0.0,0.0,0.0,0.0,0.0,0.0,0.0,0.0,0.0,0.0,0.0,0.0,0.0,0.0,0.0,0.0,0.0,0.0,0.0,0.0,0.0,0.0,0.0,0.0,0.0,0.0,0.0,0.0,0.0,0.0,0.0,0.0,0.0,0.0,0.0,0.0,0.0,0.0,0.0,0.0,0.0,0.0,0.0,0.0,0.0,0.0,0.0,0.0,0.0,0.0,0.0,0.0,0.0,0.0,0.0,0.0,0.0,0.0,0.0,0.0,0.0,0.0,0.0,0.0,0.0,0.0,0.0,0.0,0.0,0.0,0.0,0.0,0.0,0.0,0.0,0.0,0.0,0.0,0.0,0.0,0.0,0.0,0.0,0.0,0.0,0.0,0.0,0.0,0.0,0.0,0.0,0.0,0.0,0.0,0.0,0.0,0.0,0.0,0.0,0.0,0.0,0.0,0.0,0.0,0.0,0.0,0.0,0.0,0.0,0.0,0.0,0.0,0.0,0.0,0.0,0.0,0.0,0.0,0.0,0.0,0.0,0.0,0.0,0.0,0.0,0.0,0.0,0.0,0.0,0.0,0.0,0.0,0.0,0.0,0.0,0.0,0.0,0.0,0.0,0.0,0.0,0.0,0.0,0.0,0.0,0.0,0.0,0.0,0.0,0.0,0.0,0.0,0.0,0.0,0.0,0.0,0.0,0.0,0.0,0.0,0.0,0.0,0.0,0.0,0.0,0.0,0.0,0.0,0.0,0.0,0.0,0.0,0.0,0.0,0.0,0.0,0.0,0.0,0.0,0.0,0.0,0.0,0.0,0.0,0.0,0.0,0.0,0.0,0.0,0.0,0.0,0.0,0.0,0.0,0.0,0.0,0.0,0.0,0.0,0.0,0.0,0.0,0.0,0.0,0.0,0.0,0.0,0.0,0.0,0.0,0.0,0.0,0.0,0.0,0.0,0.0,0.0,0.0,0.0,0.0,0.0,0.0,0.0,0.0,0.0,0.0,0.0,0.0,0.0,0.0,0.0,0.0,0.0,0.0,0.0,0.0,0.0,0.0,0.0,0.0,0.0,0.0,0.0,0.0,0.0,0.0,0.0,0.0,0.0,0.0,0.0,0.0,0.0,0.0,0.0,0.0,0.0,0.0,0.0,0.0,0.0,0.0,0.0,0.0,0.0,0.0,0.0,0.0,0.0,0.0,0.0,0.0,0.0,0.0,0.0,0.0,0.0,0.0,0.0,0.0,0.0,0.0,0.0,0.0,0.0,0.0,0.0,0.0,0.0,0.0,0.0,0.0,0.0,0.0,0.0,0.0,0.0,0.0,0.0,0.0,0.0,0.0,0.0,0.0,0.0,0.0,0.0,0.0,0.0,0.0,0.0,0.0,0.0,0.0,0.0,0.0,0.0,0.0,0.0,0.0,0.0,0.0,0.0,0.0,0.0,0.0,0.0,0.0,0.0,0.0,0.0,0.0,0.0,0.0,0.0,0.0,0.0,0.0,0.0,0.0,0.0,0.0,0.0,0.0,0.0,0.0,0.0,0.0,0.0,0.0,0.0,0.0,0.0,0.0,0.0,0.0,0.0,0.0,0.0,0.0,0.0,0.0,0.0,0.0,0.0,0.0,0.0,0.0,0.0,0.0,0.0,0.0,0.0,0.0,0.0,0.0,0.0,0.0,0.0,0.0,0.0,0.0,0.0,0.0,0.0,0.0,0.0,0.0,0.0,0.0,0.0,0.0,0.0,0.0,0.0,0.0,0.0,0.0,0.0,0.0,0.0,0.0,0.0,0.0,0.0,0.0,0.0,0.0,0.0,0.0,0.0,0.0,0.0,0.0,0.0,0.0,0.0,0.0,0.0,0.0,0.0,0.0,0.0,0.0,0.0,0.0,0.0,0.0,0.0,0.0,0.0,0.0,0.0,0.0,0.0,0.0,0.0,0.0,0.0,0.0,0.0,0.0,0.0,0.0,0.0,0.0,0.0,0.0,0.0,0.0,0.0,0.0,0.0,0.0,0.0,0.0,0.0,0.0,0.0,0.0,0.0,0.0,0.0,0.0,0.0,0.0,0.0,0.0,0.0,0.0,0.0,0.0,0.0,0.0,0.0,0.0,0.0,0.0,0.0,0.0,0.0,0.0,0.0,0.0,0.0,0.0,0.0,0.0,0.0,0.0,0.0,0.0,0.0,0.0,0.0,0.0,0.0,0.0,0.0,0.0,0.0,0.0,0.0,0.0,0.0,0.0,0.0,0.0,0.0,0.0,0.0,0.0,0.0,0.0,0.0,0.0,0.0,0.0,0.0,0.0,0.0,0.0,0.0,0.0,0.0,0.0,0.0,0.0,0.0,0.0,0.0,0.0,0.0,0.0,0.0,0.0,0.0,0.0,0.0,0.0,0.0,0.0,0.0,0.0,0.0,0.0,0.0,0.0,0.0,0.0,0.0,0.0,0.0,0.0,0.0,0.0,0.0,0.0,0.0,0.0,0.0,0.0,0.0,0.0,0.0,0.0,0.0,0.0,0.0,0.0,0.0,0.0,0.0,0.0,0.0,0.0,0.0,0.0,0.0,0.0,0.0,0.0,0.0,0.0,0.0,0.0,0.0,0.0,0.0,0.0,0.0,0.0,0.0,0.0,0.0,0.0,0.0,0.0,0.0,0.0,0.0,0.0,0.0,0.0,0.0,0.0,0.0,0.0,0.0,0.0,0.0,0.0,0.0,0.0,0.0,0.0,0.0,0.0,0.0,0.0,0.0,0.0,0.0,0.0,0.0,0.0,0.0,0.0,0.0,0.0,0.0,0.0,0.0,0.0,0.0,0.0,0.0,0.0,0.0,0.0,0.0,0.0,0.0,0.0,0.0,0.0,0.0,0.0,0.0,0.0,0.0,0.0,0.0,0.0,0.0,0.0,0.0,0.0,0.0,0.0,0.0,0.0,0.0,0.0,0.0,0.0,0.0,0.0,0.0,0.0,0.0,0.0,0.0,0.0,0.0,0.0,0.0,0.0,0.0,0.0,0.0,0.0,0.0,0.0,0.0,0.0,0.0,0.0,0.0,0.0,0.0,0.0,0.0,0.0,0.0,0.0,0.0,0.0,0.0,0.0,0.0,0.0,0.0,0.0,0.0,0.0,0.0,0.0,0.0,0.0,0.0,0.0,0.0,0.0,0.0,0.0,0.0,0.0,0.0,0.0,0.0,0.0,0.0,0.0,0.0,0.0,0.0,0.0,0.0,0.0,0.0,0.0,0.0,0.0,0.0,0.0,0.0,0.0,0.0,0.0,0.0,0.0,0.0,0.0,0.0,0.0,0.0,0.0,0.0,0.0,0.0,0.0,0.0,0.0,0.0,0.0,0.0,0.0,0.0,0.0,0.0,0.0,0.0,0.0,0.0,0.0,0.0,0.0,0.0,0.0,0.0,0.0,0.0,0.0,0.0,0.0,0.0,0.0,0.0,0.0,0.0,0.0,0.0,0.0,0.0,0.0,0.0,0.0,0.0,0.0,0.0,0.0,0.0,0.0,0.0,0.0,0.0,0.0,0.0,0.0,0.0,0.0,0.0,0.0,0.0,0.0,0.0,0.0,0.0,0.0,0.0,0.0,0.0,0.0,0.0,0.0,0.0,0.0,0.0,0.0,0.0,0.0,0.0,0.0,0.0,0.0,0.0,0.0,0.0,0.0,0.0,0.0,0.0,0.0,0.0,0.0,0.0,0.0,0.0,0.0,0.0,0.0,0.0,0.0,0.0,0.0,0.0,0.0,0.0,0.0,0.0,0.0,0.0,0.0,0.0,0.0,0.0,0.0,0.0,0.0,0.0,0.0,0.0,0.0,0.0,0.0,0.0,0.0,0.0,0.0,0.0,0.0,0.0,0.0,0.0,0.0,0.0,0.0,0.0,0.0,0.0,0.0,0.0,0.0,0.0,0.0,0.0,0.0,0.0,0.0,0.0,0.0,0.0,0.0,0.0,0.0,0.0,0.0,0.0,0.0,0.0,0.0,0.0,0.0,0.0,0.0,0.0,0.0,0.0,0.0,0.0,0.0,0.0,0.0,0.0,0.0,0.0,0.0,0.0,0.0,0.0,0.0,0.0,0.0,0.0,0.0,0.0,0.0,0.0,0.0,0.0,0.0,0.0,0.0,0.0,0.0,0.0,0.0,0.0,0.0,0.0,0.0,0.0,0.0,0.0,0.0,0.0,0.0,0.0,0.0,0.0,0.0,0.0,0.0,0.0,0.0,0.0,0.0,0.0,0.0,0.0,0.0,0.0,0.0,0.0,0.0,0.0,0.0,0.0,0.0,0.0,0.0,0.0,0.0,0.0,0.0,0.0,0.0,0.0,0.0,0.0,0.0,0.0,0.0,0.0,0.0,0.0,0.0,0.0,0.0,0.0,0.0,0.0,0.0,0.0,0.0,0.0,0.0,0.0,0.0,0.0,0.0,0.0,0.0,0.0,0.0,0.0,0.0,0.0,0.0,0.0,0.0,0.0,0.0,0.0,0.0,0.0,0.0,0.0,0.0,0.0,0.0,0.0,0.0,0.0,0.0,0.0,0.0,0.0,0.0,0.0,0.0,0.0,0.0,0.0,0.0,0.0,0.0,0.0,0.0,0.0,0.0,0.0,0.0,0.0,0.0,0.0,0.0,0.0,0.0,0.0,0.0,0.0,0.0,0.0,0.0,0.0,0.0,0.0,0.0,0.0,0.0,0.0,0.0,0.0,0.0,0.0,0.0,0.0,0.0,0.0,0.0,0.0,0.0,0.0,0.0,0.0,0.0,0.0,0.0,0.0,0.0,0.0,0.0,0.0,0.0,0.0,0.0,0.0,0.0,0.0,0.0,0.0,0.0,0.0,0.0,0.0,0.0,0.0,0.0,0.0,0.0,0.0,0.0,0.0,0.0,0.0,0.0,0.0,0.0,0.0,0.0,0.0,0.0,0.0,0.0,0.0,0.0,0.0,0.0,0.0,0.0,0.0,0.0,0.0,0.0,0.0,0.0,0.0,0.0,0.0,0.0,0.0,0.0,0.0,0.0,0.0,0.0,0.0,0.0,0.0,0.0,0.0,0.0,0.0,0.0,0.0,0.0,0.0,0.0,0.0,0.0,0.0,0.0,0.0,0.0,0.0,0.0,0.0,0.0,0.0,0.0,0.0,0.0,0.0,0.0,0.0,0.0,0.0,0.0,0.0,0.0,0.0,0.0,0.0,0.0,0.0,-0.3228,-0.3531,0.0,0.0,0.0,0.0,0.0,0.0,0.0,0.0,0.0,0.0,0.0,0.0,0.0,0.0,0.0,0.0,0.0,0.0,0.0,0.0,0.0,0.0,0.0,0.0,0.0,0.0,0.0,0.0,0.0,0.0,0.0,0.0,0.0,0.0,0.0,0.0,0.0,0.0,0.894,0.894,0.894,0.894,0.8605,0.7934,0.0,0.0,0.0,0.0,0.0,0.0,0.0,0.0,0.0,0.0,0.0,0.0,0.0,0.0,0.0,0.0,0.0,0.0,0.0,0.0,0.0,0.0,0.0,0.0,0.0,0.0,0.0,0.0,0.0,0.0,0.0,0.0,0.0,0.0,0.0,0.0,0.0,0.0,0.0,0.0,0.0,0.0,0.0,0.0,0.0,0.0,0.0,0.0,0.0,0.0,0.0,0.0,0.0,0.0,0.0,0.0,0.0,0.0,0.0,0.0,0.0,0.0,0.0,0.0,0.0,0.0,0.0,0.0,0.0,0.0,-0.3052,-0.323,0.0,0.0,0.0,0.0,0.0,0.0,0.0,0.0,0.0,0.0,0.0,0.0,0.0,0.0,0.0,0.0,0.0,0.0,0.0,0.0,0.0,0.0,0.0,0.1795,0.1795,0.1795,0.2019,0.2577,0.0,0.0,0.0,0.0,0.0,0.0,0.0,0.0,0.0,0.0,0.894,0.894,0.894,0.894,0.894,0.8826,0.7823,0.0,0.0,0.0,0.0,0.0,0.0,0.0,0.0,0.0,0.0,0.0,0.0,0.0,0.0,0.0,0.0,0.0,0.0,0.0,0.0,0.0,0.0,0.0,0.0,0.0,0.0,0.0,0.0,0.0,0.0,0.0,0.0,0.0,0.0,0.0,0.0,0.0,0.0,0.0,0.0,0.0,0.0,0.0,0.0,0.0,0.0,0.0,0.0,0.0,0.0,0.0,0.0,0.0,0.0,0.0,0.0,0.0,0.0,0.0,0.0,0.0,0.0,0.0,-0.2084,-0.2521,-0.3199,-0.3305,-0.3413,-0.3407,-0.3307,-0.3262,-0.3262,-0.3262,0.0,0.0,0.0,0.0,0.0,0.0,0.0,0.0,0.0,0.0,0.0,0.0,0.0,0.0,0.0,0.0,0.0,0.0,0.0,0.0,0.0,0.1795,0.1795,0.1795,0.28,0.3914,0.5139,0.0,0.0,0.0,0.0,0.0,0.0,0.894,0.894,0.894,0.894,0.894,0.894,0.894,0.894,0.8937,0.8716,0.8045,0.7041,0.0,0.0,0.0,0.0,0.0,0.0,0.0,0.0,0.0,0.0,0.0,0.0,0.0,0.0,0.0,0.0,0.0,0.0,0.0,0.0,0.0,0.0,0.0,0.0,0.0,0.0,0.0,0.0,0.0,0.0,0.0,0.0,0.0,0.0,0.0,0.0,0.0,0.0,0.0,0.0,0.0,0.1617,0.1516,0.0,0.0,0.0,0.0,0.0,0.0,0.0,0.0,0.0,0.0,0.0,0.0,0.0,-0.0846,-0.074,-0.0846,-0.0953,-0.1061,-0.1805,-0.2233,-0.2345,-0.3092,-0.3413,-0.3412,-0.3395,0.0,-0.3388,-0.3388,0.0,0.0,0.0,0.0,0.0,0.0,0.0,0.0,0.0,0.0,0.0,0.0,0.0,0.0,0.0,0.0,0.0,0.0,0.0,0.0,0.0,0.2353,0.28,0.28,0.3914,0.514,0.6255,0.6816,0.0,0.0,0.0,0.0,0.894,0.894,0.894,0.894,0.894,0.894,0.894,0.894,0.894,0.894,0.894,0.8602,0.8045,0.7376,0.0,0.0,0.0,0.0,0.0,0.0,0.0,0.0,0.0,0.0,0.0,0.0,0.0,0.0,0.0,0.0,0.0,0.0,0.0,0.0,0.0,0.0,0.0,0.0,0.0,0.0,0.0,0.0,0.0,0.0,0.0,0.0,0.0,0.0,0.0,0.0,0.0,0.0,0.0,0.1617,0.1617,0.1617,0.1632,0.1642,0.0,0.0,0.0,0.0,0.0,0.0,0.0,0.0,0.0,-0.0,-0.0,0.0213,0.0639,0.0106,-0.0428,-0.0864,-0.1838,-0.2499,-0.2961,-0.34,-0.3511,-0.3511,-0.3511,-0.3511,-0.3506,-0.344,-0.3413,-0.3413,0.0,0.0,0.0,0.0,-0.3413,-0.3413,0.0,0.0,0.0,0.0,0.0,0.0,0.0,0.0,0.0,0.0,0.0,0.0,0.2241,0.3358,0.4026,0.4026,0.514,0.6144,0.7041,0.7376,0.7934,0.0,0.0,0.894,0.894,0.894,0.894,0.894,0.894,0.894,0.894,0.894,0.894,0.894,0.894,0.894,0.883,0.7934,0.7376,0.693,0.0,0.0,0.0,0.0,0.0,0.0,0.0,0.0,0.0,0.0,0.0,0.0,0.0,0.0,0.0,0.0,0.0,0.0,0.0,0.0,0.0,0.0,0.0,0.0,0.0,0.0,0.0,0.0,0.0,0.0,0.0,0.0,0.0,0.0,0.0,0.0,0.0,0.1635,0.1639,0.1639,0.1659,0.1673,0.0,0.0,0.0,0.0,0.0,0.0,0.0857,0.0858,0.0859,0.0863,0.0863,0.108,0.1727,0.0648,-0.0217,-0.088,-0.2091,-0.2998,-0.361,-0.361,-0.361,-0.361,-0.361,-0.3602,-0.358,-0.3493,-0.3456,-0.3456,-0.3456,-0.3456,-0.3456,-0.3456,-0.3456,-0.3456,0.0,0.0,0.0,0.0,0.0,0.0,0.0,0.0,0.0,0.0,0.0,0.3407,0.3462,0.4582,0.5361,0.5361,0.6369,0.7041,0.7041,0.8156,0.8826,0.894,0.894,0.894,0.894,0.894,0.894,0.894,0.894,0.894,0.894,0.894,0.894,0.894,0.894,0.894,0.8937,0.8826,0.8156,0.7041,0.5808,0.0,0.0,0.0,0.0,0.0,0.0,0.0,0.0,0.0,0.0,0.0,0.0,0.0,0.0,0.0,0.0,0.0,0.0,0.0,0.0,0.0,0.0,0.0,0.0,0.0,0.0,0.0,0.0,0.0,0.0,0.0,0.0,0.0,0.0,0.0,0.0,0.0,0.0,0.1699,0.1701,0.0,0.0,0.0,0.0,0.1704,0.1704,0.1717,0.1746,0.1747,0.1761,0.1789,0.1791,0.1791,0.1791,0.0,-0.0895,-0.0896,-0.2687,-0.3615,-0.3673,-0.3673,-0.3673,-0.3673,-0.3673,-0.364,-0.3587,-0.358,-0.3578,-0.3578,-0.3578,-0.3578,-0.3578,-0.3578,-0.3578,-0.3578,0.0,0.0,0.0,0.0,0.0,0.0,0.0,0.0,0.1673,0.17,0.2699,0.3512,0.3574,0.5363,0.648,0.648,0.7595,0.8269,0.8269,0.8716,0.894,0.894,0.894,0.894,0.894,0.894,0.894,0.894,0.894,0.894,0.894,0.894,0.894,0.894,0.894,0.9051,0.9158,0.8937,0.8605,0.8156,0.6927,0.581,0.0,0.0,0.0,0.0,0.0,0.0,0.0,0.0,0.0,0.0,0.0,0.0,0.0,0.0,0.0,0.0,0.0,0.0,0.0,0.0,0.0,0.0,0.0,0.0,0.0,0.0,0.0,0.0,0.0,0.0,0.0,0.0,0.0,0.0,0.0,0.0,0.0,0.1704,0.1722,0.0,0.1733,0.1751,0.1763,0.1763,0.1763,0.1767,0.1778,0.1779,0.1784,0.1795,0.1814,0.1482,0.0912,-0.0345,-0.1272,-0.1851,-0.3124,-0.3717,-0.3737,-0.3737,-0.3737,-0.3737,-0.3737,-0.3725,-0.3704,-0.3704,-0.3658,-0.3587,-0.3587,-0.3587,-0.3587,-0.3587,-0.3587,-0.3587,0.0,0.0,0.0,0.0,0.0,0.0,0.0,0.0,0.1661,0.1699,0.3116,0.4144,0.4239,0.6258,0.7709,0.7709,0.8491,0.894,0.894,0.894,0.894,0.894,0.894,0.894,0.894,0.894,0.894,0.894,0.894,0.894,0.894,0.9051,0.9051,0.9051,0.9158,0.9379,0.9489,0.9158,0.9158,0.9047,0.7817,0.6813,0.6031,0.0,0.0,0.0,0.0,0.0,0.0,0.0,0.0,0.0,0.0,0.0,0.0,0.0,0.0,0.0,0.0,0.0,0.0,0.0,0.0,0.0,0.0,0.0,0.0,0.0,0.0,0.0,0.0,0.0,0.0,0.0,0.0,0.0,0.0,0.1728,0.1735,0.1735,0.1752,0.1765,0.1765,0.1783,0.1795,0.1795,0.1804,0.181,0.181,0.182,0.1825,0.1825,0.1845,0.1508,0.0927,0.0,-0.0941,-0.1882,-0.2825,-0.3424,-0.38,-0.38,-0.38,-0.38,-0.38,-0.3788,-0.377,-0.377,-0.3722,-0.3649,-0.3649,-0.3649,-0.3649,-0.3649,-0.3649,-0.3649,0.0,0.0,0.0,0.0,0.0,0.0,0.0,0.1617,0.1637,0.1695,0.3825,0.5272,0.5339,0.7482,0.894,0.894,0.894,0.894,0.894,0.894,0.894,0.894,0.894,0.894,0.894,0.894,0.894,0.894,0.894,0.894,0.894,0.9268,0.9379,0.9379,0.9706,0.9816,0.9816,0.9489,0.9599,0.9702,0.8257,0.7593,0.7479,0.0,0.0,0.0,0.0,0.0,0.0,0.0,0.0,0.0,0.0,0.0,0.0,0.0,0.0,0.0,0.0,0.0,0.0,0.0,0.0,0.0,0.0,0.0,0.0,0.0,0.0,0.0,0.0,0.0,0.0,0.0,0.0,0.0,0.1755,0.1776,0.1795,0.1795,0.1795,0.1795,0.1796,0.1796,0.1797,0.1797,0.1825,0.1842,0.1842,0.187,0.1886,0.1886,0.1887,0.1887,0.1887,0.0944,-0.0,-0.0942,-0.1885,-0.2852,-0.3862,-0.3862,-0.3862,-0.3862,-0.3862,-0.383,-0.3775,-0.3775,-0.3775,-0.3775,-0.3771,-0.377,-0.377,-0.377,-0.377,-0.377,0.0,0.0,0.0,0.0,0.0,0.0,0.0,0.1617,0.163,0.1669,0.3799,0.5356,0.5366,0.743,0.894,0.894,0.894,0.894,0.894,0.894,0.894,0.894,0.894,0.894,0.894,0.894,0.894,0.894,0.9158,0.9268,0.9268,0.9599,0.9706,0.9706,0.9816,0.9926,1.0147,1.0036,1.0257,1.0363,0.9372,0.8374,0.7593,0.0,0.0,0.0,0.0,0.0,0.0,0.0,0.0,0.0,0.0,0.0,0.0,0.0,0.0,0.0,0.0,0.0,0.0,0.0,0.0,0.0,0.0,0.0,0.0,0.0,0.0,0.0,0.0,0.0,0.0,0.0,0.1795,0.1792,0.1784,0.179,0.1795,0.1795,0.1795,0.1804,0.1825,0.1827,0.1837,0.1859,0.1868,0.1873,0.1873,0.1881,0.1886,0.1886,0.1907,0.1558,0.0838,-0.0121,-0.1096,-0.207,-0.3046,-0.3665,-0.3925,-0.3925,-0.3925,-0.3925,-0.3925,-0.3917,-0.3901,-0.3901,-0.3901,-0.3892,-0.3804,-0.377,-0.377,-0.377,-0.377,-0.377,0.0,0.0,0.0,0.0,0.0,0.0,0.0,0.1617,0.1628,0.1658,0.3788,0.5348,0.5333,0.7413,0.894,0.894,0.894,0.894,0.894,0.894,0.894,0.894,0.894,0.894,0.894,0.9047,0.9158,0.9158,0.9379,0.9599,0.9599,0.9816,1.0036,1.0036,1.0147,1.0253,1.0472,1.0366,1.0366,1.0472,0.9926,0.9372,0.8702,0.8592,0.7368,0.5699,0.4806,0.3804,0.2688,0.2018,0.0,0.0,0.0,0.0,0.0,0.0,0.0,0.0,0.0,0.0,0.0,0.0,0.0,0.0,0.0,0.0,0.0,0.0,0.0,0.0,0.0,0.0,0.0,0.0,0.1814,0.1819,0.1832,0.1822,0.1814,0.1814,0.1825,0.184,0.1857,0.1859,0.1866,0.1884,0.1898,0.1904,0.1904,0.1917,0.1924,0.1924,0.1941,0.1706,0.1096,0.0123,-0.0863,-0.1849,-0.2837,-0.3579,-0.3951,-0.3951,-0.3951,-0.3951,-0.3951,-0.3951,-0.3951,-0.3951,-0.3951,-0.3944,0.0,0.0,0.0,0.0,-0.3845,-0.3845,0.0,0.0,0.0,0.0,0.0,0.0,0.0,0.1617,0.1626,0.1654,0.3776,0.5333,0.5318,0.7391,0.892,0.8937,0.894,0.894,0.894,0.894,0.894,0.894,0.894,0.894,0.894,0.9268,0.9379,0.9489,0.9706,0.9816,0.9816,1.0147,1.0366,1.0366,1.0582,1.0692,1.0692,1.0472,1.0366,1.0366,1.0366,1.0366,1.0257,0.9926,0.8367,0.6255,0.5922,0.425,0.2242,0.1907,0.0,0.0,0.0,0.0,0.0,0.0,0.0,0.0,0.0,0.0,0.0,0.0,0.0,0.0,0.0,0.0,0.0,0.0,0.0,0.0,0.0,0.0,0.0,0.0,0.1846,0.1855,0.1882,0.1866,0.1849,0.1846,0.1869,0.1887,0.1891,0.1891,0.1892,0.1896,0.1921,0.1937,0.1937,0.1962,0.0,0.0,0.0,0.1977,0.1977,0.0863,-0.0123,-0.0986,-0.2097,-0.3085,-0.3951,-0.3951,-0.3951,-0.3951,-0.3951,-0.3951,-0.3951,-0.3951,-0.3951,-0.3951,-0.3951,-0.3951,-0.3951,-0.3951,-0.3951,-0.3951,0.0,0.0,0.0,0.0,0.0,0.0,0.0,0.1617,0.1619,0.1625,0.3705,0.5129,0.5329,0.7367,0.8804,0.8927,0.894,0.894,0.894,0.894,0.894,0.894,0.894,0.9047,0.9268,0.9379,0.9489,0.9706,1.0036,1.0147,1.0257,1.0472,1.0582,1.0582,1.0692,1.0692,1.0692,1.0692,1.0582,1.0582,1.0582,1.0472,1.0257,0.9926,0.9592,0.903,0.6473,0.5252,0.4697,0.2577,0.1795,0.1795,0.1795,0.1795,0.0,0.0,0.0,0.0,0.0,0.0,0.0,0.0,0.0,0.0,0.0,0.0,0.0,0.0,0.0,0.0,0.0,0.0,0.0,0.1876,0.1877,0.1879,0.1885,0.1902,0.1904,0.188,0.1882,0.1896,0.192,0.1922,0.1932,0.1957,0.1964,0.1968,0.1968,0.1973,0.1977,0.1977,0.1977,0.1977,0.1977,0.0247,-0.0863,-0.0986,-0.2837,0.0,-0.3951,-0.3951,-0.3951,-0.3951,-0.3951,-0.3951,-0.3951,-0.3951,-0.3951,-0.3951,-0.3951,-0.3951,-0.3951,-0.3951,-0.3951,-0.3951,0.0,0.0,0.0,0.0,0.0,0.0,0.0,0.1617,0.1617,0.1617,0.3176,0.4273,0.4351,0.647,0.7895,0.8033,0.8605,0.894,0.894,0.894,0.894,0.894,0.9047,0.9268,0.9379,0.9706,0.9926,1.0036,1.0363,1.0472,1.0472,1.0692,1.0692,1.0692,1.0692,1.0692,1.0692,1.0692,1.0692,1.0692,1.0692,1.0582,1.0472,1.0363,0.9471,0.8026,0.6362,0.4916,0.3582,0.2242,0.1795,0.1795,0.1795,0.1795,0.1795,0.0,0.0,0.0,0.0,0.0,0.0,0.0,0.0,0.0,0.0,0.0,0.0,0.0,0.0,0.1863,0.1863,0.0,0.1891,0.1906,0.1909,0.1913,0.1929,0.1945,0.1943,0.1912,0.1922,0.1937,0.1952,0.1954,0.196,0.1975,0.1977,0.1977,0.1977,0.1977,0.1977,0.1977,0.1977,0.1977,0.1977,0.0,-0.0986,-0.0986,-0.2961,-0.3951,-0.3951,-0.3951,-0.3951,-0.3951,-0.3951,-0.3951,-0.3951,-0.3951,-0.3951,-0.3951,-0.3951,-0.3951,-0.3951,-0.3951,-0.3951,-0.3951,0.0,0.0,0.0,0.0,0.0,0.0,0.0,0.1617,0.1617,0.1617,0.2656,0.3424,0.3487,0.5459,0.6851,0.7105,0.8254,0.894,0.894,0.894,0.894,0.894,0.9158,0.9379,0.9489,0.9926,1.0257,1.0366,1.0582,1.0692,1.0692,1.0692,1.0692,1.0692,1.0692,1.0692,1.0692,1.0692,1.0692,1.0692,1.0692,1.0692,1.0692,1.0692,0.9133,0.6803,0.6251,0.4472,0.2354,0.1907,0.1795,0.1795,0.1795,0.1795,0.1796,0.1802,0.1804,0.0,0.0,0.0,0.0,0.0,0.0,0.0,0.0,0.0,0.1886,0.1886,0.189,0.1894,0.1894,0.1899,0.1911,0.1936,0.194,0.1949,0.1973,0.1977,0.1967,0.1943,0.1962,0.1977,0.1977,0.1977,0.1977,0.1977,0.1977,0.1977,0.1977,0.1977,0.1977,0.1977,0.1977,0.1977,0.1977,0.0,-0.0986,-0.0986,-0.2961,-0.3951,-0.3951,-0.3951,-0.3951,-0.3951,-0.3951,-0.3951,-0.3951,-0.3951,-0.3951,-0.3951,-0.3951,-0.3951,-0.3951,-0.3951,-0.3951,-0.3951,0.0,0.0,0.0,0.0,0.0,0.0,0.0,0.0,0.1617,0.1617,0.2527,0.3258,0.3422,0.4573,0.5798,0.6972,0.8197,0.894,0.894,0.894,0.894,0.894,0.8937,0.9158,0.9706,0.9816,1.0143,1.0692,1.0692,1.0692,1.0692,1.0692,1.0692,1.0692,1.0692,1.0692,1.0692,1.0692,1.0692,1.0692,1.0692,1.0692,1.0692,1.0692,1.0025,0.8803,0.6586,0.5254,0.4252,0.2466,0.1795,0.1795,0.1795,0.1795,0.18,0.1827,0.1835,0.1841,0.1868,0.1876,0.1877,0.188,0.1881,0.1881,0.0,0.0,0.1886,0.1886,0.1907,0.1926,0.1926,0.1948,0.1967,0.1971,0.1971,0.1973,0.1976,0.1977,0.1975,0.1972,0.1975,0.1977,0.1977,0.1977,0.1977,0.1977,0.1977,0.1977,0.1977,0.1977,0.1977,0.1977,0.1977,0.1977,0.1977,0.0,-0.0986,-0.0986,-0.2961,-0.3951,-0.3951,-0.3951,-0.3951,-0.3951,-0.3951,-0.3951,-0.3951,-0.3951,-0.3951,-0.3951,-0.3951,-0.3951,-0.3951,-0.3951,-0.3951,-0.3951,0.0,0.0,0.0,0.0,0.0,0.0,0.0,0.0,0.0,0.1617,0.2019,0.2337,0.2381,0.3451,0.499,0.6959,0.7566,0.8182,0.8823,0.894,0.894,0.894,0.9047,0.9379,0.9816,1.0036,1.0257,1.0692,1.0692,1.0692,1.0692,1.0692,1.0692,1.0692,1.0692,1.0692,1.0692,1.0692,1.0692,1.0692,1.0692,1.0692,1.0692,1.0139,0.9361,0.8374,0.7107,0.5328,0.0,0.276,0.2193,0.1848,0.1848,0.1848,0.185,0.1863,0.1867,0.187,0.1882,0.1886,0.189,0.1908,0.1912,0.1917,0.1934,0.1939,0.1939,0.1939,0.1949,0.1958,0.1958,0.1968,0.1977,0.1977,0.1977,0.1977,0.1977,0.1977,0.1977,0.1977,0.1977,0.1977,0.1977,0.1977,0.1977,0.1977,0.1977,0.1977,0.1977,0.1977,0.1977,0.1977,0.1977,0.1729,0.111,-0.0247,-0.1233,-0.1849,-0.3209,-0.3951,-0.3951,-0.3951,-0.3951,-0.3951,-0.3951,-0.3951,-0.3951,-0.3951,-0.3951,-0.3951,-0.3951,-0.3951,-0.3951,-0.3951,-0.3951,-0.3951,0.0,0.0,0.0,0.0,0.0,0.0,0.0,0.0,0.0,0.0,0.1617,0.1625,0.1647,0.2721,0.4138,0.5903,0.6719,0.7448,0.8317,0.8692,0.894,0.894,0.9158,0.9379,0.9706,1.0036,1.0253,1.0582,1.0692,1.0692,1.0692,1.0692,1.0692,1.0692,1.0692,1.0692,1.0692,1.0692,1.0692,1.0692,1.0692,1.0692,1.0578,0.9695,0.8833,0.7988,0.6951,0.5041,0.2879,0.2693,0.2356,0.1886,0.1886,0.1886,0.1887,0.1896,0.1904,0.1911,0.1911,0.1911,0.1916,0.1938,0.1944,0.1949,0.1972,0.1977,0.1977,0.1977,0.1977,0.1977,0.1977,0.1977,0.1977,0.1977,0.1977,0.1977,0.1977,0.1977,0.1977,0.1977,0.1977,0.1979,0.1988,0.1981,0.1977,0.1977,0.1977,0.1977,0.1977,0.1977,0.1977,0.1977,0.1977,0.1481,0.0493,-0.0493,-0.148,-0.2467,-0.3455,-0.3951,-0.3951,-0.3951,-0.3951,-0.3951,-0.3951,-0.3951,-0.3951,-0.3951,-0.3951,-0.3951,-0.3951,-0.3951,-0.3951,-0.3951,-0.3951,-0.3951,0.0,0.0,0.0,0.0,0.0,0.0,0.0,0.0,0.0,0.0,0.0,0.0,0.0,0.2669,0.3422,0.3527,0.5665,0.7083,0.7194,0.8304,0.894,0.894,0.894,0.9051,0.9379,0.9706,0.9926,1.0257,1.0582,1.0692,1.0692,1.0692,1.0692,1.0692,1.0692,1.0692,1.0692,1.0692,1.0692,1.0692,1.0692,1.0692,1.0578,0.9695,0.8897,0.7888,0.5842,0.4476,0.3457,0.2344,0.1886,0.1886,0.1886,0.1886,0.1892,0.1921,0.1951,0.1974,0.1974,0.1974,0.1974,0.1975,0.1975,0.1975,0.1976,0.1977,0.1977,0.1977,0.1977,0.1977,0.1977,0.1977,0.1977,0.1977,0.1977,0.1977,0.1977,0.1977,0.1977,0.1977,0.1977,0.1988,0.2015,0.1992,0.1977,0.1977,0.1977,0.1977,0.1977,0.1977,0.1977,0.1977,0.1977,0.1481,0.0493,-0.0493,-0.148,-0.2467,-0.3455,-0.3951,-0.3951,-0.3951,-0.3951,-0.3951,-0.3951,-0.3951,-0.3951,-0.3951,-0.3951,-0.3951,-0.3951,-0.3951,-0.3951,-0.3951,-0.3951,-0.3951,0.0,0.0,0.0,0.0,0.0,0.0,0.0,0.0,0.0,0.0,0.0,0.0,0.0,0.0,0.0,0.0,0.4186,0.5318,0.6964,0.7448,0.8063,0.8823,0.894,0.9047,0.9379,0.9706,0.9926,1.0257,1.0582,1.0692,1.0692,1.0692,1.0692,1.0692,1.0692,1.0692,1.0692,1.0692,1.0692,1.0692,1.0025,0.9805,0.9596,0.7791,0.6948,0.6431,0.0,0.3675,0.3565,0.29,0.231,0.1946,0.1946,0.1946,0.1948,0.1958,0.1969,0.1977,0.1977,0.1977,0.1977,0.1977,0.1977,0.1977,0.1977,0.1977,0.1977,0.1977,0.1977,0.1977,0.1977,0.1977,0.1977,0.1977,0.1977,0.1977,0.1977,0.1977,0.1984,0.2002,0.2005,0.2016,0.2046,0.2022,0.2013,0.2033,0.2035,0.2035,0.2035,0.2035,0.2035,0.2035,0.2035,0.1271,-0.0508,-0.0889,-0.1905,-0.3557,-0.3899,-0.3986,-0.3951,-0.3951,-0.3951,-0.3951,-0.3951,-0.3951,-0.3951,-0.3951,-0.3951,-0.3951,-0.3951,-0.3951,-0.3951,-0.3951,-0.3951,-0.3951,0.0,0.0,0.0,0.0,0.0,0.0,0.0,0.0,0.0,0.0,0.0,0.0,0.0,0.0,0.0,0.0,0.0,0.4076,0.5663,0.6562,0.7396,0.8188,0.8636,0.8992,0.9268,0.9489,0.9816,1.0147,1.0363,1.0582,1.0692,1.0692,1.0692,1.0692,1.0692,1.0692,1.0692,1.0692,1.0472,1.0135,0.9357,0.8913,0.8371,0.6329,0.5606,0.0,0.3438,0.3129,0.3407,0.2828,0.2346,0.1977,0.1977,0.1977,0.1977,0.1977,0.1977,0.1977,0.1977,0.1977,0.1977,0.1977,0.1977,0.1977,0.1977,0.1977,0.1977,0.1977,0.1977,0.1977,0.1977,0.1977,0.1979,0.199,0.1992,0.1995,0.2006,0.2007,0.2015,0.2033,0.2035,0.2047,0.2077,0.2063,0.2054,0.2063,0.2064,0.2064,0.2064,0.2064,0.2064,0.2064,0.2064,0.116,-0.1031,-0.1031,-0.2063,-0.4125,-0.4064,-0.4015,-0.398,-0.3959,-0.3951,-0.3951,-0.3951,-0.3951,-0.3951,-0.3951,-0.3951,-0.3951,-0.3951,-0.3951,-0.3951,-0.3951,-0.3951,-0.3951,0.0,0.0,0.0,0.0,0.0,0.0,0.0,0.0,0.0,0.0,0.0,0.0,0.0,0.0,0.0,0.0,0.0,0.0,0.3418,0.5463,0.6839,0.6967,0.7951,0.8563,0.8823,0.9158,0.9485,0.9816,1.0147,1.0363,1.0582,1.0582,1.0582,1.0582,1.0578,1.0472,1.0468,1.0468,1.0025,0.9247,0.8582,0.7802,0.6919,0.5369,0.4907,0.4807,0.3294,0.2884,0.2835,0.2222,0.1977,0.1977,0.1977,0.1977,0.1977,0.1977,0.1977,0.1977,0.1977,0.1977,0.1977,0.1977,0.1977,0.1977,0.1977,0.1977,0.1977,0.1977,0.1977,0.1977,0.1977,0.1977,0.1986,0.2014,0.2018,0.2029,0.206,0.2064,0.2065,0.0,0.0,0.0,0.0,0.0,0.2099,0.2071,0.2068,0.2068,0.2068,0.2068,0.2068,0.2068,0.2068,0.1163,-0.1034,-0.1163,-0.2196,-0.413,-0.4072,-0.4041,-0.4033,-0.398,-0.3954,-0.3951,-0.3951,-0.3951,-0.3951,-0.3951,-0.3951,-0.3951,-0.3951,-0.3951,-0.3951,-0.3951,-0.3951,-0.3951,0.0,0.0,0.0,0.0,0.0,0.0,0.0,0.0,0.0,0.0,0.0,0.0,0.0,0.0,0.0,0.0,0.0,0.0,0.3312,0.395,0.4753,0.5662,0.5995,0.659,0.7485,0.8036,0.8702,0.9485,1.0036,1.0033,0.9364,0.9364,0.914,0.8692,0.8247,0.8026,0.8026,0.7581,0.747,0.7584,0.6364,0.5919,0.5929,0.3971,0.3324,0.3244,0.2377,0.217,0.2188,0.2092,0.1977,0.1977,0.1977,0.1977,0.1977,0.1977,0.1977,0.1977,0.1977,0.1977,0.1977,0.1977,0.1977,0.1977,0.1977,0.1977,0.1977,0.1977,0.1977,0.1977,0.1977,0.1977,0.1986,0.2014,0.2018,0.2029,0.206,0.2064,0.0,0.2095,0.0,0.211,0.214,0.2143,0.214,0.2132,0.2131,0.2131,0.2131,0.2131,0.2131,0.2131,0.2131,0.1065,-0.1064,-0.2661,-0.3708,-0.4194,-0.4177,-0.4123,-0.4034,-0.4021,-0.3991,-0.3951,-0.3951,-0.3951,-0.3951,-0.3951,-0.3951,-0.3951,-0.3951,-0.3951,-0.3951,-0.3951,-0.3951,-0.3951,0.0,0.0,0.0,0.0,0.0,0.0,0.0,0.0,0.0,0.0,0.0,0.0,0.0,0.0,0.0,0.0,0.0,0.0,0.0,0.3071,0.3626,0.4473,0.4941,0.5541,0.6301,0.6674,0.7141,0.7817,0.8143,0.8251,0.814,0.7808,0.7695,0.7584,0.7249,0.6916,0.6695,0.6584,0.6362,0.0,0.0,0.4474,0.4258,0.283,0.2284,0.2304,0.1996,0.1909,0.1936,0.1967,0.1977,0.1977,0.1977,0.1977,0.1977,0.1977,0.1977,0.1977,0.1977,0.1977,0.1977,0.1977,0.1977,0.1977,0.1977,0.1977,0.1977,0.1977,0.1977,0.1977,0.1977,0.1977,0.199,0.2032,0.2038,0.2054,0.2097,0.2104,0.211,0.0,0.2129,0.0,0.2153,0.2155,0.2155,0.2155,0.2155,0.2155,0.2155,0.2155,0.2155,0.2155,0.175,0.0404,-0.1747,-0.3498,-0.429,-0.4256,-0.4229,-0.4166,-0.4074,-0.4046,-0.4004,-0.3951,-0.3951,-0.3951,-0.3951,-0.3951,-0.3951,-0.3951,-0.3951,-0.3951,-0.3951,-0.3951,-0.3951,-0.3951,0.0,0.0,0.0,0.0,0.0,0.0,0.0,0.0,0.0,0.0,0.1617,0.0,0.0,0.0,0.0,0.0,0.0,0.0,0.0,0.0,0.3049,0.321,0.4098,0.4803,0.5108,0.519,0.5345,0.5682,0.5804,0.6142,0.6695,0.6251,0.6251,0.6586,0.6586,0.6251,0.5806,0.6248,0.5695,0.4587,0.3913,0.3358,0.2581,0.0,0.1811,0.1836,0.1843,0.1883,0.1936,0.1967,0.1977,0.1977,0.1977,0.1977,0.1977,0.1977,0.1977,0.1977,0.1977,0.1977,0.1977,0.1977,0.1977,0.1977,0.1977,0.1977,0.1977,0.1977,0.1977,0.1977,0.1977,0.1979,0.2,0.2055,0.2067,0.209,0.2146,0.2155,0.2155,0.2155,0.2155,0.2155,0.2155,0.2155,0.2155,0.2155,0.2155,0.2155,0.2155,0.2155,0.2155,0.2155,0.0942,-0.0673,-0.242,-0.3633,-0.4308,-0.4307,-0.4253,-0.4192,-0.4124,-0.4071,-0.4011,-0.3951,-0.3951,-0.3951,-0.3951,-0.3951,-0.3951,-0.3951,-0.3951,-0.3951,-0.3951,-0.3951,-0.3951,-0.3951,0.0,0.0,0.0,0.0,0.0,0.0,0.0,0.0,0.0,0.0,0.1617,0.1617,0.0,0.0,0.0,0.0,0.0,0.0,0.0,0.0,0.0,0.1972,0.2186,0.2732,0.374,0.4127,0.46,0.5366,0.566,0.5477,0.4923,0.4812,0.4589,0.4143,0.3698,0.3362,0.325,0.2913,0.2914,0.3029,0.2466,0.2355,0.2581,0.202,0.0,0.0,0.186,0.19,0.0,0.0,0.1977,0.1977,0.1977,0.1977,0.1977,0.1977,0.1977,0.1977,0.1977,0.1977,0.1977,0.1977,0.1977,0.1977,0.1977,0.1977,0.1977,0.1977,0.1977,0.1977,0.1977,0.1995,0.2022,0.2059,0.2085,0.2114,0.215,0.2155,0.2155,0.0,0.2155,0.2155,0.2155,0.2155,0.2155,0.2155,0.2155,0.2155,0.2155,0.2155,0.2155,0.2155,0.0269,-0.0941,-0.1344,-0.3363,-0.4308,-0.4308,-0.4297,-0.4233,-0.4125,-0.4115,-0.4052,-0.3951,-0.3951,-0.3951,-0.3951,-0.3951,-0.3951,-0.3951,-0.3951,-0.3951,-0.3951,-0.3951,-0.3951,-0.3951,0.0,0.0,0.0,0.0,0.0,0.0,0.0,0.1617,0.1617,0.1617,0.1617,0.1617,0.1617,0.1617,0.1617,0.0,0.0,0.0,0.0,0.0,0.0,0.0,0.1654,0.1981,0.2522,0.2671,0.303,0.3493,0.0,0.3664,0.3587,0.325,0.3138,0.3141,0.2806,0.2581,0.2244,0.2244,0.2244,0.2244,0.1908,0.202,0.2244,0.0,0.0,0.0,0.0,0.0,0.0,0.0,0.1963,0.1977,0.1977,0.1977,0.1977,0.1977,0.1977,0.1977,0.1977,0.1977,0.1977,0.1977,0.1977,0.1977,0.1977,0.1977,0.1977,0.1977,0.1977,0.1977,0.1977,0.1999,0.2029,0.2059,0.2089,0.212,0.2151,0.2155,0.2155,0.2155,0.2155,0.2155,0.2155,0.2155,0.2155,0.2155,0.2155,0.2155,0.2155,0.2155,0.1615,0.0538,-0.0538,-0.1613,-0.269,-0.3768,-0.4308,-0.4308,-0.4308,-0.4244,-0.4125,-0.4125,-0.4061,-0.3951,-0.3951,-0.3951,-0.3951,-0.3951,-0.3951,-0.3951,-0.3951,-0.3951,-0.3951,-0.3951,-0.3951,-0.3951,0.0,0.0,0.0,0.0,0.0,0.0,0.0,0.1617,0.1617,0.1617,0.1617,0.1617,0.1617,0.1617,0.1617,0.0,0.0,0.0,0.0,0.0,0.0,0.0,0.0,0.0,0.1652,0.0,0.0,0.1731,0.1737,0.0,0.0,0.0,0.0,0.0,0.2465,0.2244,0.1795,0.2356,0.2244,0.0,0.0,0.1795,0.1795,0.0,0.0,0.0,0.0,0.0,0.189,0.0,0.1952,0.1977,0.1977,0.1977,0.1977,0.1977,0.1977,0.1977,0.1977,0.1977,0.1977,0.1977,0.1977,0.1977,0.1977,0.1977,0.1977,0.1977,0.1977,0.1977,0.1977,0.2005,0.2036,0.206,0.2095,0.2127,0.2151,0.2155,0.2155,0.2155,0.2155,0.2155,0.2155,0.2155,0.2155,0.2155,0.2155,0.2155,0.2155,0.2155,0.1346,-0.0672,-0.0941,-0.2017,-0.3902,-0.4172,-0.4308,-0.4308,-0.4308,-0.4244,-0.4125,-0.4125,-0.4061,-0.3951,-0.3951,-0.3951,-0.3951,-0.3951,-0.3951,-0.3951,-0.3951,-0.3951,-0.3951,-0.3951,-0.3951,-0.3951,0.0,0.0,0.0,0.0,0.0,0.0,0.0,0.1617,0.1617,0.1617,0.1617,0.1617,0.1617,0.1617,0.1617,0.0,0.0,0.0,0.0,0.0,0.0,0.0,0.0,0.0,0.0,0.0,0.0,0.167,0.1696,0.0,0.0,0.0,0.0,0.0,0.0,0.1907,0.1795,0.1907,0.0,0.0,0.0,0.0,0.0,0.0,0.0,0.0,0.0,0.186,0.189,0.1921,0.1952,0.1977,0.1977,0.1977,0.1977,0.1977,0.1977,0.1977,0.1977,0.1977,0.1977,0.1977,0.1977,0.1977,0.1977,0.1977,0.1977,0.1977,0.1977,0.1977,0.1977,0.2022,0.2061,0.2063,0.2113,0.2151,0.2155,0.2155,0.2155,0.2155,0.2155,0.2155,0.2155,0.2155,0.2155,0.2155,0.2155,0.2155,0.2155,0.2155,0.1616,0.0404,-0.0538,-0.1613,-0.2824,-0.3768,-0.4308,-0.4308,-0.4308,-0.4244,-0.4125,-0.4125,-0.4061,-0.3951,-0.3951,-0.3951,-0.3951,-0.3951,-0.3951,-0.3951,-0.3951,-0.3951,-0.3951,-0.3951,-0.3951,-0.3951,0.0,0.0,0.0,0.0,0.0,0.0,0.1617,0.1617,0.1617,0.1617,0.1617,0.1617,0.1617,0.1617,0.1617,0.1617,0.0,0.0,0.0,0.0,0.0,0.0,0.0,0.0,0.0,0.0,0.1643,0.1662,0.1673,0.0,0.0,0.0,0.0,0.0,0.0,0.175,0.1767,0.1767,0.0,0.0,0.0,0.0,0.0,0.0,0.0,0.0,0.0,0.0,0.1863,0.1894,0.1924,0.1952,0.1971,0.1977,0.1977,0.1977,0.1977,0.1977,0.1977,0.1977,0.1977,0.1977,0.1977,0.1977,0.1977,0.1977,0.1977,0.1977,0.1977,0.1977,0.1977,0.2024,0.2064,0.2064,0.2115,0.2155,0.2155,0.2155,0.2155,0.2155,0.2155,0.2155,0.2155,0.2155,0.2155,0.2155,0.2155,0.2155,0.2155,0.2155,0.1346,-0.0403,-0.0941,-0.1882,-0.3632,-0.4038,-0.4308,-0.4307,-0.427,-0.4209,-0.4124,-0.4087,-0.4027,-0.3951,-0.3951,-0.3951,-0.3951,-0.3951,-0.3951,-0.3951,-0.3951,-0.3951,-0.3951,-0.3951,-0.3951,-0.3951,0.0,0.0,0.0,0.0,0.0,0.1617,0.1617,0.1617,0.1617,0.1617,0.1617,0.1617,0.1617,0.1617,0.1617,0.1617,0.1617,0.0,0.0,0.0,0.0,0.0,0.0,0.0,0.0,0.0,0.1627,0.1649,0.1649,0.1659,0.0,0.0,0.1692,0.1692,0.0,0.0,0.0,0.0,0.0,0.0,0.0,0.0,0.0,0.0,0.0,0.0,0.0,0.0,0.0,0.0,0.0,0.1937,0.0,0.0,0.0,0.1977,0.1977,0.1977,0.1977,0.1977,0.1977,0.1977,0.1977,0.1977,0.1977,0.1977,0.1977,0.1977,0.1977,0.1977,0.1977,0.2024,0.2064,0.2064,0.2115,0.2155,0.2155,0.1885,0.1885,0.2155,0.1885,0.1885,0.2155,0.2155,0.2155,0.2155,0.2155,0.2155,0.2155,0.2155,0.1211,-0.1075,-0.1075,-0.2151,-0.4308,-0.4308,-0.4298,-0.4281,-0.4237,-0.4176,-0.4097,-0.4055,-0.4004,-0.3951,-0.3951,-0.3951,-0.3951,-0.3951,-0.3703,-0.3455,-0.3455,-0.3332,-0.3085,-0.3332,-0.3332,-0.3085,0.0,0.0,0.0,0.0,0.0,0.0,0.1617,0.1617,0.1617,0.1617,0.1617,0.1617,0.1617,0.1617,0.1617,0.1617,0.1617,0.0,0.0,0.0,0.0,0.0,0.0,0.0,0.0,0.0,0.1617,0.1617,0.1617,0.1618,0.1618,0.1649,0.1662,0.1664,0.0,0.0,0.0,0.0,0.0,0.0,0.0,0.0,0.0,0.0,0.0,0.0,0.0,0.0,0.0,0.0,0.0,0.0,0.0,0.0,0.0,0.0,0.1977,0.1977,0.1977,0.1977,0.1977,0.1977,0.1977,0.1977,0.1977,0.1977,0.1977,0.1977,0.1977,0.1977,0.1977,0.2024,0.2064,0.2064,0.2115,0.2155,0.2155,0.1212,0.0942,0.202,0.1212,0.0942,0.2155,0.2155,0.2155,0.2155,0.2155,0.2155,0.2155,0.2155,0.1211,-0.1075,-0.1075,-0.2151,-0.4308,-0.4308,-0.4278,-0.4217,-0.4217,-0.4153,-0.4036,-0.4034,-0.4004,-0.3951,-0.3951,-0.3951,-0.3951,-0.3951,-0.3332,-0.2467,-0.2467,-0.1849,-0.1109,-0.2097,-0.1849,-0.1356,0.0,0.0,0.0,0.0,0.0,0.0,0.0,0.1617,0.1617,0.1617,0.1617,0.1617,0.1617,0.1617,0.1617,0.1617,0.1617,0.0,0.0,0.0,0.0,0.0,0.0,0.0,0.0,0.0,0.1617,0.1617,0.1617,0.1617,0.1617,0.1626,0.1631,0.1632,0.1641,0.1656,0.0,0.0,0.0,0.0,0.0,0.0,0.1795,0.0,0.0,0.0,0.0,0.0,0.0,0.0,0.0,0.0,0.0,0.0,0.0,0.1977,0.1977,0.1977,0.1977,0.1977,0.1977,0.1977,0.1977,0.1977,0.1977,0.1977,0.1977,0.1977,0.1977,0.1977,0.1977,0.2007,0.2039,0.2061,0.2097,0.2131,0.2152,0.1885,0.175,0.2155,0.1885,0.175,0.2155,0.2155,0.2155,0.2155,0.2155,0.2155,0.2155,0.2155,0.1211,-0.1075,-0.1075,-0.2151,-0.4308,-0.4308,-0.4277,-0.4215,-0.4174,-0.4112,-0.4033,-0.3995,-0.3967,-0.3951,-0.3951,-0.3579,-0.2961,-0.2961,-0.2343,-0.148,-0.148,-0.1726,-0.1973,-0.1603,-0.1726,-0.1973,0.0,0.0,0.0,0.0,0.0,0.0,0.0,0.1617,0.1617,0.1617,0.1617,0.1617,0.1617,0.1617,0.1617,0.1617,0.1617,0.0,0.0,0.0,0.0,0.0,0.0,0.0,0.1617,0.1617,0.1617,0.1617,0.1617,0.1617,0.1617,0.1617,0.1617,0.1617,0.1617,0.1627,0.0,0.0,0.0,0.0,0.0,0.0,0.1795,0.0,0.0,0.0,0.0,0.0,0.0,0.0,0.0,0.0,0.0,0.0,0.0,0.0,0.1977,0.1977,0.1977,0.1977,0.1977,0.1977,0.1977,0.1977,0.1977,0.1977,0.1977,0.1977,0.1977,0.1977,0.1977,0.1999,0.2024,0.2044,0.2082,0.2116,0.2135,0.1879,0.1616,0.1616,0.1885,0.2155,0.2155,0.2155,0.2155,0.2155,0.2155,0.2155,0.2155,0.2155,0.1346,-0.0403,-0.0941,-0.1882,-0.3633,-0.4016,-0.4243,-0.4181,-0.412,-0.406,-0.4001,-0.3966,-0.3951,-0.3828,-0.3579,-0.3085,0.0,-0.2097,-0.1356,-0.0493,-0.0493,-0.0617,-0.074,-0.0493,-0.0617,-0.0863,0.0,0.0,0.0,0.0,0.0,0.0,0.0,0.1617,0.1617,0.1617,0.1617,0.1617,0.1617,0.1617,0.1617,0.1617,0.1617,0.0,0.0,0.0,0.0,0.0,0.0,0.0,0.1617,0.1617,0.1617,0.1617,0.1617,0.1617,0.1617,0.1617,0.1617,0.1617,0.1617,0.1617,0.0,0.0,0.0,0.0,0.0,0.0,0.0,0.0,0.0,0.0,0.0,0.0,0.0,0.0,0.0,0.0,0.0,0.0,0.0,0.0,0.0,0.0,0.0,0.1977,0.1977,0.1977,0.1977,0.1977,0.1977,0.1977,0.0,0.1977,0.1977,0.1977,0.1977,0.1998,0.2016,0.2018,0.2066,0.2104,0.2106,0.1199,0.0672,0.0673,0.1616,0.2155,0.2155,0.2155,0.2155,0.2155,0.2155,0.2155,0.2155,0.2155,0.175,0.0673,-0.0403,-0.1476,-0.2551,-0.3448,-0.3922,-0.386,-0.3808,-0.3754,-0.3826,-0.3703,-0.3703,-0.3703,-0.2837,-0.2343,-0.222,-0.1233,-0.0247,0.0616,0.0616,0.111,0.1729,0.0863,0.111,0.1605,0.0,0.0,0.0,0.0,0.0,0.0,0.0,0.0,0.0,0.0,0.1617,0.1617,0.1617,0.1617,0.1617,0.0,0.0,0.0,0.0,0.0,0.0,0.0,0.0,0.0,0.1617,0.1617,0.1617,0.1617,0.1617,0.1617,0.1617,0.1617,0.1617,0.1617,0.1617,0.1617,0.0,0.0,0.0,0.0,0.0,0.0,0.0,0.0,0.0,0.0,0.1795,0.1795,0.0,0.0,0.0,0.0,0.0,0.0,0.0,0.0,0.1977,0.1977,0.1977,0.0,0.1977,0.1977,0.1977,0.1977,0.0,0.1977,0.1977,0.1977,0.0,0.1977,0.1977,0.1981,0.1993,0.2015,0.2031,0.2048,0.2071,0.1838,0.1729,0.1748,0.202,0.2155,0.2155,0.2155,0.2155,0.2155,0.2155,0.2155,0.2155,0.2155,0.202,0.175,0.0666,-0.0397,-0.1457,-0.1716,-0.1821,-0.1774,-0.1768,-0.2127,-0.2837,-0.1973,-0.2097,-0.2714,-0.1726,-0.0863,-0.0247,0.0,0.074,0.1605,0.1605,0.1357,0.0863,0.1481,0.1357,0.0863,0.0,0.0,0.0,0.0,0.0,0.0,0.0,0.0,0.0,0.0,0.1617,0.1617,0.1617,0.1617,0.0,0.0,0.0,0.0,0.0,0.0,0.0,0.0,0.0,0.1617,0.1617,0.1617,0.1617,0.1617,0.1617,0.1617,0.1617,0.1617,0.1617,0.1617,0.1617,0.1617,0.0,0.0,0.0,0.0,0.177,0.0,0.0,0.0,0.0,0.0,0.1795,0.1795,0.0,0.1865,0.1886,0.1896,0.0,0.0,0.0,0.0,0.1977,0.1977,0.1977,0.1977,0.1977,0.1977,0.1977,0.1977,0.1977,0.0,0.0,0.0,0.0,0.1977,0.1977,0.1977,0.1981,0.1996,0.201,0.2029,0.206,0.209,0.2116,0.2132,0.2146,0.2155,0.2155,0.2155,0.2155,0.2155,0.2155,0.2155,0.2155,0.2142,0.2133,0.2133,0.1578,0.0654,-0.0395,-0.091,-0.1153,-0.1135,-0.1127,-0.1367,-0.1849,-0.1233,-0.1356,-0.1726,-0.074,-0.0,0.0493,0.0987,0.1481,0.1977,0.1977,0.1729,0.1234,0.1853,0.1605,0.1234,0.0,0.0,0.0,0.0,0.0,0.0,0.0,0.0,0.0,0.0,0.0,0.0,0.0,0.0,0.0,0.0,0.0,0.0,0.0,0.0,0.0,0.0,0.1617,0.1617,0.1617,0.1617,0.1617,0.1617,0.1617,0.1617,0.1617,0.1617,0.1617,0.1617,0.1617,0.162,0.0,0.0,0.0,0.0,0.1772,0.0,0.0,0.0,0.0,0.0,0.0,0.0,0.0,0.1865,0.1886,0.1896,0.1958,0.0,0.0,0.0,0.0,0.0,0.1977,0.1977,0.1977,0.1977,0.1977,0.1977,0.1977,0.0,0.0,0.0,0.0,0.0,0.0,0.1977,0.0,0.1977,0.1996,0.2022,0.2052,0.2083,0.2102,0.2102,0.2129,0.2146,0.2142,0.2141,0.2141,0.2141,0.2141,0.2141,0.2141,0.2116,0.2102,0.2102,0.2073,0.1681,0.0785,-0.0128,-0.063,-0.0628,-0.062,-0.0616,-0.074,-0.0616,-0.0616,-0.074,0.0247,0.074,0.074,0.1605,0.1977,0.1977,0.1977,0.1977,0.1977,0.1977,0.1977,0.1977,0.0,0.0,0.0,0.0,0.0,0.0,0.0,0.0,0.0,0.0,0.0,0.0,0.0,0.0,0.0,0.0,0.0,0.0,0.0,0.0,0.0,0.1617,0.1617,0.1617,0.1617,0.1617,0.1617,0.1617,0.1617,0.1617,0.1617,0.1617,0.1617,0.1617,0.1617,0.1631,0.1657,0.0,0.0,0.0,0.1781,0.0,0.0,0.0,0.0,0.0,0.0,0.0,0.0,0.1865,0.1886,0.1896,0.1958,0.0,0.0,0.0,0.0,0.0,0.1977,0.1977,0.1977,0.1977,0.1977,0.1977,0.1977,0.1977,0.0,0.0,0.0,0.0,0.0,0.1977,0.1977,0.1977,0.198,0.1993,0.2021,0.2052,0.2071,0.2071,0.2097,0.2106,0.208,0.2078,0.2078,0.2078,0.2078,0.2078,0.2078,0.2074,0.2071,0.2071,0.2041,0.1901,0.1778,0.1643,0.1505,0.1487,0.1484,0.1111,0.0247,0.1111,0.1111,0.037,0.1358,0.1729,0.1729,0.1977,0.1977,0.1977,0.1977,0.1977,0.1977,0.1977,0.1977,0.1977,0.0,0.0,0.0,0.0,0.0,0.0,0.0,0.0,0.0,0.0,0.0,0.0,0.0,0.0,0.0,0.0,0.0,0.0,0.0,0.0,0.1617,0.1617,0.1617,0.1617,0.1617,0.1617,0.1617,0.1617,0.1617,0.1617,0.1617,0.1617,0.1617,0.1617,0.1617,0.1634,0.1664,0.1692,0.1722,0.1752,0.0,0.0,0.0,0.0,0.0,0.0,0.0,0.0,0.0,0.0,0.1886,0.1896,0.1958,0.0,0.0,0.0,0.0,0.0,0.1977,0.1977,0.1977,0.1977,0.1977,0.1977,0.1977,0.1977,0.0,0.0,0.0,0.0,0.0,0.0,0.1977,0.1977,0.1977,0.1981,0.1994,0.2021,0.2039,0.2039,0.2066,0.2079,0.2065,0.2064,0.2064,0.2064,0.2064,0.2064,0.2064,0.2048,0.2039,0.2039,0.2011,0.1996,0.1996,0.1996,0.199,0.1977,0.1977,0.1729,0.1358,0.1729,0.1729,0.1358,0.1853,0.1977,0.1977,0.1977,0.1977,0.1977,0.1977,0.1977,0.1977,0.1977,0.1977,0.1977,0.0,0.0,0.0,0.0,0.0,0.0,0.0,0.0,0.0,0.0,0.0,0.0,0.0,0.0,0.0,0.0,0.0,0.0,0.0,0.1617,0.1617,0.1617,0.1617,0.1617,0.1617,0.1617,0.1617,0.1617,0.1617,0.1617,0.1617,0.1617,0.1617,0.1617,0.1624,0.1644,0.1674,0.1703,0.1733,0.1762,0.0,0.0,0.0,0.0,0.0,0.0,0.0,0.0,0.0,0.0,0.0,0.0,0.0,0.0,0.0,0.1977,0.1977,0.1977,0.1977,0.1977,0.1977,0.1977,0.1977,0.1977,0.1977,0.0,0.0,0.0,0.0,0.0,0.0,0.1977,0.1977,0.1977,0.1977,0.1977,0.1977,0.2001,0.2016,0.2009,0.2035,0.205,0.2044,0.2044,0.2044,0.2044,0.2044,0.2044,0.2044,0.2021,0.2009,0.2009,0.1988,0.1977,0.1977,0.1977,0.1977,0.1977,0.1977,0.1977,0.1977,0.1977,0.1977,0.1977,0.1977,0.1977,0.1977,0.1977,0.1977,0.1977,0.1977,0.1977,0.1977,0.1977,0.1977,0.1977,0.0,0.0,0.0,0.0,0.0,0.0,0.0,0.0,0.0,0.0,0.0,0.0,0.0,0.0,0.0,0.0,0.0,0.0,0.0,0.1617,0.1617,0.1617,0.1617,0.1617,0.1617,0.1617,0.1617,0.1617,0.1617,0.1617,0.1617,0.1617,0.1617,0.1618,0.1647,0.1675,0.1703,0.1733,0.1764,0.1792,0.1794,0.0,0.0,0.0,0.0,0.0,0.0,0.0,0.0,0.0,0.0,0.0,0.0,0.0,0.1977,0.1977,0.1977,0.1977,0.1977,0.1977,0.1977,0.1977,0.1977,0.0,0.1977,0.1977,0.0,0.1977,0.0,0.0,0.0,0.1977,0.1977,0.1977,0.1977,0.1977,0.1977,0.2001,0.2009,0.1983,0.2005,0.2011,0.1986,0.1983,0.1983,0.1983,0.1983,0.1983,0.1983,0.1981,0.1979,0.1979,0.1977,0.1977,0.1977,0.1977,0.1977,0.1977,0.1977,0.1977,0.1977,0.1977,0.1977,0.1977,0.1977,0.1977,0.1977,0.1977,0.1977,0.1977,0.1977,0.1977,0.1977,0.1977,0.1977,0.1977,0.0,0.0,0.0,0.0,0.0,0.0,0.0,0.0,0.0,0.0,0.0,0.0,0.0,0.0,0.0,0.0,0.0,0.0,0.0,0.1617,0.1617,0.1617,0.1617,0.1617,0.1617,0.1617,0.1617,0.1617,0.1617,0.1617,0.1617,0.1636,0.1645,0.1646,0.1675,0.1705,0.1733,0.1745,0.1767,0.1795,0.1795,0.1795,0.0,0.0,0.0,0.0,0.0,0.0,0.0,0.0,0.1898,0.1922,0.1963,0.1977,0.1977,0.1977,0.1977,0.1977,0.1977,0.1977,0.1977,0.1977,0.1977,0.0,0.0,0.1977,0.1977,0.1977,0.1977,0.0,0.0,0.1977,0.1977,0.1977,0.1977,0.1977,0.1977,0.1986,0.1988,0.1978,0.1986,0.1988,0.1977,0.1977,0.1977,0.1977,0.1977,0.1977,0.1977,0.1977,0.1977,0.1977,0.1977,0.1977,0.1977,0.1977,0.1977,0.1977,0.1977,0.1977,0.1977,0.1977,0.1977,0.1977,0.1977,0.1977,0.1977,0.1977,0.1977,0.1977,0.1977,0.1977,0.1977,0.1977,0.1977,0.1977,0.0,0.0,0.0,0.0,0.0,0.0,0.0,0.0,0.0,0.0,0.0,0.0,0.0,0.0,0.0,0.0,0.0,0.0,0.1617,0.1617,0.1617,0.1617,0.1617,0.1617,0.1617,0.1617,0.1617,0.1617,0.1626,0.1631,0.1632,0.1662,0.1675,0.1677,0.1705,0.173,0.175,0.176,0.1776,0.1795,0.1795,0.1795,0.0,0.0,0.0,0.0,0.0,0.0,0.0,0.0,0.1914,0.1937,0.1967,0.1977,0.1977,0.1977,0.1977,0.1977,0.1977,0.1977,0.1977,0.0,0.0,0.0,0.1977,0.1977,0.1977,0.1977,0.1977,0.1977,0.1977,0.0,0.1977,0.1977,0.1977,0.1977,0.1977,0.1977,0.1977,0.1977,0.1977,0.1977,0.1977,0.1977,0.1977,0.1977,0.1977,0.1977,0.1977,0.1977,0.1977,0.1977,0.1977,0.1977,0.1977,0.1977,0.1977,0.1977,0.1977,0.1977,0.1977,0.1977,0.1977,0.1977,0.1977,0.1977,0.1977,0.1977,0.1977,0.1977,0.1977,0.1977,0.1977,0.1977,0.1977,0.1977,0.0,0.0,0.0,0.0,0.0,0.0,0.0,0.0,0.0,0.0,0.0,0.0,0.0,0.0,0.0,0.0,0.0,0.0,0.1617,0.1617,0.1617,0.1617,0.1617,0.1617,0.1617,0.1618,0.1618,0.1617,0.1647,0.1662,0.1663,0.1692,0.1705,0.1706,0.1736,0.175,0.1752,0.1782,0.1795,0.1795,0.1795,0.1795,0.1795,0.0,0.0,0.0,0.0,0.0,0.0,0.0,0.1932,0.1937,0.1967,0.1977,0.1977,0.1977,0.1977,0.1977,0.1977,0.1977,0.0,0.0,0.0,0.0,0.1977,0.1977,0.1977,0.1977,0.1977,0.1977,0.1977,0.1977,0.1977,0.1977,0.1977,0.1977,0.1977,0.1977,0.1977,0.1977,0.1977,0.1977,0.1977,0.1977,0.1977,0.1977,0.1977,0.1977,0.1977,0.1977,0.1977,0.1977,0.1977,0.1977,0.1977,0.1977,0.1977,0.1977,0.1977,0.1977,0.1977,0.1977,0.1977,0.1977,0.1977,0.1977,0.1977,0.1977,0.1977,0.1977,0.1977,0.1977,0.1977,0.1977,0.1977,0.1977,0.0,0.0,0.0,0.0,0.0,0.0,0.0,0.0,0.0,0.0,0.0,0.0,0.0,0.0,0.0,0.0,0.0,0.0,0.1617,0.1617,0.1617,0.1617,0.1617,0.1627,0.1648,0.1668,0.1669,0.1649,0.1677,0.1692,0.1692,0.1722,0.1736,0.1737,0.1768,0.1781,0.1782,0.1791,0.1795,0.1795,0.1795,0.1795,0.1797,0.0,0.0,0.0,0.0,0.0,0.0,0.0,0.0,0.0,0.1974,0.1977,0.1977,0.1977,0.1977,0.1977,0.1977,0.1977,0.0,0.0,0.0,0.0,0.0,0.1977,0.0,0.0,0.1977,0.1977,0.1977,0.1977,0.1977,0.1977,0.1977,0.1977,0.1977,0.1977,0.1977,0.1977,0.1977,0.1977,0.1977,0.1977,0.1977,0.1977,0.1977,0.1977,0.1977,0.1977,0.1977,0.1977,0.1977,0.1977,0.1977,0.1977,0.1977,0.1977,0.1977,0.1977,0.1977,0.1977,0.1977,0.1977,0.1977,0.1977,0.1977,0.1977,0.1977,0.1977,0.1977,0.1977,0.1977,0.1977,0.1977,0.1977,0.0,0.0,0.0,0.0,0.0,0.0,0.0,0.0,0.0,0.0,0.0,0.0,0.0,0.0,0.0,0.0,0.0,0.0,0.0,0.1628,0.1635,0.1635,0.1645,0.166,0.1679,0.1707,0.1714,0.1697,0.1714,0.1722,0.1723,0.1753,0.1767,0.1768,0.1787,0.1795,0.1795,0.1795,0.1795,0.1796,0.1808,0.1813,0.1817,0.0,0.0,0.0,0.0,0.0,0.0,0.0,0.0,0.0,0.1977,0.1977,0.1977,0.1977,0.1977,0.1977,0.1977,0.1977,0.0,0.1977,0.1977,0.1977,0.1977,0.0,0.0,0.0,0.1977,0.1977,0.1977,0.1977,0.1977,0.1977,0.1977,0.1977,0.1977,0.1977,0.1977,0.1977,0.1977,0.1977,0.1977,0.1977,0.1977,0.1977,0.1977,0.1977,0.1977,0.1977,0.1977,0.1977,0.1977,0.1977,0.1977,0.1977,0.1977,0.1977,0.1977,0.1977,0.1977,0.1977,0.1977,0.1977,0.1977,0.1977,0.1977,0.1977,0.1977,0.1977,0.1977,0.1977,0.1977,0.1977,0.1977,0.1977,0.0,0.0,0.0,0.0,0.0,0.0,0.0,0.0,0.0,0.0,0.0,0.0,0.0,0.0,0.0,0.0,0.0,0.0,0.0,0.165,0.1666,0.1666,0.1693,0.1708,0.1708,0.1738,0.1754,0.1754,0.1754,0.1754,0.1755,0.1782,0.1795,0.1795,0.1795,0.1795,0.1795,0.1795,0.1797,0.1802,0.1829,0.1842,0.1848,0.1879,0.0,0.0,0.0,0.0,0.0,0.0,0.0,0.0,0.1977,0.1977,0.1977,0.1977,0.1977,0.1977,0.1977,0.0,0.0,0.1977,0.1977,0.0,0.1977,0.1977,0.1977,0.1977,0.0,0.1977,0.1977,0.1977,0.1977,0.1977,0.1977,0.1977,0.1977,0.1977,0.1977,0.1977,0.1977,0.1977,0.1977,0.1977,0.1977,0.1977,0.1977,0.1977,0.1977,0.1977,0.1977,0.1977,0.1977,0.1977,0.1977,0.1977,0.1977,0.1977,0.1977,0.1977,0.1977,0.1977,0.1977,0.1977,0.1977,0.1977,0.1977,0.1977,0.1977,0.1977,0.1977,0.1977,0.1977,0.1977,0.1977,0.1977,0.0,0.0,0.0,0.0,0.0,0.0,0.0,0.0,0.0,0.0,0.0,0.0,0.0,0.0,0.0,0.0,0.0,0.0,0.0,0.168,0.1695,0.1695,0.1724,0.174,0.174,0.177,0.1785,0.1785,0.1785,0.1785,0.1785,0.1792,0.1795,0.1795,0.1795,0.1795,0.1795,0.1795,0.1808,0.1832,0.1838,0.1855,0.1879,0.191,0.1922,0.0,0.0,0.0,0.0,0.0,0.0,0.0,0.1977,0.1977,0.1977,0.1977,0.1977,0.1977,0.1977,0.1977,0.0,0.0,0.1977,0.1977,0.1977,0.1977,0.1977,0.1977,0.1977,0.1977,0.1977,0.1977,0.1977,0.1977,0.1977,0.1977,0.1977,0.1977,0.1977,0.1977,0.1977,0.1977,0.1977,0.1977,0.1977,0.1977,0.1977,0.1977,0.1977,0.1977,0.1977,0.1977,0.1977,0.1977,0.1977,0.1977,0.1977,0.1977,0.1977,0.1977,0.1977,0.1977,0.1977,0.1977,0.1977,0.1977,0.1977,0.1977,0.1977,0.1977,0.1977,0.1977,0.1977,0.1977,0.1977,0.1977,0.0,0.0,0.0,0.0,0.0,0.0,0.0,0.0,0.0,0.0,0.0,0.0,0.0,0.0,0.0,0.0,0.0,0.0,0.0,0.0,0.2271,0.1747,0.1763,0.1771,0.1771,0.1787,0.1795,0.1795,0.1795,0.1795,0.1795,0.1795,0.1795,0.1795,0.1795,0.1795,0.1796,0.181,0.1825,0.1842,0.1872,0.1894,0.1911,0.1941,0.1953,0.1955,0.1971,0.0,0.0,0.0,0.0,0.0,0.0,0.0,0.1977,0.1977,0.1977,0.1977,0.1977,0.0,0.0,0.1977,0.0,0.1977,0.1977,0.1977,0.1977,0.1977,0.1977,0.1977,0.1977,0.1977,0.1977,0.1977,0.1977,0.1977,0.1977,0.1977,0.1977,0.1977,0.1977,0.1977,0.1977,0.1977,0.1977,0.1977,0.1977,0.1977,0.1977,0.1977,0.1977,0.1977,0.1977,0.1977,0.1977,0.1977,0.1977,0.1977,0.1977,0.1977,0.1977,0.1977,0.1977,0.1977,0.1977,0.1977,0.1977,0.1977,0.1977,0.1977,0.1977,0.1977,0.1977,0.1977,0.1977,0.1977,0.0,0.0,0.0,0.0,0.0,0.0,0.0,0.0,0.0,0.0,0.0,0.0,0.0,0.0,0.0,0.0,0.0,0.0,0.0,0.0,0.0,0.1905,0.1795,0.1795,0.1795,0.1795,0.1795,0.1795,0.1795,0.1795,0.1795,0.1795,0.1795,0.1795,0.1795,0.1797,0.1804,0.1829,0.1847,0.186,0.1911,0.1934,0.1941,0.1967,0.1977,0.1977,0.1977,0.1977,0.1977,0.1977,0.0,0.0,0.0,0.0,0.1977,0.1977,0.1977,0.1977,0.1977,0.0,0.1977,0.1977,0.1977,0.0,0.1977,0.1977,0.1977,0.1977,0.1977,0.1977,0.1977,0.1977,0.1977,0.1977,0.1977,0.1977,0.1977,0.1977,0.1977,0.1977,0.1977,0.1977,0.1977,0.1977,0.1977,0.1977,0.1977,0.1977,0.1977,0.1977,0.1977,0.1977,0.1977,0.1977,0.1977,0.1977,0.1977,0.1977,0.1977,0.1977,0.1977,0.1977,0.1977,0.1977,0.1977,0.1977,0.1977,0.1977,0.1977,0.1977,0.1977,0.1977,0.1977,0.1977,0.1977,0.1977,0.0,0.0,0.0,0.0,0.0,0.0,0.0,0.0,0.0,0.0,0.0,0.0,0.0,0.0,0.0,0.0,0.0,0.0,0.5108,0.0,0.0,0.1907,0.1795,0.1795,0.1795,0.1795,0.1795,0.1795,0.1795,0.1795,0.0,0.0,0.1795,0.1795,0.1795,0.181,0.1834,0.1838,0.187,0.1919,0.1928,0.1947,0.1971,0.1975,0.1977,0.1977,0.1977,0.1977,0.1977,0.1977,0.1977,0.0,0.0,0.0,0.1977,0.1977,0.1977,0.1977,0.0,0.0,0.1977,0.0,0.1977,0.1977,0.0,0.1977,0.1977,0.1977,0.1977,0.1977,0.1977,0.1977,0.1977,0.1977,0.1977,0.1977,0.1977,0.1977,0.1977,0.1977,0.1977,0.1977,0.1977,0.1977,0.1977,0.1977,0.1977,0.1977,0.1977,0.1977,0.1977,0.1977,0.1977,0.1977,0.1977,0.1977,0.1977,0.1977,0.1977,0.1977,0.1977,0.1977,0.1977,0.1977,0.1977,0.1977,0.1977,0.1977,0.1977,0.1977,0.1977,0.1977,0.1977,0.1977,0.1977,0.1977,0.0,0.0,0.0,0.0,0.0,0.0,0.0,0.0,0.0,0.0,0.0,0.0,0.0,0.0,0.0,0.6335,0.6274,0.6303,0.6303,0.5232,0.4026,0.2912,0.213,0.1795,0.1795,0.1795,0.1795,0.1795,0.1795,0.0,0.0,0.1795,0.1795,0.0,0.1812,0.1827,0.1842,0.1877,0.1907,0.1932,0.1949,0.1964,0.1977,0.1977,0.1977,0.1977,0.1977,0.1977,0.1977,0.1977,0.1977,0.1977,0.1977,0.0,0.0,0.0,0.1977,0.1977,0.1977,0.1977,0.1977,0.0,0.1977,0.1977,0.1977,0.1977,0.1977,0.1977,0.1977,0.1977,0.1977,0.1977,0.1977,0.1977,0.1977,0.1977,0.1977,0.1977,0.1977,0.1977,0.1977,0.1977,0.1977,0.1977,0.1977,0.1977,0.1977,0.1977,0.1977,0.1977,0.1977,0.1977,0.1977,0.1977,0.1977,0.1977,0.1977,0.1977,0.1977,0.1977,0.1977,0.1977,0.1977,0.1977,0.1977,0.1977,0.1977,0.1977,0.1977,0.1977,0.1977,0.1977,0.1977,0.1977,0.1977,0.1977,0.0,0.0,0.0,0.0,0.0,0.0,0.0,0.0,0.0,0.0,0.0,0.0,0.0,0.0,0.0,0.0,0.7598,0.7376,0.7152,0.6031,0.4916,0.3692,0.2465,0.1795,0.1795,0.1795,0.1795,0.1795,0.0,0.0,0.1795,0.1803,0.1806,0.0,0.183,0.1849,0.1866,0.0,0.0,0.1945,0.1967,0.1977,0.1977,0.1977,0.1977,0.1977,0.1977,0.1977,0.1977,0.1977,0.1977,0.1977,0.1977,0.1977,0.0,0.0,0.0,0.0,0.0,0.0,0.1977,0.1977,0.1977,0.1977,0.1977,0.1977,0.1977,0.1977,0.1977,0.1977,0.1977,0.1977,0.1977,0.1977,0.1977,0.1977,0.1977,0.1977,0.1977,0.1977,0.1977,0.1977,0.1977,0.1977,0.1977,0.1977,0.1977,0.1977,0.1977,0.1977,0.1977,0.1977,0.1977,0.1977,0.1977,0.1977,0.1977,0.1977,0.1977,0.1977,0.1977,0.1977,0.1977,0.1977,0.1977,0.1977,0.1977,0.1977,0.1977,0.1977,0.1977,0.1977,0.1977,0.1977,0.1977,0.1977,0.0,0.0,0.0,0.0,0.0,0.0,0.0,0.0,0.0,0.0,0.0,0.0,0.8927,0.8816,0.8819,0.8826,0.8826,0.8269,0.7152,0.6031,0.4916,0.3692,0.2465,0.0,0.1795,0.1795,0.1795,0.1795,0.0,0.0,0.1795,0.1825,0.1838,0.1838,0.184,0.1872,0.1926,0.0,0.0,0.0,0.1976,0.1977,0.1977,0.1977,0.1977,0.1977,0.1977,0.1977,0.1977,0.1977,0.1977,0.1977,0.1977,0.1977,0.1977,0.0,0.0,0.0,0.0,0.1977,0.0,0.1977,0.1977,0.1977,0.1977,0.1977,0.1977,0.1977,0.1977,0.1977,0.1977,0.1977,0.1977,0.1977,0.1977,0.1977,0.1977,0.1977,0.1977,0.1977,0.1977,0.1977,0.1977,0.1977,0.1977,0.1977,0.1977,0.1977,0.1977,0.1977,0.1977,0.1977,0.1977,0.1977,0.1977,0.1977,0.1977,0.1977,0.1977,0.1977,0.1977,0.1977,0.1977,0.1977,0.1977,0.1977,0.1977,0.1977,0.1977,0.1977,0.1977,0.1977,0.1977,0.1977,0.1977,0.1977,0.0,0.0,0.0,0.0,0.0,0.0,0.0,0.0,0.0,0.0,0.0,0.0,0.0,0.894,0.894,0.894,0.894,0.8716,0.8269,0.7149,0.6258,0.5813,0.4027,0.2911,0.2911,0.2242,0.1795,0.0,0.0,0.1805,0.1824,0.1835,0.1862,0.1898,0.1898,0.1911,0.1932,0.1952,0.0,0.0,0.1977,0.1977,0.1977,0.1977,0.1977,0.1977,0.1977,0.1977,0.1977,0.1977,0.1977,0.1977,0.1977,0.1977,0.1977,0.0,0.0,0.0,0.0,0.0,0.0,0.1977,0.1977,0.1977,0.1977,0.1977,0.1977,0.1977,0.1977,0.1977,0.1977,0.1977,0.1977,0.1977,0.1977,0.1977,0.1977,0.1977,0.1977,0.1977,0.1977,0.1977,0.1977,0.1977,0.1977,0.1977,0.1977,0.1977,0.1977,0.1977,0.1977,0.1977,0.1977,0.1977,0.1977,0.1977,0.1977,0.1977,0.1977,0.1977,0.1977,0.1977,0.1977,0.1977,0.1977,0.1977,0.1977,0.1977,0.1977,0.1977,0.1977,0.1977,0.1977,0.1977,0.1977,0.1977,0.0,0.0,0.0,0.0,0.0,0.0,0.0,0.0,0.0,0.894,0.0,0.0,0.0,0.0,0.894,0.894,0.894,0.894,0.894,0.7823,0.7152,0.7152,0.5252,0.4026,0.358,0.28,0.2248,0.181,0.181,0.1825,0.0,0.1866,0.1892,0.1932,0.1942,0.1947,0.0,0.0,0.0,0.1977,0.1977,0.1977,0.1977,0.1977,0.1977,0.1977,0.1977,0.1977,0.1977,0.1977,0.1977,0.1977,0.1977,0.1977,0.1977,0.0,0.0,0.0,0.1977,0.0,0.0,0.1977,0.1977,0.1977,0.1977,0.1977,0.1977,0.1977,0.1977,0.1977,0.1977,0.1977,0.1977,0.1977,0.1977,0.1977,0.1977,0.1977,0.1977,0.1977,0.1977,0.1977,0.1977,0.1977,0.1977,0.1977,0.1977,0.1977,0.1977,0.1977,0.1977,0.1977,0.1977,0.1977,0.1977,0.1977,0.1977,0.1977,0.1977,0.1977,0.1977,0.1977,0.1977,0.1977,0.1977,0.1977,0.1977,0.1977,0.1977,0.1977,0.1977,0.1977,0.1977,0.1977,0.2215,0.2572,0.0,0.0,0.0,0.0,0.0,0.0,0.0,0.0,0.894,0.894,0.0,0.0,0.0,0.0,0.0,0.894,0.894,0.894,0.894,0.782,0.7152,0.7152,0.6033,0.4918,0.3694,0.3695,0.305,0.1841,0.1841,0.1857,0.1888,0.1917,0.1932,0.1934,0.1963,0.1977,0.1977,0.1977,0.1977,0.1977,0.1977,0.1977,0.1977,0.1977,0.1977,0.1977,0.1977,0.1977,0.1977,0.1977,0.1977,0.1977,0.1977,0.1977,0.0,0.0,0.0,0.0,0.0,0.0,0.0,0.1977,0.1977,0.1977,0.1977,0.1977,0.1977,0.1977,0.1977,0.1977,0.1977,0.1977,0.1977,0.1977,0.1977,0.1977,0.1977,0.1977,0.1977,0.1977,0.1977,0.1977,0.1977,0.1977,0.1977,0.1977,0.1977,0.1977,0.1977,0.1977,0.1977,0.1977,0.1977,0.1977,0.1977,0.1977,0.1977,0.1977,0.1977,0.1977,0.1977,0.1977,0.1977,0.1977,0.2099,0.2099,0.2099,0.1977,0.1977,0.2099,0.2099,0.2099,0.2099,0.2099,0.2809,0.3731,0.0,0.0,0.0,0.0,0.0,0.894,0.894,0.894,0.894,0.0,0.0,0.0,0.894,0.894,0.894,0.894,0.894,0.894,0.894,0.8602,0.838,0.838,0.7263,0.6517,0.6365,0.5461,0.4476,0.3272,0.3272,0.2829,0.1919,0.1927,0.1943,0.1964,0.1973,0.1977,0.1977,0.1977,0.1977,0.1977,0.1977,0.1977,0.1977,0.1977,0.1977,0.1977,0.1977,0.1977,0.1977,0.1977,0.1977,0.1977,0.1977,0.0,0.0,0.0,0.0,0.0,0.1977,0.0,0.0,0.0,0.0,0.0,0.1977,0.1977,0.1977,0.1977,0.1977,0.1977,0.1977,0.1977,0.1977,0.1977,0.1977,0.1977,0.1977,0.1977,0.1977,0.1977,0.1977,0.1977,0.1977,0.1977,0.1977,0.1977,0.1977,0.1977,0.1977,0.1977,0.1977,0.1977,0.1977,0.1977,0.1977,0.1977,0.1977,0.1977,0.1977,0.1977,0.1977,0.1977,0.1977,0.2099,0.2958,0.3325,0.3325,0.2345,0.259,0.3325,0.3325,0.3939,0.479,0.474,0.4829,0.5163,0.0,0.0,0.0,0.894,0.894,0.894,0.894,0.894,0.894,0.0,0.0,0.0,0.894,0.894,0.8964,0.9022,0.9028,0.9055,0.912,0.9123,0.9123,0.9123,0.8439,0.7903,0.7514,0.6824,0.5832,0.4628,0.4628,0.4308,0.3524,0.3524,0.3299,0.2836,0.2836,0.2468,0.1977,0.1977,0.1977,0.1977,0.1977,0.1977,0.1977,0.1977,0.1977,0.1977,0.1977,0.1977,0.1977,0.1977,0.1977,0.1977,0.1977,0.1977,0.0,0.1977,0.0,0.0,0.0,0.0,0.0,0.1977,0.0,0.0,0.2714,0.2836,0.2959,0.3573,0.3573,0.3573,0.3573,0.3573,0.3573,0.3573,0.3573,0.3206,0.2099,0.1977,0.2223,0.2713,0.2836,0.2958,0.3573,0.3573,0.3449,0.2836,0.3328,0.3328,0.2836,0.2836,0.259,0.1977,0.3082,0.3328,0.2836,0.3328,0.3573,0.3573,0.3573,0.3573,0.3573,0.3573,0.3573,0.3696,0.4429,0.4795,0.4673,0.394,0.4062,0.4669,0.4642,0.5115,0.5833,0.5626,0.5924,0.635,0.0,0.0,0.894,0.894,0.894,0.894,0.894,0.894,0.894,0.0,0.8954,0.896,0.896,0.8977,0.9039,0.9167,0.9178,0.9235,0.9371,0.9381,0.9381,0.9381,0.9381,0.892,0.788,0.7877,0.723,0.6146,0.6146,0.6064,0.5896,0.5896,0.5161,0.3936,0.3936,0.0,0.1977,0.1977,0.1977,0.1977,0.1977,0.1977,0.1977,0.1977,0.1977,0.1977,0.1977,0.1977,0.1977,0.1977,0.1977,0.1977,0.1977,0.1977,0.1977,0.1977,0.1977,0.0,0.0,0.0,0.0,0.1977,0.1977,0.0,0.3447,0.3692,0.406,0.5163,0.5408,0.5408,0.5408,0.5408,0.5531,0.5651,0.5651,0.4918,0.2714,0.2469,0.2836,0.3937,0.4182,0.455,0.5774,0.5896,0.5406,0.4182,0.5284,0.5406,0.4182,0.4182,0.3571,0.2469,0.4674,0.5284,0.4182,0.5284,0.5896,0.5896,0.5896,0.5896,0.5896,0.5896,0.5896,0.5896,0.6018,0.6137,0.6126,0.6248,0.6248,0.6117,0.592,0.6003,0.61,0.6003,0.6606,0.7434,0.0,0.894,0.894,0.894,0.894,0.894,0.894,0.894,0.894,0.894,0.9039,0.9113,0.9113,0.9222,0.9306,0.9334,0.9337,0.9351,0.9381,0.9381,0.9381,0.9381,0.9381,0.9322,0.9202,0.9206,0.8671,0.7459,0.7459,0.6979,0.5896,0.5896,0.5161,0.3936,0.3936,0.3203,0.1977,0.1977,0.1977,0.1977,0.1977,0.1977,0.1977,0.1977,0.1977,0.1977,0.1977,0.1977,0.1977,0.1977,0.1977,0.1977,0.1977,0.1977,0.1977,0.1977,0.1977,0.1977,0.1977,0.1977,0.1977,0.1977,0.1977,0.0,0.2346,0.2345,0.2468,0.2715,0.2714,0.2714,0.2714,0.2714,0.3082,0.4183,0.4304,0.455,0.504,0.5163,0.5286,0.5529,0.5529,0.5651,0.5896,0.5896,0.5774,0.5529,0.5774,0.5774,0.5529,0.5529,0.5408,0.5163,0.5651,0.5774,0.5529,0.5774,0.5896,0.5896,0.5896,0.5896,0.5896,0.5896,0.5896,0.6018,0.6999,0.7438,0.7357,0.8444,0.8202,0.7235,0.7215,0.7864,0.87,0.8558,0.8603,0.8794,0.894,0.894,0.894,0.894,0.894,0.894,0.894,0.8998,0.9045,0.9045,0.9174,0.9266,0.9266,0.9337,0.9412,0.949,0.9496,0.9527,0.9595,0.9602,0.9602,0.9602,0.9602,0.9635,0.9713,0.9717,0.9385,0.8839,0.8839,0.8468,0.7856,0.7856,0.6754,0.4916,0.4916,0.3817,0.1977,0.1977,0.1977,0.1977,0.1977,0.1977,0.1977,0.1977,0.1977,0.1977,0.1977,0.1977,0.1977,0.1977,0.2468,0.2958,0.2958,0.3449,0.394,0.394,0.3449,0.2958,0.2958,0.2468,0.1977,0.1977,0.1977,0.0,0.0,0.2958,0.3081,0.3817,0.394,0.394,0.394,0.394,0.443,0.5653,0.5896,0.6385,0.7612,0.6754,0.6141,0.6877,0.6877,0.7121,0.7734,0.7856,0.7856,0.7856,0.663,0.6141,0.6877,0.6877,0.6632,0.5896,0.7121,0.749,0.6877,0.7487,0.7856,0.7856,0.7856,0.7856,0.7856,0.7856,0.7856,0.7853,0.8527,0.8705,0.8641,0.9288,0.9095,0.8442,0.8442,0.8749,0.9249,0.91,0.9045,0.9035,0.895,0.894,0.8947,0.8974,0.8981,0.8991,0.9022,0.9123,0.9198,0.9198,0.933,0.9425,0.9425,0.9449,0.9513,0.9639,0.9649,0.97,0.9815,0.9822,0.9822,0.9822,0.9822,0.9822,0.9822,0.9822,0.9822,0.9822,0.9822,0.9822,0.9822,0.9822,0.8593,0.6263,0.6263,0.492,0.2715,0.2468,0.2468,0.2715,0.2468,0.2223,0.1977,0.1977,0.1977,0.1977,0.1977,0.1977,0.1976,0.2222,0.2836,0.357,0.4182,0.4794,0.5529,0.5774,0.5161,0.4304,0.4304,0.3571,0.2714,0.2714,0.2714,0.2959,0.0,0.0,0.0,0.5651,0.5896,0.5896,0.5896,0.5896,0.6381,0.7583,0.7842,0.834,0.9539,0.7964,0.6999,0.8102,0.8224,0.8714,0.9697,0.9822,0.9822,0.9822,0.7856,0.7121,0.8224,0.8224,0.7734,0.6632,0.8714,0.9329,0.8224,0.9329,0.9822,0.9822,0.9822,0.9822,0.9819,0.9791,0.9781,0.9771,0.9629,0.9547,0.951,0.9388,0.9249,0.9113,0.9144,0.9137,0.9096,0.8981,0.894,0.894,0.8991,0.894,0.8977,0.9106,0.9127,0.9174,0.931,0.9344,0.9354,0.9354,0.949,0.9585,0.9585,0.9696,0.9778,0.9795,0.9795,0.9802,0.9819,0.9822,0.9822,0.9822,0.9822,0.9822,0.9822,0.9822,0.9822,0.9822,0.9822,0.9822,0.9822,0.9822,0.9083,0.7734,0.7734,0.6877,0.5408,0.4183,0.4429,0.5408,0.4183,0.2958,0.1977,0.1977,0.1977,0.1977,0.1977,0.1977,0.2223,0.3325,0.3081,0.259,0.492,0.4916,0.4304,0.5529,0.5774,0.5651,0.5651,0.5529,0.5408,0.5408,0.5408,0.5531,0.5651,0.0,0.5774,0.5896,0.0,0.5896,0.5896,0.0,0.0,0.748,0.779,0.8308,0.941,0.9499,0.9451,0.9576,0.9576,0.9697,0.9822,0.9822,0.9822,0.9822,0.9576,0.9451,0.9576,0.9576,0.9576,0.9329,0.9697,0.97,0.9576,0.97,0.9822,0.9822,0.9822,0.9822,0.9819,0.969,0.9635,0.9625,0.9473,0.933,0.9205,0.9188,0.9093,0.8977,0.9103,0.9076,0.896,0.8944,0.894,0.894,0.9239,0.9195,0.9215,0.9276,0.9286,0.9306,0.9371,0.9456,0.9544,0.9625,0.9693,0.9734,0.9734,0.9785,0.0,0.0,0.0,1.0061,1.0061,1.0061,0.994,0.9822,0.9822,0.9822,0.9822,0.9822,0.9822,0.9822,0.9822,0.9822,0.9822,0.9822,0.9083,0.7858,0.7858,0.7121,0.5896,0.5284,0.5406,0.5896,0.5284,0.4795,0.4186,0.3449,0.259,0.2099,0.2836,0.3081,0.3326,0.4673,0.5163,0.5655,0.6754,0.7121,0.7487,0.7978,0.7612,0.7121,0.7121,0.6508,0.5896,0.5896,0.5896,0.5896,0.5896,0.5896,0.5896,0.5896,0.0,0.0,0.0,0.0,0.0,0.0,0.7826,0.8332,0.9496,0.9785,0.9822,0.9822,0.9822,0.9822,0.9822,0.9822,0.9822,0.9822,0.9822,0.9822,0.9822,0.9822,0.9822,0.9822,0.9822,0.9822,0.9822,0.9822,0.9822,0.9822,0.9822,0.9778,0.9696,0.9635,0.9561,0.9469,0.9313,0.9211,0.9147,0.9062,0.8991,0.8944,0.9005,0.8991,0.894,0.894,0.894,0.894,0.9641,0.0,0.0,0.9435,0.9445,0.9456,0.9496,0.9595,0.9703,0.9805,0.9822,0.9822,0.9822,0.994,1.0061,0.0,1.0425,1.0425,1.0425,1.0304,1.0183,1.0061,0.9943,0.9822,0.994,0.9822,0.9822,0.9822,0.9822,0.9822,0.9822,0.9822,0.9329,0.8471,0.8471,0.7978,0.7118,0.663,0.6752,0.7118,0.663,0.6388,0.6263,0.4916,0.3816,0.3204,0.406,0.4427,0.4671,0.6018,0.6877,0.749,0.8224,0.8836,0.9329,0.9697,0.9086,0.8471,0.8471,0.7734,0.6999,0.6999,0.6999,0.6999,0.6999,0.6999,0.6999,0.6999,0.6999,0.0,0.0,0.0,0.7235,0.8181,0.0,0.8702,0.9647,0.9795,0.9822,0.9822,0.9822,0.9822,0.9822,0.9822,0.9822,0.9822,0.9822,0.9822,0.9822,0.9822,0.9822,0.9822,0.9822,0.9822,0.9822,0.9822,0.9802,0.9764,0.9764,0.9686,0.9547,0.9503,0.9422,0.931,0.9161,0.9093,0.9086,0.8981,0.894,0.894,0.894,0.894,0.894,0.894,0.894,0.894,1.0293,0.9815,0.0,0.9578,0.9602,0.9649,0.9785,0.9812,0.9815,0.9822,0.9822,0.9822,0.9822,1.0061,1.0304,1.0304,1.0547,1.0789,1.0789,1.0425,1.0425,1.0789,1.0183,0.994,1.0304,0.9943,0.9822,0.9822,0.9822,0.9822,0.9822,0.9822,0.9819,0.97,0.97,0.994,1.0058,0.8468,0.8711,1.0058,0.8468,0.7858,0.7734,0.6388,0.5774,0.5776,0.5774,0.5896,0.6018,0.7365,0.6999,0.6385,0.8961,0.8961,0.8224,0.9454,0.9819,0.97,0.97,0.9697,0.9697,0.9697,0.9697,0.9697,0.9697,0.9697,0.9697,0.9697,0.9697,0.9697,0.9697,0.9697,0.9654,0.952,0.961,0.0,0.0,0.9734,0.9822,0.9822,0.9822,0.9822,0.9822,0.9822,0.9822,0.9822,0.9822,0.9822,0.9822,0.9822,0.9822,0.9822,0.9822,0.9822,0.9822,0.9822,0.9751,0.9615,0.9615,0.9537,0.9384,0.9235,0.9164,0.9154,0.9008,0.8947,0.8947,0.894,0.894,0.894,0.894,0.894,0.894,0.894,0.894,0.894,0.0,0.0,0.0,0.0,0.9747,0.9768,0.9815,0.9822,0.9819,1.0061,1.0183,1.0183,1.0425,1.0547,1.0668,1.091,1.1031,1.1152,1.1152,1.0789,1.0668,1.0789,1.0183,0.9943,1.0304,0.9943,0.9822,0.9822,0.9822,0.9822,0.9822,0.9822,0.9822,0.9822,0.9822,0.9822,0.994,0.9329,0.9451,0.994,0.9329,0.9207,0.8961,0.6754,0.5896,0.6018,0.6877,0.7243,0.7368,0.8714,0.8839,0.8593,0.9576,0.9454,0.9207,0.9697,0.9822,0.9822,0.9822,0.9822,0.9822,0.9822,0.9822,0.9822,0.9822,0.9822,0.9822,0.9822,0.9822,0.9822,0.9822,0.9822,0.9805,0.9758,0.9788,0.9802,0.0,0.9791,0.9822,0.9822,0.9822,0.9822,0.9822,0.9822,0.9822,0.9822,0.9822,0.9822,0.9822,0.9822,0.9822,0.9822,0.9822,0.9774,0.9683,0.9683,0.9605,0.9459,0.9459,0.9378,0.9228,0.9174,0.91,0.9008,0.896,0.894,0.894,0.894,0.894,0.894,0.894,0.894,0.894,0.894,0.894,0.894,1.1148,1.1031,1.0789,1.0304,1.0061,0.994,0.9822,0.9943,1.0061,1.0304,1.0425,1.0547,1.0789,1.091,1.1031,1.1273,1.1398,1.1398,1.1273,1.1152,1.1031,1.1031,1.0425,1.0304,1.0668,1.0304,1.0061,0.994,0.994,0.9943,0.9822,0.9822,0.9822,0.9822,0.9822,0.9822,0.9943,0.9822,0.9822,0.994,0.994,1.0061,0.994,0.834,0.7487,0.7365,0.8346,0.8714,0.8714,0.9576,0.9822,0.9822,0.9822,0.9822,0.9822,0.9822,0.9822,0.9822,0.9822,0.9822,0.9822,0.9822,0.9822,0.9822,0.9822,0.9822,0.9822,0.9822,0.9822,0.9822,0.9822,0.9822,0.9822,0.9822,0.9822,0.9822,0.0,0.9778,0.9744,0.9744,0.9791,0.9822,0.9822,0.9822,0.9822,0.9822,0.9822,0.9822,0.9822,0.9822,0.9798,0.9747,0.9744,0.9676,0.953,0.953,0.9452,0.93,0.93,0.9222,0.9076,0.9076,0.9025,0.894,0.894,0.894,0.894,0.894,0.894,0.894,0.894,0.894,0.894,0.894,0.894,0.894,1.1542,1.1417,1.1296,1.0936,1.0558,1.0183,0.9943,1.0065,1.0304,1.0304,1.0668,1.0789,1.0789,1.1152,1.1273,1.1273,1.1647,1.1651,1.1394,1.1273,1.1273,1.1273,1.1031,1.091,1.1273,1.091,1.0668,1.0304,1.0304,1.0183,0.9822,0.9822,0.9822,0.9822,0.9822,0.994,1.0304,0.9943,1.0065,1.0304,1.0304,1.0547,1.0789,1.0789,1.0425,0.994,1.0183,1.0065,0.9822,0.9822,0.9819,0.9822,0.9822,0.9822,0.9822,0.9822,0.9822,0.9822,0.9822,0.9822,0.9822,0.9822,0.9822,0.9822,0.9822,0.9822,0.9822,0.9822,0.9822,0.9822,0.9822,0.9822,0.9822,0.9822,0.9822,0.9819,0.9812,0.9693,0.9605,0.9598,0.9724,0.9808,0.9798,0.9805,0.9812,0.9812,0.9812,0.9812,0.9812,0.9802,0.9737,0.9602,0.9598,0.9523,0.9371,0.9371,0.9293,0.9144,0.9144,0.9069,0.894,0.894,0.894,0.894,0.894,0.894,0.894,0.894,0.894,0.894,0.894,0.894,0.894,0.894,0.894,0.894,1.3757,1.2777,1.1916,1.1541,1.108,1.0668,1.0547,1.0668,1.0789,1.1031,1.1152,1.1277,1.153,1.1651,1.1651,1.1651,1.1776,1.1776,1.1651,1.1398,1.1398,1.1651,1.1156,1.091,1.1273,1.091,1.0789,1.0668,1.0668,1.0668,1.0547,1.0547,1.0425,1.0183,1.0183,1.0183,1.0304,1.0183,1.0425,1.0668,1.0668,1.0668,1.0789,1.1031,1.091,1.0547,1.0668,1.0668,1.0547,1.0547,1.0425,1.0183,1.0183,0.994,0.9822,0.9822,0.9822,0.9822,0.9822,0.9822,0.9822,0.9822,0.9822,0.9822,0.9822,0.9822,0.9822,0.9822,0.9822,0.9822,0.9822,0.9822,0.9822,0.9822,0.9822,0.9785,0.968,0.9632,0.9568,0.9452,0.9574,0.9618,0.9503,0.9598,0.9663,0.9663,0.9663,0.9663,0.9663,0.9554,0.9479,0.9442,0.9439,0.9367,0.9211,0.9211,0.9137,0.8994,0.8994,0.8974,0.894,0.894,0.894,0.894,0.894,0.894,0.894,0.894,0.894,0.894,0.894,0.894,0.894,0.894,0.894,0.894,1.4663,1.3299,1.2178,1.2055,1.176,1.1379,1.1009,1.1132,1.1256,1.1503,1.1626,1.1753,1.2008,1.2008,1.2008,1.2008,1.1935,1.1886,1.1642,1.1566,1.1522,1.1526,1.1405,1.1281,1.1522,1.1281,1.116,1.1031,1.091,1.0789,1.0547,1.0547,1.0425,1.0304,1.0304,1.0425,1.0547,1.0547,1.0668,1.0789,1.091,1.1156,0.0,1.1402,1.1402,1.1281,1.1281,1.0914,1.0547,1.0547,1.0304,1.0061,1.0061,0.994,0.9819,0.994,1.0065,1.0065,1.0065,1.0065,0.994,0.9819,0.9822,0.9822,0.9822,0.9822,0.9822,0.9822,0.9822,0.9822,0.9822,0.9822,0.9822,0.9822,0.9822,0.9889,1.0332,1.0252,1.0262,1.0097,1.0097,1.0071,0.9979,0.9789,0.9581,0.9513,0.951,0.951,0.951,0.9429,0.9351,0.9283,0.9283,0.9211,0.9059,0.9059,0.9018,0.894,0.894,0.894,0.894,0.894,0.894,0.894,0.894,0.894,0.894,0.894,0.894,0.894,0.894,0.894,0.894,0.894,0.894,0.894,1.4997,1.3627,1.2627,1.2627,1.25,1.2123,1.161,1.1703,1.1929,1.1929,1.2182,1.2308,1.2308,1.2308,1.2308,1.2308,1.2158,1.1933,1.1538,1.1768,1.1671,1.1398,1.1647,1.1776,1.1776,1.1776,1.1651,1.1398,1.1035,1.0793,1.055,1.055,1.0425,1.0425,1.0425,1.0547,1.091,1.091,1.0914,1.091,1.1273,1.1522,1.1776,1.1776,1.1776,1.1776,1.1776,1.1285,1.055,1.055,1.0304,0.994,0.994,0.9943,0.994,1.0304,1.0304,1.0304,1.0304,1.0304,1.0183,0.9822,0.9822,0.9822,0.9822,0.9822,0.9822,0.9822,0.9822,0.9822,0.9822,0.9822,0.9822,1.0061,1.0061,1.0247,1.1028,1.1229,1.129,1.0968,1.0933,0.0,1.0895,1.01,0.961,0.9592,0.9466,0.9351,0.9351,0.9334,0.9262,0.913,0.9123,0.9066,0.894,0.894,0.894,0.894,0.894,0.894,0.894,0.894,0.894,0.894,0.894,0.894,0.894,0.894,0.894,0.894,0.894,0.894,0.894,0.894,0.894,0.894,1.6856,1.5445,1.4415,1.4415,1.3518,1.2612,1.2612,1.2367,1.2182,1.2182,1.2308,1.2308,1.2308,1.2308,1.2308,1.2308,1.2276,1.219,1.1917,1.2,1.1922,1.178,1.1776,1.1776,1.1776,1.1776,1.1776,1.1651,1.1651,1.153,1.153,1.153,1.1405,1.1152,1.1152,1.1152,1.1273,1.1526,1.1651,1.1651,1.1651,1.1776,1.1776,1.1776,1.1776,1.1776,1.1776,1.1655,1.153,1.153,1.1281,1.1031,1.1031,1.091,1.0668,1.0668,1.0547,1.0304,1.0304,1.0061,0.9822,0.9822,0.9822,0.9822,0.9822,0.9822,0.9822,0.9822,0.9822,0.9822,0.9822,0.9822,1.0183,1.1148,1.139,1.097,1.0098,1.1682,1.2458,1.1097,1.1946,1.2459,1.2119,1.0339,0.9674,1.0545,0.9756,0.9195,0.9195,0.9079,0.9005,0.8977,0.8977,0.8964,0.894,0.894,0.894,0.894,0.894,0.894,0.894,0.894,0.894,0.894,0.894,0.894,0.894,0.894,0.894,0.894,0.894,0.894,0.894,0.894,0.894,0.894,1.8133,1.6328,1.5168,1.5814,1.4777,1.3875,1.3875,1.3717,1.3345,1.2709,1.2584,1.2584,1.2584,1.2584,1.2584,1.2584,1.2495,1.2402,1.2312,1.2134,1.1996,1.191,1.1825,1.1776,1.1776,1.1776,1.1776,1.1776,1.1647,1.1522,1.1522,1.1522,1.1398,1.1273,1.1522,1.1402,1.1031,1.1526,1.1651,1.1526,1.1772,1.1776,1.1776,1.1776,1.1776,1.1776,1.1776,1.1776,1.1776,1.1647,1.1277,1.1031,1.1031,1.091,1.0789,1.1031,1.091,1.0789,1.0789,1.0668,1.0547,1.0304,1.0183,1.0061,1.0061,0.9943,0.9822,0.9822,0.994,1.0304,1.091,1.0906,1.1265,1.247,1.2711,1.264,1.2565,1.3486,1.3749,1.2879,1.328,1.3527,1.331,1.1849,1.1134,1.1687,1.0584,1.0032,1.0032,0.9846,0.9588,0.8937,0.894,0.894,0.894,0.894,0.894,0.894,0.894,0.894,0.894,0.894,0.894,0.894,0.894,0.894,0.894,0.894,0.894,0.894,0.894,0.894,0.894,0.894,0.894,0.894,1.9425,1.749,1.6073,1.7232,1.6073,1.4907,1.4907,1.4651,1.4002,1.2968,1.2836,1.2836,1.2836,1.2836,1.2836,1.2836,1.2706,1.2605,1.2564,1.23,1.2109,1.2032,1.1902,1.1813,1.1776,1.1776,1.1776,1.1776,1.1522,1.1398,1.1398,1.1398,1.1398,1.1398,1.1651,1.153,1.1035,1.153,1.1651,1.1398,1.1651,1.1776,1.1776,1.1776,1.1776,1.1776,1.1776,1.1776,1.1776,1.1522,1.1277,1.1035,1.1035,1.1035,1.1035,1.1277,1.1394,1.1273,1.1273,1.1273,1.1152,1.091,1.0547,1.0425,1.0304,1.0183,0.9943,0.9819,1.0301,1.1144,1.2826,1.2586,1.2582,1.4018,1.4143,1.4321,1.4855,1.5085,1.5074,1.4727,1.4604,1.4656,1.4606,1.3506,1.2852,1.3171,1.1869,1.1105,1.1105,1.1105,1.0457,0.9372,0.9261,0.9154,0.894,0.894,0.894,0.894,0.894,0.894,0.894,0.894,0.894,0.894,0.894,0.894,0.894,0.894,0.894,0.894,0.894,0.894,0.894,0.894,0.894,0.894,2.0849,1.9686,1.8652,1.878,1.6586,1.4907,1.4907,1.3875,1.2968,1.2836,1.2836,1.2836,1.2836,1.2836,1.2836,1.2836,1.2824,1.2739,1.2576,1.2532,1.2369,1.2044,1.2016,1.1935,1.178,1.1776,1.1776,1.1776,1.1776,1.1776,1.1776,1.1776,1.1776,1.1776,1.1776,1.1776,1.1655,1.1776,1.1776,1.1776,1.1776,1.1776,1.1776,1.1776,1.1776,1.1776,1.1776,1.1776,1.1776,1.1776,1.1772,1.1655,1.1655,1.1655,1.1655,1.1772,1.1522,1.1273,1.1273,1.1031,1.0789,1.0789,1.0789,1.0668,1.0425,1.0547,1.0547,0.994,1.102,1.2808,1.5558,1.4842,1.4242,1.5548,1.5564,1.509,1.3994,1.5571,1.6378,1.4982,1.5521,1.6042,1.5803,1.4702,1.4487,1.5458,1.3496,1.22,1.22,1.22,1.176,1.0566,1.0566,1.0021,0.894,0.894,0.894,0.894,0.894,0.894,0.894,0.894,0.894,0.894,0.894,0.894,0.894,0.894,0.894,0.894,0.894,0.894,0.894,0.894,0.894,0.894,2.1109,1.9941,1.9291,2.0075,1.8652,1.7103,1.6328,1.5684,1.4651,1.2968,1.2836,1.2836,1.2836,1.2836,1.2836,1.2836,1.2836,1.2804,1.2731,1.2625,1.2454,1.2207,1.2089,1.1951,1.178,1.1776,1.1776,1.1776,1.1776,1.1776,1.1776,1.1776,1.1776,1.1776,1.1776,1.1776,1.1776,1.1776,1.1776,1.1776,1.1776,1.1776,1.1776,1.1776,1.1776,1.1776,1.1776,1.1776,1.1776,1.1776,1.1776,1.1776,1.1776,1.1776,1.1776,1.1776,1.1651,1.1647,1.1647,1.1526,1.1405,1.1405,1.1277,1.1269,1.1864,1.1985,1.2101,1.2573,1.3168,1.4247,1.6397,1.6149,1.5908,1.722,1.7238,1.6885,1.652,1.6875,1.6916,1.6357,1.6308,1.6221,1.5903,1.5458,1.5458,1.5891,1.4374,1.3511,1.3511,1.3511,1.296,1.176,1.1109,1.0457,1.0025,0.9265,0.894,0.894,0.894,0.894,0.894,0.894,0.894,0.894,0.894,0.894,0.894,0.894,0.894,0.894,0.894,0.894,0.894,0.894,0.894,0.894,2.1109,2.0329,1.9941,2.0976,1.9941,1.8652,1.7748,1.6845,1.5684,1.3744,1.3095,1.2836,1.2836,1.2836,1.2836,1.2836,1.2836,1.2836,1.2836,1.2714,1.2564,1.2389,1.2211,1.2032,1.1853,1.1801,1.1776,1.1776,1.1776,1.1776,1.1776,1.1776,1.1776,1.1776,1.1776,1.1776,1.1776,1.1776,1.1776,1.1776,1.1776,1.1776,1.1776,1.1776,1.1776,1.1776,1.1776,1.1776,1.1776,1.1776,1.1776,1.1776,1.1776,1.1776,1.1776,1.1776,1.1776,1.1776,1.1776,1.2014,1.2367,1.2367,1.2479,1.2826,1.354,1.3655,1.3889,1.5198,1.5311,1.579,1.7467,1.7461,1.7461,1.8415,1.8311,1.8169,1.8191,1.7654,1.7216,1.6919,1.6609,1.6217,1.5891,1.5891,1.5891,1.5891,1.5137,1.4708,1.4708,1.4708,1.4159,1.296,1.22,1.1437,1.0672,0.9805,0.9265,0.894,0.894,0.894,0.894,0.894,0.894,0.894,0.894,0.894,0.894,0.894,0.894,0.894,0.894,0.894,0.894,0.894,0.894,0.894,2.1109,2.1109,2.1109,2.1109,1.9941,1.9036,1.9036,1.6716,1.4907,1.4912,1.3613,1.2836,1.2836,1.2836,1.2836,1.2836,1.2836,1.2836,1.2836,1.2836,1.2751,1.2568,1.2393,1.2219,1.2028,1.1861,1.1776,1.1776,1.1776,1.1776,1.1776,1.1776,1.1776,1.1776,1.1776,1.1776,1.1776,1.1776,1.1776,1.1776,1.1776,1.1776,1.1776,1.1776,1.1776,1.1776,1.1776,1.1776,1.1776,1.1776,1.1776,1.1776,1.1776,1.1776,1.1776,1.1776,1.1776,1.1776,1.1776,1.2724,1.3665,1.3665,1.4619,1.5451,1.5208,1.5332,1.5924,1.7214,1.7208,1.7449,1.912,1.912,1.8881,1.8874,1.8648,1.8203,1.7696,1.7654,1.7271,1.6454,1.6282,1.6217,1.5891,1.5891,1.5891,1.5891,1.5891,1.5891,1.5891,1.5891,1.5351,1.4164,1.4169,1.3073,1.0672,1.0672,1.0131,0.894,0.894,0.894,0.894,0.894,0.894,0.894,0.894,0.894,0.894,0.894,0.894,0.894,0.894,0.894,0.894,0.894,0.894,0.894,2.1109,2.1109,2.1109,2.1109,2.0722,2.0075,1.917,1.8262,1.7361,1.6462,1.5944,1.5298,1.4394,1.3354,1.2836,1.2836,1.2836,1.2836,1.2836,1.2836,1.2755,1.2572,1.2398,1.2219,1.2032,1.1861,1.1776,1.1776,1.1776,1.1776,1.1776,1.1776,1.2251,1.3075,1.213,1.2251,1.308,1.213,1.1776,1.1776,1.1776,1.1776,1.1776,1.1776,1.1776,1.1776,1.1776,1.1776,1.1776,1.1776,1.1776,1.1776,1.1776,1.1776,1.1776,1.1776,1.1776,1.2014,1.284,1.343,1.3904,1.4738,1.5332,1.5806,1.6509,1.7461,1.8298,1.8771,1.8765,1.8765,1.9366,1.9366,1.9243,1.9243,1.9004,1.8667,1.8503,1.8097,1.7702,1.72,1.7028,1.6749,1.6217,1.6217,1.6105,1.5891,1.5891,1.5891,1.5891,1.5891,1.5779,1.5351,1.46,1.384,1.3073,1.2309,1.1655,1.1332,1.0457,0.9699,0.894,0.894,0.894,0.894,0.894,0.894,0.894,0.894,0.894,0.894,0.894,0.894,0.894,0.894,0.894,0.894,2.1109,2.1109,2.1109,2.1109,2.1109,2.0849,1.9941,1.9297,1.8652,1.7876,1.7367,1.6721,1.5814,1.4907,1.4002,1.2836,1.2836,1.2836,1.2836,1.2836,1.2787,1.267,1.2434,1.2499,1.2867,1.2617,1.2724,1.3204,1.3204,1.3204,1.3204,1.3204,1.3674,1.4381,1.3555,1.3674,1.4381,1.3555,1.3204,1.3204,1.2724,1.2483,1.2487,1.2014,1.1776,1.1776,1.1776,1.1776,1.1776,1.1776,1.2134,1.2483,1.2483,1.2844,1.3084,1.2608,1.2483,1.2844,1.4023,1.4733,1.5327,1.6161,1.6638,1.7232,1.8052,1.8887,1.9366,1.9366,1.9366,1.9366,1.9366,1.9366,1.9366,1.9366,1.9243,1.8981,1.8698,1.8368,1.7994,1.7371,1.7284,1.6961,1.653,1.6324,1.6217,1.6105,1.5998,1.5891,1.5891,1.5891,1.5891,1.5891,1.5244,1.4595,1.4169,1.3403,1.2852,1.2413,1.1214,1.0347,0.9592,0.9154,0.894,0.894,0.894,0.894,0.894,0.894,0.894,0.894,0.894,0.894,0.894,0.894,0.894,0.894,2.1109,2.1109,2.1109,2.1109,2.1109,2.1109,2.1109,1.9947,1.917,1.917,1.8005,1.7238,1.7109,1.7109,1.6073,1.3354,1.2964,1.2968,1.2968,1.2836,1.2836,1.2836,1.2623,1.3048,1.4159,1.3999,1.4381,1.5575,1.5575,1.5575,1.5575,1.5575,1.5693,1.5688,1.5693,1.5688,1.5688,1.5693,1.5575,1.5456,1.4262,1.3784,1.367,1.2487,1.2014,1.2014,1.2014,1.2014,1.2014,1.2014,1.284,1.3784,1.3784,1.4619,1.5332,1.4143,1.3784,1.4143,1.5332,1.6632,1.7572,1.7572,1.8525,1.9366,1.9366,1.9366,1.9366,1.9366,1.9366,1.9366,1.9366,1.9366,1.9366,1.9366,1.9352,1.9138,1.8223,1.8353,1.8018,1.6906,1.706,1.7067,1.6736,1.653,1.6324,1.6324,1.6105,1.5891,1.5891,1.5891,1.5891,1.5891,1.5891,1.5351,1.4385,1.4277,1.3727,1.2526,1.1437,1.0891,1.0781,0.9699,0.9158,0.9158,0.9047,0.9047,0.9047,0.8937,0.894,0.894,0.894,0.894,0.894,0.9047,0.8937,0.894,2.1109,2.1109,2.1109,2.1109,2.1109,2.1109,2.1109,2.0849,2.0589,2.0589,2.0329,1.9686,1.8652,1.8524,1.7876,1.6203,1.5038,1.439,1.439,1.3354,1.2836,1.2836,1.3374,1.3913,1.4154,1.4847,1.5332,1.5575,1.5575,1.5575,1.5575,1.5575,1.6161,1.6985,1.6042,1.6161,1.6985,1.6042,1.5575,1.5575,1.5213,1.5095,1.5095,1.4862,1.4743,1.4743,1.4743,1.4743,1.4743,1.4743,1.4862,1.5095,1.5095,1.5332,1.5575,1.5219,1.5095,1.5451,1.675,1.722,1.7695,1.8765,1.9127,1.9366,1.9366,1.9366,1.9366,1.9366,1.9366,1.9366,1.9366,1.9366,1.9366,1.9366,1.9178,1.8898,1.8426,1.829,1.7901,1.7417,1.7477,1.7378,1.7067,1.7067,1.6855,1.663,1.6318,1.6217,1.6217,1.5998,1.5891,1.5891,1.5891,1.5785,1.5458,1.5458,1.4917,1.3732,1.3511,1.2856,1.1982,1.1655,1.1546,1.1546,1.0676,1.0237,1.0241,0.9261,0.894,0.894,0.894,0.894,0.9047,0.9915,0.9699,0.9047,2.1109,2.1109,2.1109,2.1109,2.1109,2.1109,2.1109,2.1109,2.1109,2.1109,2.1109,2.0849,2.0068,1.9947,1.9686,1.8914,1.6974,1.5814,1.5814,1.5168,1.4782,1.4782,1.5008,1.5396,1.6021,1.6286,1.675,1.7349,1.7349,1.7349,1.7349,1.7349,1.7701,1.8292,1.7701,1.7701,1.8292,1.7584,1.7349,1.7349,1.675,1.6514,1.6397,1.5806,1.5575,1.5575,1.5575,1.5575,1.5575,1.5575,1.6042,1.6514,1.6514,1.6873,1.7349,1.7349,1.6873,1.675,1.8052,1.8409,1.8525,1.9249,1.9366,1.9366,1.9366,1.9366,1.9366,1.9366,1.9366,1.9366,1.9366,1.9366,1.9366,1.9366,1.9118,1.8824,1.8531,1.8237,1.7929,1.7615,1.7582,1.7582,1.7378,1.7279,1.7067,1.6955,1.6636,1.653,1.653,1.6211,1.5998,1.5891,1.5891,1.5891,1.5891,1.5891,1.5565,1.4922,1.4493,1.384,1.3181,1.2635,1.2417,1.2304,1.1214,1.1,1.1437,1.0241,1.0025,1.046,1.046,1.046,1.057,1.1219,1.1109,1.057,2.1109,2.1109,2.1109,2.1109,2.1109,2.1109,2.1109,2.1109,2.1109,2.1109,2.1109,2.1109,2.1109,2.1109,2.1109,2.1109,1.8914,1.749,1.7367,1.7109,1.698,1.698,1.6773,1.7134,1.8135,1.797,1.8292,1.9366,1.9366,1.9366,1.9366,1.9366,1.9366,1.9366,1.9366,1.9366,1.9366,1.9366,1.9366,1.9366,1.8169,1.7812,1.7695,1.6632,1.6161,1.6161,1.6161,1.6161,1.6161,1.6161,1.6868,1.7812,1.7812,1.8525,1.9366,1.9366,1.8648,1.8046,1.9127,1.9366,1.9366,1.9366,1.9366,1.9366,1.9366,1.9366,1.9366,1.9366,1.9366,1.9366,1.9366,1.9366,1.9352,1.9305,1.9052,1.8758,1.8464,1.8163,1.7883,1.7615,1.7582,1.7582,1.7582,1.7378,1.7279,1.7279,1.6955,1.673,1.673,1.653,1.6217,1.5998,1.5891,1.5891,1.5891,1.5891,1.5891,1.5891,1.4922,1.4487,1.4379,1.3398,1.2955,1.2847,1.176,1.1764,1.2635,1.1437,1.1546,1.2417,1.2417,1.2417,1.2417,1.2635,1.2526,1.2413,2.1109,2.1109,2.1109,2.1109,2.1109,2.1109,2.1109,2.1109,2.1109,2.1109,2.1109,2.1109,2.1109,2.1109,2.1109,2.1109,2.0722,1.9947,1.878,1.7619,1.698,1.698,1.7531,1.8006,1.8257,1.8819,1.9243,1.9366,1.9366,1.9366,1.9366,1.9366,1.9366,1.9366,1.9366,1.9366,1.9366,1.9366,1.9366,1.9366,1.9127,1.9127,1.9127,1.8894,1.8771,1.8771,1.8771,1.8771,1.8771,1.8771,1.8894,1.9127,1.9127,1.9243,1.9366,1.9366,1.9249,1.9127,1.9366,1.9366,1.9366,1.9366,1.9366,1.9366,1.9366,1.9366,1.9366,1.9366,1.9366,1.9366,1.9366,1.9366,1.9285,1.9032,1.8744,1.8457,1.8156,1.7849,1.7635,1.7589,1.7582,1.7582,1.7582,1.7582,1.7582,1.7582,1.7279,1.7067,1.7067,1.6842,1.653,1.6217,1.5998,1.5891,1.5891,1.5891,1.5891,1.5891,1.5672,1.5678,1.5672,1.5452,1.5345,1.5238,1.4159,1.3727,1.3835,1.2635,1.22,1.2417,1.2417,1.2417,1.2526,1.3511,1.329,1.263,2.1109,2.1109,2.1109,2.1109,2.1109,2.1109,2.1109,2.1109,2.1109,2.1109,2.1109,2.1109,2.1109,2.1109,2.1109,2.1109,2.1109,2.0849,2.0202,1.9559,1.917,1.917,1.9286,1.9102,1.8803,1.9265,1.9366,1.9366,1.9366,1.9366,1.9366,1.9366,1.9366,1.9366,1.9366,1.9366,1.9366,1.9366,1.9366,1.9366,1.9366,1.9366,1.9366,1.9366,1.9366,1.9366,1.9366,1.9366,1.9366,1.9366,1.9366,1.9366,1.9366,1.9366,1.9366,1.9366,1.9366,1.9366,1.9366,1.9366,1.9366,1.9366,1.9366,1.9366,1.9366,1.9366,1.9366,1.9366,1.9366,1.9366,1.9366,1.9239,1.9085,1.8945,1.8544,1.8203,1.8063,1.7776,1.7582,1.7582,1.7582,1.7582,1.7582,1.7582,1.7582,1.7582,1.7483,1.7378,1.7378,1.7166,1.6849,1.653,1.6105,1.5891,1.5891,1.5891,1.5891,1.5891,1.5891,1.5891,1.5891,1.5891,1.5891,1.5891,1.4702,1.46,1.5024,1.3835,1.3722,1.4261,1.4261,1.4369,1.4589,1.5137,1.5018,1.4787,2.1109,2.1109,2.1109,2.1109,2.1109,2.1109,2.1109,2.1109,2.1109,2.1109,2.1109,2.1109,2.1109,2.1109,2.1109,2.1109,2.1109,2.1109,2.1109,2.1109,2.1082,2.1009,2.0448,1.9893,1.9379,1.9366,1.9366,1.9366,1.9366,1.9366,1.9366,1.9366,1.9366,1.9366,1.9366,1.9366,1.9366,1.9366,1.9366,1.9366,1.9366,1.9366,1.9366,1.9366,1.9366,1.9366,1.9366,1.9366,1.9366,1.9366,1.9366,1.9366,1.9366,1.9366,1.9366,1.9366,1.9366,1.9366,1.9366,1.9366,1.9366,1.9366,1.9366,1.9366,1.9366,1.9366,1.9366,1.9366,1.9366,1.9366,1.9366,1.9347,1.9224,1.9156,1.87,1.8333,1.8265,1.7941,1.7582,1.7582,1.7582,1.7582,1.7582,1.7582,1.7582,1.7582,1.7582,1.7582,1.7582,1.7378,1.706,1.673,1.6205,1.5891,1.5998,1.5998,1.5998,1.5998,1.5998,1.5998,1.5891,1.5891,1.5891,1.5885,1.503,1.5137,1.5891,1.503,1.5244,1.6099,1.6099,1.6211,1.6424,1.6424,1.653,1.673,2.1109,2.1109,2.1109,2.1109,2.1109,2.1109,2.1109,2.1109,2.1109,2.1109,2.1109,2.1109,2.1109,2.1109,2.1109,2.1109,2.1109,2.1109,2.1109,2.1109,2.0989,2.0722,2.0147,1.9686,1.9372,1.9366,1.9366,1.9366,1.9366,1.9366,1.9366,1.9366,1.9366,1.9366,1.9366,1.9366,1.9366,1.9366,1.9366,1.9366,1.9366,1.9366,1.9366,1.9366,1.9366,1.9366,1.9366,1.9366,1.9366,1.9366,1.9366,1.9366,1.9366,1.9366,1.9366,1.9366,1.9366,1.9366,1.9366,1.9366,1.9366,1.9366,1.9366,1.9366,1.9366,1.9366,1.9366,1.9366,1.9366,1.9366,1.9366,2.0011,2.0352,2.0055,1.9722,1.951,1.9204,1.8213,1.7582,1.7582,1.7582,1.7582,1.7582,1.7582,1.7582,1.7582,1.7582,1.7582,1.7582,1.7582,1.7265,1.673,1.6205,1.5998,1.6217,1.6217,1.6217,1.6217,1.6217,1.6111,1.5891,1.5891,1.5891,1.5891,1.5785,1.5998,1.6217,1.6217,1.6318,1.6624,1.6624,1.6624,1.6624,1.6624,1.673,1.673,2.1362,2.1235,2.1109,2.1109,2.1109,2.1109,2.1109,2.1109,2.1109,2.1109,2.1109,2.1109,2.1109,2.1109,2.1109,2.1109,2.1109,2.1109,2.1109,2.0942,2.0708,2.0414,2.0013,1.9659,1.9372,1.9366,1.9366,1.9366,1.9366,1.9366,1.9366,1.9366,1.9366,1.9366,1.9366,1.9366,1.9366,1.9366,1.9366,1.9366,1.9366,1.9366,1.9366,1.9366,1.9366,1.9366,1.9366,1.9366,1.9366,1.9366,1.9366,1.9366,1.9366,1.9366,1.9366,1.9366,1.9366,1.9366,1.9366,1.9366,1.9366,1.9366,1.9366,1.9366,1.9366,1.9366,1.9366,1.9366,2.0053,2.0437,2.0231,2.0811,2.124,2.0903,2.0573,2.0408,2.0285,1.9849,1.9339,1.8715,1.861,1.8304,1.7687,1.8199,1.8304,1.7687,1.8199,1.8304,1.7687,1.7483,1.7279,1.7067,1.663,1.6311,1.5998,1.6217,1.6217,1.5998,1.5998,1.5998,1.5891,1.5891,1.5998,1.6111,1.6111,1.6318,1.653,1.653,1.663,1.673,1.673,1.6842,1.6955,1.6955,1.7166,1.7239,2.2952,2.2341,2.1846,2.1846,2.1481,2.1109,2.1109,2.1109,2.1109,2.1109,2.1109,2.1109,2.1109,2.1109,2.1109,2.1109,2.1109,2.1109,2.1109,2.0748,2.0401,2.0107,1.982,1.9573,1.9372,1.9366,1.9366,1.9366,1.9366,1.9366,1.9366,1.9366,1.9366,1.9366,1.9366,1.9366,1.9366,1.9366,1.9366,1.9366,1.9366,1.9366,1.9366,1.9366,1.9366,1.9366,1.9366,1.9366,1.9366,1.9366,1.9366,1.9366,1.9366,1.9366,1.9366,1.9366,1.9366,1.9366,1.9366,1.9366,1.9366,1.9366,1.9366,1.9366,1.9366,1.9366,1.9482,1.9931,2.053,2.106,2.116,2.1736,2.2209,2.186,2.1631,2.1395,2.1395,2.1089,2.0577,1.9849,1.9746,1.9435,1.8722,1.9332,1.9435,1.8722,1.9027,1.8715,1.7687,1.7378,1.7279,1.7179,1.7054,1.673,1.6205,1.6318,1.6318,1.6099,1.6099,1.6105,1.5998,1.6099,1.6205,1.6424,1.6424,1.6636,1.6842,1.6842,1.6948,1.6942,1.6942,1.716,1.7279,1.7279,1.7483,1.7542,2.5741,2.4778,2.3574,2.3574,2.2215,2.1109,2.1109,2.1109,2.1109,2.1109,2.1109,2.1109,2.1109,2.1109,2.1109,2.1109,2.1109,2.1109,2.1102,2.0555,2.01,1.9813,1.9519,1.9366,1.9366,1.9366,1.9366,1.9366,1.9366,1.9366,1.9366,1.9366,1.9366,1.9366,1.9366,1.9366,1.9366,1.9366,1.9366,1.9366,1.9366,1.9366,1.9366,1.9366,1.9366,1.9366,1.9366,1.9366,1.9366,1.9366,1.9366,1.9366,1.9366,1.9366,1.9366,1.9366,1.9366,1.9366,1.9366,1.9366,1.9366,1.9366,1.9366,1.9366,1.9366,1.9366,1.9707,2.0945,2.0903,2.1004,2.2206,2.2732,2.2988,2.2988,2.2775,2.2526,2.2526,2.1599,2.0885,2.0885,2.0885,2.0885,2.0885,2.0885,2.0885,2.0885,1.9849,1.8715,1.7687,1.7582,1.7483,1.7173,1.7483,1.7265,1.673,1.673,1.673,1.673,1.673,1.6524,1.6324,1.663,1.673,1.673,1.673,1.6842,1.7179,1.7179,1.7384,1.7582,1.7582,1.7582,1.7582,1.7582,1.7582,1.7542,2.6236,2.5741,2.5261,2.5261,2.3931,2.2834,2.2834,2.1853,2.1109,2.1109,2.1109,2.1109,2.1109,2.1109,2.1109,2.1109,2.1109,2.0935,2.0521,2.014,1.98,1.9506,1.9412,1.9366,1.9366,1.9366,1.9366,1.9366,1.9366,1.9366,1.9366,1.9366,1.9366,1.9366,1.9366,1.9366,1.9366,1.9366,1.9366,1.9366,1.9366,1.9366,1.9366,1.9366,1.9366,1.9366,1.9366,1.9366,1.9366,1.9366,1.9366,1.9366,1.9366,1.9366,1.9366,1.9366,1.9366,1.9366,1.9366,1.9366,1.9366,1.9366,1.9366,1.9366,1.9366,2.0046,2.0659,2.0761,2.2071,2.3053,2.2878,2.3566,2.4158,2.3871,2.3727,2.3646,2.3646,2.3438,2.2929,2.2114,2.2013,2.1709,2.0987,2.1599,2.1709,2.0987,1.9849,1.902,1.8715,1.7996,1.7582,1.7483,1.7582,1.7477,1.7371,1.7166,1.6955,1.673,1.673,1.6624,1.663,1.6624,1.6842,1.7067,1.7067,1.7166,1.7483,1.7483,1.7483,1.7582,1.7582,1.7582,1.7582,1.7582,1.7455,1.7235,2.8188,2.7572,2.6953,2.6953,2.5627,2.4417,2.3822,2.2959,2.2097,2.1355,2.1362,2.1235,2.1109,2.1109,2.1109,2.1109,2.1002,2.0688,2.01,1.99,1.9673,1.9379,1.9366,1.9366,1.9366,1.9366,1.9366,1.9366,1.9366,1.9366,1.9366,1.9366,1.9366,1.9366,1.9366,1.9366,1.9366,1.9366,1.9366,1.9366,1.9366,1.9366,1.9366,1.9366,1.9366,1.9366,1.9366,1.9366,1.9366,1.9366,1.9366,1.9366,1.9366,1.9366,1.9366,1.9366,1.9366,1.9482,1.9931,2.0162,2.027,2.0723,2.05,2.0162,2.0162,2.0958,2.1699,2.193,2.2979,2.3728,2.3712,2.4224,2.4455,2.4198,2.4152,2.4152,2.4152,2.4152,2.3945,2.3238,2.3138,2.2929,2.2316,2.2828,2.2728,2.1607,2.0877,2.0158,1.9228,1.861,1.7996,1.7582,1.7582,1.7582,1.7582,1.7483,1.7166,1.6955,1.6955,1.6955,1.6955,1.7054,1.716,1.7384,1.7384,1.7483,1.7582,1.7582,1.7582,1.7582,1.7582,1.7582,1.7569,1.7455,1.7228,1.6914,3.0645,2.9648,2.8664,2.8664,2.7323,2.5863,2.4679,2.4317,2.3698,2.1978,2.1859,2.1607,2.1235,2.1109,2.1096,2.1076,2.0782,2.0368,1.984,1.9773,1.9646,1.9379,1.9366,1.9366,1.9366,1.9366,1.9366,1.9366,1.9366,1.9366,1.9366,1.9366,1.9366,1.9366,1.9366,1.9366,1.9366,1.9366,1.9366,1.9366,1.9366,1.9366,1.9366,1.9366,1.9366,1.9366,1.9366,1.9366,1.9366,1.9366,1.9366,1.9366,1.9366,1.9366,1.9366,1.9482,1.9597,1.9822,2.106,2.1402,2.1623,2.2757,2.2281,2.1465,2.1358,2.2004,2.2857,2.3886,2.3562,2.3512,2.4527,2.4409,2.4152,2.4152,2.4152,2.4152,2.4152,2.4152,2.4152,2.4152,2.4152,2.4152,2.4152,2.4152,2.3746,2.2728,2.2526,2.1599,1.9642,1.9332,1.8715,1.7786,1.7687,1.7582,1.7582,1.7582,1.7483,1.7279,1.7279,1.7279,1.7279,1.7483,1.7582,1.7582,1.7582,1.7582,1.7582,1.7582,1.7582,1.7582,1.7582,1.7549,1.7475,1.7208,1.6887,1.6506,3.0889,3.0645,3.0392,3.0392,2.9039,2.7811,2.7452,2.6357,2.5146,2.3698,2.3333,2.2716,2.1607,2.1235,2.1022,2.0795,2.0294,1.9933,1.9806,1.9586,1.9432,1.9372,1.9366,1.9366,1.9366,1.9366,1.9366,1.9366,1.9366,1.9366,1.9366,1.9366,1.9366,1.9366,1.9366,1.9366,1.9366,1.9366,1.9366,1.9366,1.9366,1.9366,1.9366,1.9366,1.9366,1.9366,1.9366,1.9366,1.9366,1.9366,1.9366,1.9366,1.9366,1.9366,1.9597,2.05,2.0838,2.106,2.2305,2.2636,2.2644,2.2974,2.3324,2.3324,2.2332,2.3039,2.3702,2.3346,2.3841,2.437,2.4354,2.4216,2.4152,2.4152,2.4152,2.4152,2.4152,2.4152,2.4152,2.4152,2.4152,2.4152,2.4152,2.4152,2.4053,2.3845,2.3029,2.2325,2.1802,2.0151,1.9124,1.8819,1.7996,1.7582,1.7582,1.7582,1.7582,1.7477,1.7477,1.7477,1.7483,1.7582,1.7582,1.7582,1.7582,1.7582,1.7582,1.7582,1.7582,1.7582,1.7582,1.7301,1.6887,1.682,1.6326,1.5598,3.0889,3.0889,3.0889,3.0889,3.0147,2.9403,2.8792,2.7931,2.6841,2.5399,2.5032,2.4663,2.3799,2.3286,2.2882,2.2408,2.1493,2.0772,2.0611,2.0014,1.9475,1.9366,1.9366,1.9366,1.9366,1.9366,1.9366,1.9366,1.9366,1.9366,1.9366,1.9366,1.9366,1.9366,1.9366,1.9366,1.9366,1.9366,1.9366,1.9366,1.9366,1.9366,1.9366,1.9366,1.9366,1.9366,1.9366,1.9366,1.9366,1.9366,1.9822,2.027,2.027,2.0608,2.1288,2.1851,2.2078,2.2305,2.3536,2.388,2.395,2.4327,2.4794,2.4744,2.3536,2.3922,2.442,2.3918,2.4206,2.4418,2.4198,2.4152,2.4152,2.4152,2.4152,2.4152,2.4152,2.4152,2.4152,2.4152,2.4152,2.4152,2.4152,2.4152,2.4152,2.4152,2.3646,2.3038,2.2526,2.1395,2.0261,1.9228,1.861,1.8094,1.7582,1.7582,1.7582,1.7582,1.7582,1.7582,1.7582,1.7582,1.7582,1.7582,1.7582,1.7582,1.7582,1.7582,1.7502,1.7361,1.7215,1.6894,1.6466,1.6186,1.5611,1.4917,3.0889,3.0889,3.0889,3.0889,3.0889,3.0518,2.9412,2.9285,2.8673,2.7091,2.6841,2.6574,2.6015,2.5506,2.4893,2.431,2.3074,2.2245,2.1722,2.0709,1.9931,1.9482,1.9482,1.9482,1.9366,1.9366,1.9366,1.9366,1.9366,1.9366,1.9366,1.9366,1.9366,1.9366,1.9366,1.9366,1.9366,1.9366,1.9366,1.9366,1.9366,1.9366,1.9366,1.9366,1.9366,1.9366,1.9366,1.9482,1.9707,1.9938,2.0723,2.1509,2.1509,2.2191,2.3087,2.3207,2.3311,2.3544,2.4778,2.5067,2.5165,2.5827,2.5858,2.5536,2.4552,2.4611,2.4757,2.4684,2.439,2.4152,2.4152,2.4152,2.4152,2.4152,2.4152,2.4152,2.4152,2.4152,2.4152,2.4152,2.4152,2.4152,2.4152,2.4152,2.4152,2.4152,2.4152,2.3746,2.2828,2.2627,2.17,1.9849,1.9435,1.8923,1.8206,1.7996,1.7996,1.8199,1.8199,1.7996,1.7582,1.7582,1.7582,1.7582,1.7582,1.7555,1.7508,1.7508,1.7308,1.6974,1.6727,1.6393,1.5979,1.5391,1.4863,1.4409,3.0889,3.0889,3.0889,3.0889,3.0889,3.0889,3.0645,3.0645,3.0147,2.8801,2.8298,2.756,2.6032,2.5036,2.4367,2.4269,2.386,2.3103,2.2063,2.1843,2.1174,1.9815,1.97,1.9591,1.9366,1.9366,1.9366,1.9366,1.9366,1.9366,1.9366,1.9366,1.9366,1.9366,1.9366,1.9366,1.9366,1.9366,1.9366,1.9366,1.9366,1.9366,1.9366,1.9366,1.9366,1.9366,1.9366,2.0046,2.1067,2.2191,2.2644,2.2757,2.2757,2.2869,2.3207,2.4214,2.4556,2.4778,2.6017,2.61,2.5809,2.5977,2.5445,2.4941,2.4727,2.4756,2.4675,2.4317,2.4198,2.4152,2.4152,2.4152,2.4152,2.4152,2.4152,2.4152,2.4152,2.4152,2.4152,2.4152,2.4152,2.4152,2.4152,2.4152,2.4152,2.4152,2.4152,2.4152,2.3945,2.3038,2.2325,2.2013,2.0158,1.9642,2.0475,1.9435,1.9435,2.0475,2.0475,1.9435,1.7582,1.7582,1.7582,1.7582,1.7582,1.7442,1.7208,1.7208,1.6887,1.6386,1.6346,1.5845,1.507,1.4482,1.4215,1.4142,3.0889,3.0889,3.0889,3.0889,3.0889,3.0889,3.0889,3.0889,3.0548,2.9688,2.9524,2.9006,2.8003,2.7115,2.6578,2.6564,2.5604,2.4837,2.4275,2.3727,2.262,2.1174,2.106,2.0723,1.9931,1.9707,1.9591,1.9591,1.9482,1.9366,1.9366,1.9366,1.9366,1.9366,1.9366,1.9366,1.9366,1.9366,1.9366,1.9366,1.9366,1.9822,2.0385,2.0385,2.0838,2.1402,2.1402,2.1737,2.2305,2.2862,2.3432,2.3991,2.3991,2.4445,2.5119,2.5679,2.5798,2.5854,2.619,2.6105,2.5848,2.5408,2.5041,2.4721,2.4482,2.4427,2.4381,2.4189,2.4152,2.4152,2.4152,2.4152,2.4152,2.4152,2.4152,2.4152,2.4152,2.4152,2.4152,2.4152,2.4152,2.4152,2.4152,2.4152,2.4152,2.4152,2.4152,2.4152,2.4152,2.3746,2.3138,2.2526,2.1599,2.0979,2.0885,2.0364,2.0364,2.0885,2.0885,2.0055,1.8506,1.8506,1.8199,1.7569,1.7408,1.7268,1.7141,1.6974,1.6553,1.6012,1.5845,1.5244,1.4442,1.4182,1.4188,1.4329]}]]